Date StartTime U_cm/s V_cm/s W_cm/s Ustd_cm/s Vstd_cm/s Wstd_cm/s Uvar_(cm/s)^2 Vvar_(cm/s)^2 Wvar_(cm/s)^2 KE_(m/s)^2 TurbulentKE_(m/s)^2 HorizWindSpeed_cm/s FrictionSpeec_cm/s DragCoef SpeedOfSound_m/s SonicTemperature_C Pressure_mb 
11/16/2014  00:00:00       37.041      103.031      -11.954       38.086       56.105       35.492     1450.518     3147.791     1259.687        0.899        0.293      109.487       35.156        0.103      331.600       -0.281      869.751
11/16/2014  00:01:00       54.281       95.154      -14.224       40.261       53.363       35.859     1620.944     2847.631     1285.883        0.898        0.288      109.547       30.448        0.077      331.590       -0.297      869.761
11/16/2014  00:02:00       56.077       75.201        1.347       47.855       45.042       33.568     2290.111     2028.754     1126.784        0.712        0.272       93.807       27.592        0.087      331.528       -0.398      869.747
11/16/2014  00:03:00       82.702       79.259       -1.236       51.242       45.328       45.254     2625.779     2054.666     2047.899        0.992        0.336      114.550       33.922        0.088      331.541       -0.378      869.737
11/16/2014  00:04:00      127.481       86.653       18.905       42.436       29.918       29.813     1800.801      895.058      888.825        1.385        0.179      154.144       14.154        0.008      331.491       -0.460      869.749
11/16/2014  00:05:00      101.470       93.332       14.977       69.554       46.983       32.764     4837.776     2207.392     1073.489        1.367        0.406      137.866       16.204        0.014      331.544       -0.373      869.768
11/16/2014  00:06:00       46.179       81.549        0.124       42.334       47.804       38.487     1792.199     2285.240     1481.253        0.717        0.278       93.717       32.696        0.122      331.522       -0.409      869.784
11/16/2014  00:07:00       35.120      126.883      -13.903       43.774       55.238       36.246     1916.171     3051.275     1313.769        1.190        0.314      131.654       37.432        0.081      331.518       -0.416      869.817
11/16/2014  00:08:00       22.932      131.322      -13.686       45.034       74.200       32.429     2028.051     5505.640     1051.665        1.327        0.429      133.310       38.734        0.084      331.483       -0.476      869.861
11/16/2014  00:09:00       42.925      105.358        4.022       46.347       63.953       43.673     2148.057     4089.973     1907.370        1.055        0.407      113.767       39.090        0.118      331.484       -0.473      869.888
11/16/2014  00:10:00       22.388       99.725       -3.645       39.120       60.162       35.997     1530.382     3619.486     1295.774        0.845        0.322      102.207       24.605        0.058      331.417       -0.581      869.909
11/16/2014  00:11:00       28.086       68.753       -2.796       32.062       56.078       30.056     1027.953     3144.698      903.379        0.530        0.254       74.268       33.128        0.199      331.445       -0.537      869.920
11/16/2014  00:12:00       46.233      108.608       -9.455       40.682       65.703       35.673     1655.036     4316.821     1272.596        1.063        0.362      118.039       39.661        0.113      331.414       -0.587      869.950
11/16/2014  00:13:00       64.645       50.333       12.289       61.121       42.779       28.859     3735.728     1830.050      832.850        0.663        0.320       81.929       15.942        0.038      331.407       -0.596      869.969
11/16/2014  00:14:00       93.059       72.225       11.945       37.053       43.203       41.883     1372.938     1866.506     1754.187        0.951        0.250      117.798       30.194        0.066      331.405       -0.602      869.977
11/16/2014  00:15:00       92.033       76.730        6.566       45.776       32.901       20.958     2095.434     1082.491      439.243        0.901        0.181      119.823       11.181        0.009      331.370       -0.659      869.979
11/16/2014  00:16:00       63.309       43.372        3.481       38.085       26.522       23.533     1450.471      703.394      553.794        0.430        0.135       76.741       10.013        0.017      331.349       -0.695      869.987
11/16/2014  00:17:00       44.161       78.044        8.591       47.864       52.053       34.167     2290.964     2709.484     1167.374        0.714        0.308       89.672       35.069        0.153      331.350       -0.691      869.977
11/16/2014  00:18:00       55.411       73.279      -11.180       39.441       42.039       30.922     1555.558     1767.307      956.193        0.642        0.214       91.871       22.129        0.058      331.344       -0.702      869.956
11/16/2014  00:19:00       72.447       62.596        1.240       32.492       47.007       34.041     1055.732     2209.668     1158.822        0.680        0.221       95.744       31.254        0.107      331.356       -0.681      869.949
11/16/2014  00:20:00       58.580       40.386        7.079       58.850       34.598       21.832     3463.309     1196.993      476.633        0.512        0.257       71.152       11.904        0.028      331.344       -0.702      869.976
11/16/2014  00:21:00       51.168       38.480       -0.873       25.333       22.154       16.358      641.771      490.786      267.582        0.275        0.070       64.023       10.436        0.027      331.352       -0.689      869.995
11/16/2014  00:22:00       54.899       78.438       -0.964       32.427       42.773       29.951     1051.506     1829.498      897.061        0.647        0.189       95.742       26.555        0.077      331.356       -0.680      869.996
11/16/2014  00:23:00       94.875       80.961        2.662       45.699       49.151       36.633     2088.388     2415.806     1341.963        1.070        0.292      124.723       31.678        0.065      331.393       -0.621      870.000
11/16/2014  00:24:00      106.500       90.591       12.630       48.191       35.517       38.810     2322.352     1261.422     1506.246        1.240        0.255      139.818       28.346        0.041      331.362       -0.671      870.012
11/16/2014  00:25:00      105.985       62.859       32.611       53.612       40.611       32.460     2874.219     1649.270     1053.640        1.091        0.279      123.224       20.469        0.028      331.403       -0.607      870.011
11/16/2014  00:26:00      116.877       86.164       20.178       46.526       33.194       29.944     2164.681     1101.848      896.630        1.283        0.208      145.205       21.585        0.022      331.382       -0.639      870.017
11/16/2014  00:27:00       51.436       92.582        9.255       47.151       62.989       39.198     2223.195     3967.588     1536.514        0.951        0.386      105.911       39.870        0.142      331.382       -0.639      870.004
11/16/2014  00:28:00       32.609      117.705       -7.553       30.017       51.506       34.019      901.042     2652.898     1157.305        0.984        0.236      122.139       32.540        0.071      331.328       -0.728      869.973
11/16/2014  00:29:00       42.118      102.887       -8.936       42.781       49.256       32.835     1830.204     2426.199     1078.148        0.889        0.267      111.174       31.970        0.083      331.322       -0.738      869.955
11/16/2014  00:30:00       53.357      152.678      -15.832       35.710       68.057       39.991     1275.216     4631.770     1599.295        1.696        0.375      161.733       35.474        0.048      331.352       -0.688      869.949
11/16/2014  00:31:00       49.316      114.599       -3.604       54.796       51.049       44.352     3002.562     2605.991     1967.096        1.158        0.379      124.760       36.564        0.086      331.357       -0.680      869.950
11/16/2014  00:32:00       30.105       89.080       -7.440       45.704       66.501       44.380     2088.882     4422.403     1969.558        0.869        0.424       94.030       37.640        0.160      331.356       -0.681      869.948
11/16/2014  00:33:00       65.558       97.391      -10.000       55.947       64.871       47.062     3130.065     4208.247     2214.833        1.172        0.478      117.400       41.469        0.125      331.418       -0.581      869.954
11/16/2014  00:34:00       44.211       97.279        1.781       43.322       68.203       47.293     1876.786     4651.595     2236.598        1.009        0.438      106.855       43.358        0.165      331.356       -0.682      869.964
11/16/2014  00:35:00       77.238      125.735        8.308       67.227       76.919       56.954     4519.533     5916.573     3243.710        1.776        0.684      147.564       50.618        0.118      331.409       -0.596      869.984
11/16/2014  00:36:00       63.655       96.271        3.882       61.474       68.643       45.008     3778.999     4711.825     2025.746        1.192        0.526      115.413       38.011        0.108      331.414       -0.587      870.012
11/16/2014  00:37:00       96.040       65.458        9.409       78.290       55.865       43.555     6129.340     3120.908     1897.015        1.237        0.557      116.226       34.606        0.089      331.445       -0.536      870.044
11/16/2014  00:38:00       82.163       89.850        3.123       47.336       61.751       42.312     2240.735     3813.163     1790.335        1.134        0.392      121.753       28.361        0.054      331.438       -0.549      870.075
11/16/2014  00:39:00      100.787       71.879        9.182       45.623       31.011       29.019     2081.487      961.700      842.111        0.965        0.194      123.793       18.149        0.021      331.410       -0.594      870.130
11/16/2014  00:40:00       75.427       76.355       19.851       53.615       48.097       42.441     2874.602     2313.300     1801.279        0.945        0.349      107.328       34.195        0.102      331.409       -0.596      870.164
11/16/2014  00:41:00       32.723      125.186       -8.288       53.834       57.659       41.736     2898.101     3324.611     1741.919        1.239        0.398      129.392       38.728        0.090      331.445       -0.536      870.182
11/16/2014  00:42:00       81.150       96.262       10.588       78.180       66.057       45.777     6112.081     4363.516     2095.518        1.426        0.629      125.904       35.669        0.080      331.421       -0.576      870.205
11/16/2014  00:43:00      101.237       79.557        9.954       57.495       63.526       45.573     3305.721     4035.599     2076.938        1.305        0.471      128.756       36.611        0.081      331.401       -0.610      870.222
11/16/2014  00:44:00      128.784       89.930       21.313       71.740       50.761       38.362     5146.574     2576.723     1471.662        1.716        0.460      157.076       27.117        0.030      331.417       -0.582      870.243
11/16/2014  00:45:00       47.800       85.046        3.847       43.482       56.854       45.808     1890.688     3232.353     2098.345        0.838        0.361       97.558       44.242        0.206      331.339       -0.710      870.235
11/16/2014  00:46:00       54.926      222.602      -18.276       79.248       87.796       60.042     6280.247     7708.071     3605.066        3.524        0.880      229.278       54.362        0.056      331.390       -0.630      870.212
11/16/2014  00:47:00       60.015      141.208       -5.181       66.489       76.905       47.169     4420.848     5914.315     2224.931        1.806        0.628      153.432       43.601        0.081      331.377       -0.648      870.183
11/16/2014  00:48:00       74.737      142.078        2.671      110.754       89.548       61.673    12266.365     8018.843     3803.612        2.493        1.204      160.536       51.586        0.103      331.342       -0.707      870.174
11/16/2014  00:49:00      160.928      140.521       26.065       93.405       74.930       74.902     8724.487     5614.523     5610.326        3.313        0.997      213.644       57.564        0.073      331.421       -0.577      870.161
11/16/2014  00:50:00      113.791      116.163       24.101      100.446       64.960       58.649    10089.498     4219.812     3439.698        2.238        0.887      162.611       37.006        0.052      331.446       -0.537      870.152
11/16/2014  00:51:00       96.221       89.533       13.740       66.840       45.843       43.004     4467.589     2101.579     1849.343        1.294        0.421      131.433       20.576        0.025      331.436       -0.551      870.162
11/16/2014  00:52:00      103.916      137.032       -3.958       73.489       76.783       63.864     5400.566     5895.574     4078.547        2.248        0.769      171.977       50.841        0.087      331.422       -0.577      870.184
11/16/2014  00:53:00       81.614      128.329        0.286       78.451       81.344       44.336     6154.516     6616.883     1965.699        1.893        0.737      152.083       45.962        0.091      331.419       -0.578      870.203
11/16/2014  00:54:00      109.251       43.508       12.662       80.301       45.244       38.011     6448.256     2047.046     1444.820        1.196        0.497      117.596       24.945        0.045      331.370       -0.659      870.231
11/16/2014  00:55:00      105.389       88.742        5.225       72.486       53.654       39.421     5254.285     2878.755     1553.999        1.435        0.484      137.775       25.842        0.035      331.377       -0.648      870.249
11/16/2014  00:56:00       86.970       89.864       -0.652       72.041       74.702       47.340     5189.958     5580.324     2241.104        1.432        0.651      125.057       48.327        0.149      331.360       -0.676      870.259
11/16/2014  00:57:00       79.102       64.394        6.831       55.716       45.117       37.715     3104.254     2035.582     1422.397        0.851        0.328      101.999       19.653        0.037      331.342       -0.704      870.267
11/16/2014  00:58:00      155.443      110.398       15.651       53.757       48.985       53.632     2889.862     2399.517     2876.378        2.238        0.408      190.657       36.238        0.036      331.379       -0.645      870.250
11/16/2014  00:59:00       58.687       87.354      -15.524       29.697       33.204       24.517      881.921     1102.485      601.097        0.695        0.129      105.237       18.046        0.029      331.362       -0.673      870.220
11/16/2014  01:00:00       67.962       69.083        1.203       62.234       43.910       34.354     3873.088     1928.071     1180.194        0.819        0.349       96.909       25.215        0.068      331.319       -0.743      870.211
11/16/2014  01:01:00       96.718      107.644        3.421       66.866       50.928       43.161     4471.054     2593.705     1862.906        1.494        0.446      144.712       35.940        0.062      331.305       -0.765      870.212
11/16/2014  01:02:00       61.430      100.187       -7.727       64.257       83.611       39.893     4129.008     6990.802     1591.412        1.329        0.636      117.520       40.020        0.116      331.300       -0.774      870.220
11/16/2014  01:03:00       85.763      100.143        6.182       63.253       45.972       40.241     4000.911     2113.382     1619.353        1.258        0.387      131.848       34.466        0.068      331.295       -0.781      870.238
11/16/2014  01:04:00       88.231       53.031        7.007       61.330       37.416       30.592     3761.398     1399.925      935.888        0.837        0.305      102.941       27.215        0.070      331.263       -0.834      870.234
11/16/2014  01:05:00       66.331       63.926       -6.194       42.021       30.585       26.486     1765.755      935.415      701.512        0.596        0.170       92.121       17.460        0.036      331.276       -0.811      870.230
11/16/2014  01:06:00       62.380       69.847       12.053       56.312       45.668       44.657     3171.096     2085.529     1994.219        0.808        0.363       93.647       34.167        0.133      331.297       -0.777      870.226
11/16/2014  01:07:00       50.168       61.561      -12.006       45.719       28.686       20.197     2090.259      822.903      407.914        0.489        0.166       79.414       22.240        0.078      331.273       -0.818      870.248
11/16/2014  01:08:00       37.710       71.194       -2.509       30.774       39.940       27.271      947.041     1595.210      743.694        0.489        0.164       80.564       26.846        0.111      331.241       -0.870      870.275
11/16/2014  01:09:00       48.060       89.494       -5.610       45.521       56.228       39.020     2072.146     3161.572     1522.571        0.855        0.338      101.582       34.819        0.117      331.222       -0.903      870.313
11/16/2014  01:10:00       40.342      107.462      -14.034       33.111       57.229       27.347     1096.359     3275.169      747.833        0.924        0.256      114.785       27.096        0.056      331.193       -0.949      870.338
11/16/2014  01:11:00       48.500       84.668       -8.139       30.671       63.424       31.181      940.707     4022.604      972.282        0.776        0.297       97.576       33.465        0.118      331.183       -0.966      870.349
11/16/2014  01:12:00       68.801       76.383       -2.713       48.773       50.830       34.358     2378.842     2583.731     1180.459        0.836        0.307      102.801       30.076        0.086      331.170       -0.988      870.339
11/16/2014  01:13:00       30.367      116.699      -12.886       38.686       52.300       26.498     1496.594     2735.340      702.138        0.982        0.247      120.586       21.431        0.032      331.172       -0.986      870.326
11/16/2014  01:14:00       46.837      134.553       -7.518       33.752       85.470       39.818     1139.223     7305.194     1585.478        1.519        0.501      142.472       48.818        0.117      331.188       -0.960      870.322
11/16/2014  01:15:00       21.098      130.511      -13.491       36.225       49.003       26.389     1312.223     2401.310      696.386        1.103        0.220      132.205       26.239        0.039      331.134       -1.048      870.327
11/16/2014  01:16:00       26.939      106.600      -11.097       27.790       43.497       27.491      772.298     1891.981      755.736        0.782        0.171      109.951       27.791        0.064      331.111       -1.085      870.346
11/16/2014  01:17:00       33.964       62.452        4.325       30.878       57.050       28.138      953.423     3254.715      791.731        0.504        0.250       71.090       35.142        0.244      331.094       -1.113      870.371
11/16/2014  01:18:00       26.696      142.053      -16.229       23.762       33.232       23.337      564.620     1104.391      544.598        1.168        0.111      144.540       17.730        0.015      331.090       -1.120      870.397
11/16/2014  01:19:00       45.342       44.818        9.538       28.784       35.183       26.179      828.506     1237.810      685.324        0.345        0.138       63.754       19.624        0.095      331.068       -1.156      870.428
11/16/2014  01:20:00       49.766       81.586       -5.684       34.540       38.797       27.440     1193.027     1505.230      752.944        0.631        0.173       95.567       20.321        0.045      331.120       -1.072      870.460
11/16/2014  01:21:00       33.498       50.342        1.190       33.497       22.098       16.104     1122.039      488.330      259.324        0.276        0.093       60.469       12.680        0.044      331.101       -1.101      870.476
11/16/2014  01:22:00       62.051       64.921       -1.923       30.131       25.103       18.949      907.883      630.141      359.051        0.498        0.095       89.806       18.415        0.042      331.079       -1.137      870.482
11/16/2014  01:23:00       37.388       66.159       -4.501       24.216       28.008       20.368      586.400      784.462      414.841        0.379        0.089       75.993       16.596        0.048      331.062       -1.165      870.474
11/16/2014  01:24:00       23.407      112.888       -8.231       31.956       27.803       19.200     1021.203      773.019      368.625        0.776        0.108      115.289       18.388        0.025      331.102       -1.100      870.461
11/16/2014  01:25:00       40.624      139.987      -19.443       31.489       41.476       32.901      991.527     1720.220     1082.503        1.271        0.190      145.763       31.169        0.046      331.026       -1.226      870.453
11/16/2014  01:26:00       37.068      157.042      -16.560       38.012       62.556       35.426     1444.916     3913.282     1254.997        1.646        0.331      161.357       38.074        0.056      331.047       -1.192      870.460
11/16/2014  01:27:00       41.779      171.257      -21.103       42.150       64.465       36.750     1776.655     4155.734     1350.562        1.940        0.364      176.279       39.366        0.050      331.000       -1.269      870.468
11/16/2014  01:28:00       30.163      193.744      -18.794       37.754       53.304       33.908     1425.391     2841.332     1149.742        2.211        0.271      196.078       34.040        0.030      331.003       -1.265      870.486
11/16/2014  01:29:00       24.906      167.285      -16.853       41.875       73.920       34.553     1753.552     5464.133     1193.929        1.865        0.421      169.128       35.198        0.043      330.987       -1.291      870.493
11/16/2014  01:30:00       28.715      209.297      -32.159       41.988       84.608       31.573     1762.968     7158.450      996.836        2.779        0.496      211.258       44.869        0.045      331.051       -1.188      870.492
11/16/2014  01:31:00       15.169      201.386      -23.625       37.631       53.508       28.859     1416.092     2863.055      832.867        2.323        0.256      201.956       30.254        0.022      331.057       -1.177      870.496
11/16/2014  01:32:00       24.291      176.488      -13.840       31.854       54.962       37.011     1014.705     3020.864     1369.780        1.867        0.270      178.151       30.748        0.030      331.055       -1.178      870.519
11/16/2014  01:33:00       64.376       96.465       -8.480       46.420       53.248       38.948     2154.787     2835.299     1516.973        1.001        0.325      115.973       32.086        0.077      331.033       -1.214      870.541
11/16/2014  01:34:00       66.915       74.382       -0.161       38.666       46.459       35.685     1495.038     2158.398     1273.393        0.747        0.246      100.052       34.128        0.116      331.063       -1.165      870.565
11/16/2014  01:35:00       34.969      108.132       -4.758       38.278       50.924       34.373     1465.174     2593.256     1181.502        0.909        0.262      113.646       32.247        0.081      331.012       -1.247      870.573
11/16/2014  01:36:00       42.122      116.452       -3.231       53.140       86.658       50.433     2823.909     7509.659     2543.523        1.411        0.644      123.836       51.118        0.170      330.986       -1.291      870.570
11/16/2014  01:37:00       33.508      179.520      -25.388       41.874       51.938       32.331     1753.413     2697.528     1045.304        1.974        0.275      182.620       29.136        0.025      330.989       -1.287      870.556
11/16/2014  01:38:00       21.640      100.121       13.549       46.813       75.805       38.597     2191.496     5746.418     1489.740        1.005        0.471      102.432       38.910        0.144      330.961       -1.331      870.542
11/16/2014  01:39:00       25.747       76.910       -0.283       35.618       54.843       36.824     1268.634     3007.788     1355.975        0.610        0.282       81.105       33.763        0.173      330.959       -1.334      870.538
11/16/2014  01:40:00       55.276      118.567       -2.600       49.870       57.897       37.846     2487.011     3352.021     1432.343        1.219        0.364      130.819       29.167        0.050      330.957       -1.337      870.558
11/16/2014  01:41:00       87.655      141.074      -14.217       73.135       74.682       45.573     5348.771     5577.364     2076.929        2.039        0.650      166.089       48.710        0.086      331.011       -1.251      870.586
11/16/2014  01:42:00       83.143      121.727       -4.357       62.775       62.179       44.385     3940.660     3866.264     1970.017        1.576        0.489      147.412       38.570        0.068      331.021       -1.234      870.604
11/16/2014  01:43:00       48.262      125.147      -12.053       45.911       86.276       43.977     2107.843     7443.503     1933.974        1.481        0.574      134.130       46.109        0.118      331.010       -1.252      870.607
11/16/2014  01:44:00      128.636       77.547       20.009       71.400       30.970       39.203     5098.026      959.159     1536.881        1.528        0.380      150.202       23.862        0.025      331.038       -1.207      870.619
11/16/2014  01:45:00       67.357       61.414        9.718       41.947       36.417       27.730     1759.589     1326.197      768.955        0.613        0.193       91.152       22.262        0.060      330.998       -1.271      870.643
11/16/2014  01:46:00      109.392       62.611        8.790       42.528       32.008       27.798     1808.643     1024.540      772.717        0.978        0.180      126.043       22.506        0.032      331.042       -1.200      870.665
11/16/2014  01:47:00       52.414       60.061        5.403       41.305       29.836       27.770     1706.112      890.215      771.198        0.487        0.168       79.715       19.352        0.059      331.049       -1.187      870.667
11/16/2014  01:48:00      103.001       44.917       18.517       73.471       50.412       29.955     5397.945     2541.381      897.312        1.090        0.442      112.369       18.340        0.027      331.088       -1.124      870.668
11/16/2014  01:49:00      105.800       82.427        6.316       56.883       40.091       36.784     3235.625     1607.292     1353.078        1.211        0.310      134.119       27.159        0.041      331.052       -1.183      870.679
11/16/2014  01:50:00      114.252       84.595       12.376       55.638       39.752       35.523     3095.566     1580.254     1261.904        1.315        0.297      142.162       19.617        0.019      331.063       -1.163      870.692
11/16/2014  01:51:00       89.035       54.533       32.324       55.989       43.917       37.066     3134.781     1928.676     1373.906        0.919        0.322      104.408       19.894        0.036      331.109       -1.089      870.687
11/16/2014  01:52:00       94.963       73.872       -0.927       49.059       39.517       29.775     2406.803     1561.572      886.542        0.966        0.243      120.313       25.296        0.044      331.031       -1.217      870.679
11/16/2014  01:53:00       43.398       51.448       -1.930       38.692       33.692       20.857     1497.060     1135.149      434.997        0.380        0.153       67.307       16.253        0.058      331.010       -1.250      870.671
11/16/2014  01:54:00       67.190       74.981        1.180       47.391       52.464       39.226     2245.860     2752.423     1538.653        0.834        0.327      100.681       35.395        0.124      331.018       -1.238      870.691
11/16/2014  01:55:00      115.904       71.596       18.774       44.572       36.391       27.706     1986.620     1324.289      767.607        1.149        0.204      136.234       17.494        0.016      331.042       -1.199      870.731
11/16/2014  01:56:00       87.370       46.651       14.912       41.486       44.083       32.703     1721.076     1943.303     1069.497        0.738        0.237       99.045       20.782        0.044      331.044       -1.195      870.755
11/16/2014  01:57:00       61.142       61.377        2.263       34.946       25.910       25.817     1221.191      671.339      666.527        0.503        0.128       86.634       11.481        0.018      331.017       -1.241      870.765
11/16/2014  01:58:00       68.060       80.011        3.709       52.093       39.276       28.636     2713.653     1542.595      820.015        0.806        0.254      105.043       21.276        0.041      330.995       -1.275      870.764
11/16/2014  01:59:00       60.041       92.463        2.654       50.351       65.683       45.516     2535.273     4314.269     2071.674        1.054        0.446      110.247       36.261        0.108      330.984       -1.294      870.775
11/16/2014  02:00:00       74.457       83.307       -3.769       46.733       43.255       37.988     2183.929     1870.977     1443.112        0.900        0.275      111.731       25.736        0.053      330.951       -1.347      870.778
11/16/2014  02:01:00       42.751       74.038       -0.588       44.224       50.842       35.502     1955.804     2584.938     1260.365        0.655        0.290       85.494       29.913        0.122      330.928       -1.384      870.779
11/16/2014  02:02:00       27.811      155.456      -16.358       42.690       79.902       39.344     1822.423     6384.357     1547.931        1.748        0.488      157.924       41.791        0.070      330.966       -1.324      870.790
11/16/2014  02:03:00       40.379      120.668       -8.335       36.649       64.591       36.961     1343.131     4172.014     1366.100        1.157        0.344      127.245       37.494        0.087      330.898       -1.434      870.815
11/16/2014  02:04:00       27.950      108.773       -4.612       43.487       65.313       40.881     1891.127     4265.770     1671.287        1.023        0.391      112.307       42.902        0.146      330.870       -1.481      870.840
11/16/2014  02:05:00       43.806      115.477      -17.555       27.595       47.270       31.694      761.461     2234.412     1004.516        0.978        0.200      123.507       27.087        0.048      330.835       -1.538      870.879
11/16/2014  02:06:00       82.918       72.954        5.941       50.945       44.957       33.672     2595.368     2021.159     1133.792        0.899        0.288      110.443       25.564        0.054      330.807       -1.583      870.910
11/16/2014  02:07:00      112.931       73.672       15.941       58.449       34.042       33.760     3416.333     1158.890     1139.756        1.207        0.286      134.837       18.522        0.019      330.869       -1.482      870.937
11/16/2014  02:08:00       51.265      104.172      -13.161       48.175       74.922       37.925     2320.846     5613.250     1438.334        1.151        0.469      116.103       34.492        0.088      330.922       -1.395      870.936
11/16/2014  02:09:00      120.326       91.153       13.950       62.365       50.614       36.603     3889.343     2561.773     1339.779        1.538        0.390      150.954       22.354        0.022      330.937       -1.370      870.919
11/16/2014  02:10:00      129.132       90.393       15.785       68.449       52.616       39.645     4685.290     2768.445     1571.758        1.706        0.451      157.626       26.409        0.028      330.892       -1.445      870.911
11/16/2014  02:11:00       73.703       61.374        8.242       39.152       40.268       34.378     1532.842     1621.519     1181.832        0.680        0.217       95.911       24.772        0.067      330.877       -1.468      870.905
11/16/2014  02:12:00       54.655       84.953        8.301       55.564       59.313       38.332     3087.336     3517.980     1469.370        0.917        0.404      101.016       31.509        0.097      330.847       -1.519      870.899
11/16/2014  02:13:00       51.245       80.264       -0.952       78.862       55.898       46.441     6219.244     3124.636     2156.803        1.028        0.575       95.228       36.967        0.151      330.879       -1.466      870.901
11/16/2014  02:14:00       44.808      101.158       -7.093       46.304       57.077       35.898     2144.081     3257.748     1288.667        0.949        0.335      110.638       34.014        0.095      330.837       -1.535      870.912
11/16/2014  02:15:00       45.602       92.290       -1.555       50.714       79.557       43.180     2571.869     6329.359     1864.469        1.068        0.538      102.942       41.311        0.161      330.828       -1.550      870.921
11/16/2014  02:16:00       58.463       61.670       -1.954       34.035       33.303       28.325     1158.350     1109.086      802.317        0.515        0.153       84.977       23.502        0.076      330.837       -1.536      870.910
11/16/2014  02:17:00       25.410       96.538       -4.457       40.743       51.864       34.827     1660.020     2689.883     1212.908        0.777        0.278       99.826       32.141        0.104      330.828       -1.548      870.904
11/16/2014  02:18:00       63.234       84.297       -4.202       55.779       39.982       32.595     3111.325     1598.543     1062.431        0.845        0.289      105.378       26.491        0.063      330.836       -1.537      870.909
11/16/2014  02:19:00       38.409      126.014       -8.693       43.106       83.946       40.517     1858.105     7046.966     1641.625        1.399        0.527      131.737       40.103        0.093      330.835       -1.537      870.929
11/16/2014  02:20:00       41.466      120.379      -17.184       43.751       51.420       28.405     1914.145     2644.064      806.869        1.093        0.268      127.321       24.821        0.038      330.797       -1.600      870.942
11/16/2014  02:21:00       38.825       87.913       -5.015       36.100       54.178       26.420     1303.209     2935.218      698.042        0.710        0.247       96.105       28.580        0.088      330.803       -1.591      870.945
11/16/2014  02:22:00       30.755      107.307       -3.618       38.830       61.437       35.601     1507.762     3774.530     1267.402        0.951        0.327      111.628       38.893        0.121      330.801       -1.595      870.947
11/16/2014  02:23:00       46.596       55.556       17.863       36.579       37.705       35.374     1338.018     1421.654     1251.310        0.479        0.201       72.510       26.428        0.133      330.783       -1.622      870.963
11/16/2014  02:24:00       71.181       50.198       12.732       39.299       27.048       24.769     1544.428      731.575      613.507        0.532        0.144       87.101       14.760        0.029      330.791       -1.610      870.980
11/16/2014  02:25:00      104.874       66.722        2.313       34.319       28.781       28.682     1177.772      828.370      822.675        0.914        0.141      124.300       21.799        0.031      330.779       -1.630      870.979
11/16/2014  02:26:00       67.685       39.104        8.858       41.420       33.733       30.990     1715.638     1137.934      960.373        0.500        0.191       78.169       23.861        0.093      330.804       -1.589      870.990
11/16/2014  02:27:00      115.713       91.886        9.444       51.189       48.170       33.589     2620.355     2320.360     1128.212        1.399        0.303      147.759       31.141        0.044      330.783       -1.624      870.993
11/16/2014  02:28:00       79.433       70.375       11.348       44.929       34.720       23.518     2018.570     1205.451      553.090        0.758        0.189      106.124       15.016        0.020      330.792       -1.609      870.997
11/16/2014  02:29:00      107.578       80.481       25.451       47.672       45.669       33.020     2272.618     2085.645     1090.327        1.207        0.272      134.352       25.113        0.035      330.769       -1.647      870.996
11/16/2014  02:30:00       90.305       80.473        7.937       49.881       38.466       36.995     2488.097     1479.600     1368.636        1.001        0.267      120.958       26.490        0.048      330.760       -1.661      870.985
11/16/2014  02:31:00      102.789       77.218       14.537       63.895       49.361       34.642     4082.606     2436.515     1200.056        1.223        0.386      128.562       24.541        0.036      330.756       -1.669      870.994
11/16/2014  02:32:00       42.919       57.041       -0.874       35.480       42.671       27.473     1258.801     1820.801      754.787        0.446        0.192       71.384       23.997        0.113      330.710       -1.742      870.995
11/16/2014  02:33:00       37.626      128.452       -9.617       37.318       70.720       31.531     1392.603     5001.315      994.216        1.270        0.369      133.850       38.307        0.082      330.741       -1.694      871.005
11/16/2014  02:34:00       63.013       64.801       10.844       44.727       46.241       37.826     2000.504     2138.207     1430.810        0.693        0.278       90.386       25.899        0.082      330.730       -1.711      871.021
11/16/2014  02:35:00       65.052       79.273       -2.442       43.393       38.055       28.351     1882.971     1448.199      803.757        0.733        0.207      102.547       28.411        0.077      330.741       -1.693      871.033
11/16/2014  02:36:00       80.560      112.591       -8.669       52.610       51.772       43.530     2767.764     2680.363     1894.872        1.329        0.367      138.444       34.235        0.061      330.779       -1.631      871.028
11/16/2014  02:37:00       84.804       72.627       14.970       66.402       37.610       32.526     4409.198     1414.515     1057.942        0.978        0.344      111.653       22.567        0.041      330.762       -1.660      871.036
11/16/2014  02:38:00       24.474       83.681      -16.258       25.696       30.327       14.621      660.268      919.716      213.767        0.483        0.090       87.186       12.769        0.021      330.728       -1.714      871.048
11/16/2014  02:39:00       32.439       95.649       -5.701       35.308       47.909       28.918     1246.687     2295.301      836.268        0.730        0.219      100.999       30.973        0.094      330.710       -1.744      871.061
11/16/2014  02:40:00       41.763       95.959       -3.471       47.370       36.311       35.935     2243.917     1318.472     1291.349        0.791        0.243      104.653       31.934        0.093      330.655       -1.833      871.064
11/16/2014  02:41:00       32.843       82.509       -3.373       34.148       46.439       30.094     1166.101     2156.605      905.675        0.606        0.211       88.806       25.157        0.080      330.688       -1.780      871.063
11/16/2014  02:42:00       64.344       58.996       -3.182       44.683       34.065       30.402     1996.586     1160.447      924.256        0.586        0.204       87.297       21.590        0.061      330.668       -1.811      871.062
11/16/2014  02:43:00       94.207       75.910       20.948       54.408       42.111       50.657     2960.212     1773.296     2566.166        1.119        0.365      120.984       22.413        0.034      330.706       -1.750      871.070
11/16/2014  02:44:00      154.534      102.931       31.060       70.588       41.998       47.990     4982.707     1763.814     2303.021        2.224        0.452      185.676       22.541        0.015      330.743       -1.692      871.059
11/16/2014  02:45:00       93.431       76.672        6.396       53.523       46.092       32.158     2864.726     2124.496     1034.121        1.033        0.301      120.864       20.306        0.028      330.692       -1.772      871.074
11/16/2014  02:46:00      159.662       89.568       33.537       72.555       45.335       46.392     5264.285     2055.276     2152.217        2.205        0.474      183.069       33.308        0.033      330.689       -1.777      871.086
11/16/2014  02:47:00      204.718      156.152       27.702       59.166       46.975       51.808     3500.640     2206.606     2684.091        3.772        0.420      257.474       33.287        0.017      330.730       -1.715      871.103
11/16/2014  02:48:00      167.741      118.914       17.778       57.420       49.574       49.842     3297.102     2457.552     2484.232        2.541        0.412      205.615       33.519        0.027      330.692       -1.776      871.117
11/16/2014  02:49:00      134.013      106.976        0.673       59.685       62.526       40.099     3562.338     3909.494     1607.916        1.924        0.454      171.475       32.416        0.036      330.681       -1.792      871.110
11/16/2014  02:50:00       52.118       53.203       23.420       65.536       76.416       54.201     4294.931     5839.477     2937.702        0.958        0.654       74.477       50.434        0.459      330.690       -1.777      871.087
11/16/2014  02:51:00      125.472       64.674       20.217       95.125       65.142       48.955     9048.851     4243.536     2396.556        1.801        0.784      141.159       34.357        0.059      330.726       -1.718      871.072
11/16/2014  02:52:00      169.091      138.802       22.156      103.319       63.503       50.062    10674.758     4032.584     2506.243        3.278        0.861      218.764       30.321        0.019      330.740       -1.696      871.066
11/16/2014  02:53:00      104.016       98.589       12.771       62.321       75.575       51.350     3883.854     5711.614     2636.790        1.646        0.612      143.315       45.566        0.101      330.745       -1.687      871.060
11/16/2014  02:54:00       67.071       91.220        2.906       61.128       60.598       50.751     3736.609     3672.104     2575.662        1.140        0.499      113.224       40.273        0.127      330.714       -1.736      871.083
11/16/2014  02:55:00       94.090       65.969       17.438       63.391       48.367       52.314     4018.375     2339.361     2736.776        1.130        0.455      114.912       37.630        0.107      330.720       -1.726      871.108
11/16/2014  02:56:00      151.893       84.462       16.672       53.201       55.670       36.726     2830.305     3099.176     1348.783        1.888        0.364      173.797       12.357        0.005      330.709       -1.745      871.133
11/16/2014  02:57:00      170.381      101.214       23.253       87.638       41.359       42.986     7680.489     1710.569     1847.831        2.552        0.562      198.177       21.182        0.011      330.691       -1.778      871.151
11/16/2014  02:58:00      119.540       93.755        9.132       73.782       55.451       41.228     5443.801     3074.823     1699.708        1.669        0.511      151.920       29.062        0.037      330.669       -1.811      871.172
11/16/2014  02:59:00       98.353       86.167       19.898       71.316       53.715       56.790     5085.905     2885.337     3225.089        1.434        0.560      130.759       35.608        0.074      330.644       -1.853      871.188
11/16/2014  03:00:00      144.943      115.735       17.236       94.112       68.210       58.252     8856.988     4652.631     3393.242        2.580        0.845      185.481       45.861        0.061      330.665       -1.819      871.203
11/16/2014  03:01:00      227.506      155.575       34.161       78.322       67.234       47.578     6134.346     4520.387     2263.632        4.502        0.646      275.613       13.869        0.003      330.735       -1.705      871.210
11/16/2014  03:02:00      148.430       93.555       48.453       62.050       44.606       39.479     3850.141     1989.708     1558.564        2.026        0.370      175.454       19.749        0.013      330.704       -1.754      871.207
11/16/2014  03:03:00      173.400      125.298       26.997      108.299       65.061       60.208    11728.723     4232.951     3624.953        3.304        0.979      213.933       49.434        0.053      330.645       -1.851      871.221
11/16/2014  03:04:00      248.377      193.337       41.200       98.889       92.584       71.293     9779.123     8571.875     5082.747        6.210        1.172      314.754       53.137        0.028      330.745       -1.689      871.223
11/16/2014  03:05:00      127.762       81.470       15.222       74.280       54.352       51.552     5517.488     2954.095     2657.639        1.716        0.556      151.527       31.552        0.043      330.693       -1.771      871.234
11/16/2014  03:06:00      100.378       84.845        8.520       63.862       58.372       46.578     4078.374     3407.242     2169.555        1.350        0.483      131.432       36.322        0.076      330.616       -1.898      871.241
11/16/2014  03:07:00       46.582      118.795       -2.219       67.166       75.175       47.874     4511.239     5651.262     2291.967        1.437        0.623      127.601       48.516        0.145      330.594       -1.934      871.230
11/16/2014  03:08:00       60.235      100.880       -1.410       53.379       60.047       41.380     2849.290     3605.627     1712.324        1.099        0.408      117.495       26.444        0.051      330.583       -1.952      871.229
11/16/2014  03:09:00      125.019       77.009       30.326       63.296       53.754       45.401     4006.407     2889.499     2061.220        1.572        0.448      146.834       27.991        0.036      330.618       -1.895      871.212
11/16/2014  03:10:00      125.837       75.167       19.627       29.441       30.204       35.239      866.778      912.295     1241.770        1.244        0.151      146.577       16.830        0.013      330.669       -1.810      871.206
11/16/2014  03:11:00       87.921       56.456       13.913       34.266       36.004       21.040     1174.171     1296.312      442.661        0.701        0.146      104.487       16.056        0.024      330.589       -1.940      871.213
11/16/2014  03:12:00       55.932       58.959       11.299       41.379       31.798       32.268     1712.223     1011.111     1041.255        0.525        0.188       81.268       22.337        0.076      330.575       -1.964      871.225
11/16/2014  03:13:00       95.648      122.675       -5.581       66.216       82.415       57.858     4384.592     6792.283     3347.514        1.937        0.726      155.556       51.616        0.110      330.552       -2.003      871.221
11/16/2014  03:14:00      105.186       84.902       21.542       80.925       53.133       41.190     6548.909     2823.075     1696.645        1.490        0.553      135.176       22.665        0.028      330.541       -2.021      871.227
11/16/2014  03:15:00       87.745       70.949       -1.651       67.005       45.304       37.156     4489.723     2052.473     1380.588        1.033        0.396      112.840       22.895        0.041      330.531       -2.038      871.240
11/16/2014  03:16:00       84.594       72.260        4.940       52.113       41.873       37.400     2715.753     1753.337     1398.756        0.913        0.293      111.255       24.862        0.050      330.514       -2.065      871.232
11/16/2014  03:17:00       46.174       76.152        3.472       40.722       54.527       33.298     1658.261     2973.232     1108.766        0.684        0.287       89.057       32.942        0.137      330.466       -2.144      871.225
11/16/2014  03:18:00       73.402       51.214       23.807       51.975       37.272       32.972     2701.362     1389.202     1087.182        0.688        0.259       89.503       19.043        0.045      330.465       -2.144      871.229
11/16/2014  03:19:00       76.586       84.094       -7.196       46.334       44.286       32.232     2146.802     1961.292     1038.929        0.907        0.257      113.742       25.945        0.052      330.461       -2.152      871.249
11/16/2014  03:20:00       16.199       52.841        3.582       29.248       40.328       28.480      855.434     1626.388      811.122        0.318        0.165       55.268       21.663        0.154      330.436       -2.191      871.263
11/16/2014  03:21:00       41.916       21.659       11.699       36.280       19.369       18.316     1316.206      375.177      335.462        0.219        0.101       47.181       11.037        0.055      330.458       -2.157      871.282
11/16/2014  03:22:00       24.515       49.778       -8.052       25.337       31.760       14.662      641.987     1008.684      214.979        0.250        0.093       55.488       14.609        0.069      330.445       -2.177      871.282
11/16/2014  03:23:00       42.974       52.996        0.999       32.071       25.320       22.107     1028.522      641.095      488.705        0.341        0.108       68.230       19.038        0.078      330.429       -2.204      871.300
11/16/2014  03:24:00       27.381       34.339       -3.068       41.336       22.900       17.128     1708.668      524.409      293.385        0.223        0.126       43.919       16.066        0.134      330.416       -2.226      871.317
11/16/2014  03:25:00        4.756       91.328       -4.012       35.794       45.795       20.063     1281.177     2097.158      402.511        0.608        0.189       91.452       19.409        0.045      330.420       -2.218      871.323
11/16/2014  03:26:00       39.420        1.888        1.610       32.475       42.115       24.914     1054.633     1773.641      620.684        0.250        0.172       39.466       15.661        0.157      330.430       -2.202      871.326
11/16/2014  03:27:00       39.288       41.857       -6.125       13.979       20.815       11.375      195.413      433.278      129.395        0.205        0.038       57.407       10.008        0.030      330.438       -2.190      871.306
11/16/2014  03:28:00       70.267       40.838        5.998       18.812       18.901       13.853      353.895      357.253      191.903        0.377        0.045       81.272        6.399        0.006      330.416       -2.227      871.276
11/16/2014  03:29:00       43.296       45.701        1.772       26.212       17.815       15.049      687.049      317.385      226.460        0.260        0.062       62.953       10.761        0.029      330.369       -2.303      871.263
11/16/2014  03:30:00      -12.952       29.439        1.301       24.027       30.311       17.352      577.299      918.771      301.091        0.142        0.090       32.162       19.168        0.355      330.372       -2.296      871.266
11/16/2014  03:31:00      -10.730       68.678       -5.753       30.005       29.534       17.895      900.271      872.253      320.224        0.348        0.105       69.511       15.770        0.051      330.391       -2.267      871.269
11/16/2014  03:32:00      -43.198       43.177      -12.883       30.134       29.158       17.838      908.068      850.176      318.191        0.299        0.104       61.077       21.974        0.129      330.364       -2.309      871.294
11/16/2014  03:33:00        1.618       88.486      -15.711       36.345       38.798       17.612     1320.993     1505.308      310.178        0.561        0.157       88.501       21.396        0.058      330.353       -2.328      871.313
11/16/2014  03:34:00      -21.424       53.751       -7.157       20.380       53.298       22.660      415.355     2840.643      513.460        0.358        0.188       57.863       27.861        0.232      330.308       -2.400      871.332
11/16/2014  03:35:00      -25.445       82.876      -15.403       27.371       29.511       16.816      749.189      870.923      282.767        0.483        0.095       86.694        9.192        0.011      330.341       -2.350      871.341
11/16/2014  03:36:00      -40.881      132.265      -28.533       40.400       43.254       22.601     1632.185     1870.891      510.824        1.200        0.201      138.439       19.967        0.021      330.327       -2.372      871.340
11/16/2014  03:37:00      -42.866      108.826      -17.696       37.824       40.224       19.535     1430.640     1617.991      381.635        0.871        0.172      116.964       16.945        0.021      330.379       -2.286      871.342
11/16/2014  03:38:00     -116.625       88.290      -26.069       36.673       34.377       24.947     1344.913     1181.811      622.345        1.261        0.157      146.276       18.253        0.016      330.266       -2.470      871.342
11/16/2014  03:39:00      -90.013       66.604      -22.828       30.541       39.269       23.813      932.723     1542.089      567.062        0.805        0.152      111.975       18.786        0.028      330.223       -2.542      871.339
11/16/2014  03:40:00      -24.391      162.305      -19.553       51.557       52.826       24.439     2658.093     2790.575      597.247        1.668        0.302      164.128       18.554        0.013      330.241       -2.513      871.352
11/16/2014  03:41:00       -5.969       58.998       -3.543       26.105       35.373       17.413      681.476     1251.233      303.207        0.288        0.112       59.300       13.649        0.053      330.252       -2.495      871.369
11/16/2014  03:42:00      -38.398       44.780       -2.865       37.813       38.631       22.092     1429.799     1492.364      488.049        0.345        0.171       58.989       27.349        0.215      330.241       -2.513      871.360
11/16/2014  03:43:00      -39.190       60.685      -10.465       34.015       38.119       20.387     1157.020     1453.082      415.620        0.418        0.151       72.239       21.633        0.090      330.265       -2.471      871.381
11/16/2014  03:44:00       -5.213      109.249      -17.896       19.287       37.886       18.449      372.001     1435.376      340.350        0.721        0.107      109.373       15.925        0.021      330.236       -2.521      871.402
11/16/2014  03:45:00      -10.208       76.149      -14.791       17.569       32.454       18.768      308.661     1053.254      352.231        0.392        0.086       76.830       16.943        0.049      330.230       -2.531      871.398
11/16/2014  03:46:00        2.667       80.314       -3.000       24.488       47.748       17.702      599.661     2279.846      313.351        0.483        0.160       80.359       15.402        0.037      330.250       -2.498      871.425
11/16/2014  03:47:00        5.045       47.952      -17.717       25.943       29.201       11.806      673.064      852.676      139.393        0.215        0.083       48.217        9.661        0.040      330.281       -2.445      871.436
11/16/2014  03:48:00      -65.574       30.362      -15.897       23.906       30.538       17.475      571.490      932.550      305.368        0.364        0.090       72.262       13.799        0.036      330.277       -2.453      871.442
11/16/2014  03:49:00      -21.047       -2.713        5.972       33.896       28.894       23.470     1148.955      834.859      550.859        0.151        0.127       21.221       26.915        1.609      330.324       -2.376      871.472
11/16/2014  03:50:00      -19.178       25.039        0.975       14.260       14.120       15.337      203.356      199.378      235.235        0.082        0.032       31.539        8.958        0.081      330.305       -2.407      871.507
11/16/2014  03:51:00       11.612       31.202       11.173       27.958       21.233       17.673      781.624      450.846      312.330        0.139        0.077       33.292       16.852        0.256      330.275       -2.455      871.526
11/16/2014  03:52:00      -11.727       44.543      -14.303       24.337       30.570       16.059      592.292      934.520      257.887        0.206        0.089       46.061       15.308        0.110      330.293       -2.426      871.537
11/16/2014  03:53:00       12.095       40.644       -8.076       16.279       51.015       16.467      265.012     2602.508      271.165        0.250        0.157       42.406       12.800        0.091      330.303       -2.409      871.529
11/16/2014  03:54:00       -8.216       91.256      -13.130       19.588       30.019       14.974      383.685      901.126      224.229        0.504        0.075       91.625        9.200        0.010      330.314       -2.389      871.502
11/16/2014  03:55:00       -6.493       85.695      -18.414       16.259       23.213       17.723      264.339      538.824      314.113        0.442        0.056       85.941       13.265        0.024      330.333       -2.362      871.487
11/16/2014  03:56:00        1.582       66.221      -10.584       41.880       40.173       13.079     1753.949     1613.855      171.057        0.402        0.177       66.239       12.961        0.038      330.314       -2.391      871.466
11/16/2014  03:57:00       10.825       82.292        4.160       39.381       57.184       32.324     1550.828     3270.059     1044.817        0.638        0.293       83.001       26.740        0.104      330.204       -2.573      871.476
11/16/2014  03:58:00       16.619       63.926        6.143       36.292       63.446       28.710     1317.117     4025.378      824.277        0.528        0.308       66.051       34.275        0.269      330.190       -2.597      871.509
11/16/2014  03:59:00       11.046      104.555      -10.601       21.606       47.565       17.347      466.827     2262.434      300.906        0.710        0.152      105.137       23.803        0.051      330.176       -2.619      871.547
11/16/2014  04:00:00       59.369       50.852        7.978       33.845       33.849       27.469     1145.514     1145.757      754.528        0.461        0.152       78.170       21.506        0.076      330.195       -2.587      871.584
11/16/2014  04:01:00       27.302       39.718       -6.001       33.435       31.093       19.956     1117.900      966.803      398.236        0.242        0.124       48.197       14.774        0.094      330.212       -2.560      871.596
11/16/2014  04:02:00       16.500       71.116       -5.471       20.379       20.695       19.988      415.312      428.291      399.535        0.330        0.062       73.005        7.245        0.010      330.206       -2.571      871.602
11/16/2014  04:03:00       39.152       38.459        5.058       20.917       28.071       19.430      437.522      787.960      377.523        0.232        0.080       54.881       14.752        0.072      330.199       -2.581      871.593
11/16/2014  04:04:00       85.250       51.794        6.793       35.628       30.491       25.897     1269.324      929.677      670.677        0.643        0.143       99.751       21.174        0.045      330.215       -2.555      871.584
11/16/2014  04:05:00       95.154       72.941        6.937       33.576       31.799       22.949     1127.346     1011.159      526.642        0.854        0.133      119.894       10.885        0.008      330.167       -2.635      871.604
11/16/2014  04:06:00       73.872      115.950      -11.583       45.382       57.549       40.926     2059.481     3311.928     1674.963        1.304        0.352      137.483       35.702        0.067      330.155       -2.653      871.613
11/16/2014  04:07:00      108.802       54.532       12.298       44.415       34.812       27.673     1972.697     1211.895      765.788        0.946        0.198      121.702       20.791        0.029      330.162       -2.643      871.623
11/16/2014  04:08:00      111.925       55.469        1.152       37.464       33.919       30.044     1403.575     1150.493      902.658        0.953        0.173      124.916       17.044        0.019      330.143       -2.674      871.652
11/16/2014  04:09:00       91.581       66.629       13.704       35.470       24.557       29.977     1258.120      603.059      898.599        0.789        0.138      113.254       10.104        0.008      330.115       -2.720      871.674
11/16/2014  04:10:00       98.943       61.591       20.305       35.155       24.366       20.897     1235.889      593.725      436.667        0.813        0.113      116.547       11.281        0.009      330.117       -2.716      871.678
11/16/2014  04:11:00       35.746       68.779       -2.737       19.905       31.825       21.550      396.213     1012.840      464.389        0.394        0.094       77.513       21.504        0.077      330.111       -2.726      871.697
11/16/2014  04:12:00       33.734       63.813       -2.370       28.701       32.274       20.985      823.727     1041.621      440.386        0.376        0.115       72.181       15.252        0.045      330.077       -2.782      871.692
11/16/2014  04:13:00       83.795       67.426       20.396       66.574       46.105       33.738     4432.147     2125.690     1138.265        0.984        0.385      107.554       25.222        0.055      330.126       -2.703      871.665
11/16/2014  04:14:00       43.126      177.851      -14.299       61.750      112.872       58.964     3813.119    12740.074     3476.733        2.686        1.001      183.005       65.582        0.128      330.128       -2.699      871.653
11/16/2014  04:15:00       89.845       67.504        9.800       67.621       43.952       37.316     4572.650     1931.820     1392.472        1.031        0.395      112.379       27.540        0.060      330.109       -2.730      871.665
11/16/2014  04:16:00       60.707      100.421       -8.687       59.624       55.149       45.590     3555.057     3041.445     2078.453        1.126        0.434      117.344       35.719        0.093      330.114       -2.721      871.682
11/16/2014  04:17:00       59.011      147.732      -19.564       55.898       64.086       42.925     3124.567     4106.980     1842.540        1.738        0.454      159.082       37.002        0.054      330.109       -2.731      871.712
11/16/2014  04:18:00       69.242       93.605       -3.726       49.701       69.442       38.566     2470.197     4822.234     1487.328        1.117        0.439      116.432       43.656        0.141      330.119       -2.712      871.716
11/16/2014  04:19:00       27.907      116.457       -6.699       36.763       94.401       40.084     1351.499     8911.469     1606.690        1.313        0.593      119.754       48.148        0.162      330.069       -2.797      871.706
11/16/2014  04:20:00       50.320      110.116       -0.807       53.568       55.567       46.365     2869.526     3087.707     2149.708        1.138        0.405      121.069       35.290        0.085      330.060       -2.809      871.699
11/16/2014  04:21:00       59.945      138.036      -18.054       51.259       81.006       48.641     2627.481     6561.953     2365.913        1.726        0.578      150.490       48.516        0.104      330.057       -2.816      871.693
11/16/2014  04:22:00       27.334      125.137        2.176       44.142       78.287       42.719     1948.545     6128.797     1824.893        1.315        0.495      128.088       43.612        0.116      330.032       -2.856      871.709
11/16/2014  04:23:00       32.759       97.653        0.659       49.678       74.805       43.689     2467.896     5595.729     1908.701        1.029        0.499      103.001       44.731        0.189      330.011       -2.889      871.734
11/16/2014  04:24:00       46.179       53.013       13.387       51.288       48.796       41.934     2630.454     2381.005     1758.484        0.594        0.338       70.305       26.579        0.143      330.002       -2.903      871.771
11/16/2014  04:25:00       45.684      151.158      -17.495       54.646       63.926       39.063     2986.147     4086.488     1525.942        1.692        0.430      157.910       36.377        0.053      330.008       -2.894      871.782
11/16/2014  04:26:00       81.319       39.762       23.434       42.371       24.218       34.530     1795.283      586.500     1192.344        0.616        0.179       90.520       22.448        0.061      329.996       -2.914      871.805
11/16/2014  04:27:00       21.734      127.209      -23.295       31.314       37.572       22.201      980.555     1411.692      492.865        1.004        0.144      129.053       21.648        0.028      329.953       -2.983      871.813
11/16/2014  04:28:00       23.928      131.153       -7.161       41.845       55.054       40.138     1751.046     3030.894     1611.063        1.211        0.320      133.318       36.207        0.074      329.943       -3.002      871.819
11/16/2014  04:29:00       22.760      192.418      -22.770       41.499       63.924       40.095     1722.186     4086.340     1607.622        2.274        0.371      193.759       39.853        0.042      329.938       -3.010      871.818
11/16/2014  04:30:00       42.016      188.501      -19.126       45.728       77.907       42.103     2091.007     6069.544     1772.686        2.380        0.497      193.127       42.748        0.049      329.932       -3.021      871.838
11/16/2014  04:31:00       23.015      132.453       -4.674       39.638       60.055       45.969     1571.172     3606.627     2113.174        1.269        0.365      134.438       40.859        0.092      329.909       -3.058      871.850
11/16/2014  04:32:00       41.751      138.113      -11.105       53.306       92.150       49.609     2841.519     8491.596     2461.064        1.737        0.690      144.286       50.620        0.123      329.939       -3.009      871.895
11/16/2014  04:33:00       15.659      214.130      -38.824       36.843       50.640       27.217     1357.397     2564.379      740.757        2.613        0.233      214.702       23.426        0.012      330.019       -2.879      871.933
11/16/2014  04:34:00       40.974      103.802       12.376       63.369       88.863       53.521     4015.602     7896.683     2864.487        1.369        0.739      111.596       52.283        0.219      329.954       -2.984      871.986
11/16/2014  04:35:00       52.884       95.427        0.158       46.281       87.121       43.706     2141.905     7590.014     1910.254        1.177        0.582      109.101       50.933        0.218      329.992       -2.921      872.007
11/16/2014  04:36:00       30.391       84.318        0.262       46.176       86.543       34.182     2132.264     7489.607     1168.417        0.941        0.540       89.628       46.142        0.265      329.976       -2.948      872.013
11/16/2014  04:37:00       49.976      115.134      -12.743       43.956       66.363       46.244     1932.124     4404.103     2138.531        1.219        0.424      125.513       44.439        0.125      330.007       -2.897      871.999
11/16/2014  04:38:00        9.836      139.625      -17.015       34.301       68.361       28.878     1176.585     4673.171      833.965        1.328        0.334      139.971       34.790        0.062      330.037       -2.847      871.995
11/16/2014  04:39:00       28.050      115.808       -0.335       51.279       59.971       32.903     2629.510     3596.549     1082.605        1.075        0.365      119.156       32.112        0.073      330.025       -2.866      871.990
11/16/2014  04:40:00       32.536      142.883      -11.887       40.730       71.192       34.442     1658.953     5068.262     1186.251        1.476        0.396      146.541       37.717        0.066      330.044       -2.835      871.988
11/16/2014  04:41:00        9.852      136.143      -26.548       37.750       50.858       20.143     1425.044     2586.561      405.736        1.188        0.221      136.499       14.580        0.011      330.084       -2.770      871.992
11/16/2014  04:42:00        3.086      140.803      -12.984       32.167       34.919       23.125     1034.742     1219.327      534.748        1.140        0.139      140.837       20.616        0.021      330.073       -2.787      871.997
11/16/2014  04:43:00       40.485       84.257        9.140       41.184       59.425       39.217     1696.120     3531.309     1537.985        0.779        0.338       93.478       36.129        0.149      330.023       -2.868      871.987
11/16/2014  04:44:00       24.280      104.560       -7.838       40.369       53.119       30.909     1629.671     2821.665      955.349        0.849        0.270      107.342       33.365        0.097      329.998       -2.909      871.984
11/16/2014  04:45:00       46.426      120.024        1.833       53.516       63.792       44.560     2863.948     4069.394     1985.579        1.274        0.446      128.690       41.469        0.104      330.025       -2.868      872.004
11/16/2014  04:46:00       36.844       64.485        5.285       44.298       46.135       38.435     1962.332     2128.409     1477.267        0.555        0.278       74.269       35.109        0.223      330.007       -2.895      872.019
11/16/2014  04:47:00       11.882      107.745       -7.575       48.788       44.136       35.393     2380.282     1947.946     1252.676        0.869        0.279      108.398       25.460        0.055      330.020       -2.874      872.051
11/16/2014  04:48:00       64.593       83.780        3.453       61.885       48.824       35.366     3829.704     2383.800     1250.748        0.933        0.373      105.789       28.720        0.074      330.032       -2.854      872.071
11/16/2014  04:49:00       25.268       97.381      -10.560       44.207       65.493       35.986     1954.295     4289.294     1294.969        0.888        0.377      100.606       39.020        0.150      330.050       -2.825      872.087
11/16/2014  04:50:00       15.670       95.629       -8.815       29.606       42.655       26.626      876.518     1819.484      708.922        0.644        0.170       96.904       24.240        0.063      330.029       -2.860      872.095
11/16/2014  04:51:00       23.530       40.018        0.447       28.955       38.727       23.017      838.369     1499.765      529.800        0.251        0.143       46.423       20.160        0.189      329.996       -2.914      872.082
11/16/2014  04:52:00       10.514      115.883        1.197       38.169       62.312       34.152     1456.839     3882.816     1166.334        1.002        0.325      116.359       32.059        0.076      329.976       -2.947      872.071
11/16/2014  04:53:00       22.096      144.502      -17.317       31.309       76.563       28.065      980.240     5861.903      787.662        1.465        0.381      146.181       38.344        0.069      329.970       -2.956      872.072
11/16/2014  04:54:00       19.486       72.207       -1.071       38.764       53.725       27.212     1502.664     2886.386      740.497        0.536        0.256       74.790       31.781        0.181      329.970       -2.957      872.074
11/16/2014  04:55:00       22.903       51.738        1.656       23.698       45.038       21.927      561.582     2028.379      480.781        0.314        0.154       56.581       20.779        0.135      329.998       -2.909      872.074
11/16/2014  04:56:00       14.435       81.429       -5.339       33.526       59.297       31.590     1124.003     3516.158      997.903        0.625        0.282       82.698       35.455        0.184      329.966       -2.962      872.074
11/16/2014  04:57:00       38.509       76.935      -16.891       25.921       37.572       17.745      671.876     1411.683      314.872        0.504        0.120       86.035       18.307        0.045      329.966       -2.963      872.076
11/16/2014  04:58:00       75.163       64.196        4.232       50.422       30.304       32.616     2542.345      918.354     1063.814        0.716        0.226       98.846       18.737        0.036      329.950       -2.988      872.063
11/16/2014  04:59:00       45.813       69.742       -2.899       42.215       47.079       28.687     1782.137     2216.423      822.924        0.590        0.241       83.443       29.480        0.125      329.969       -2.957      872.064
11/16/2014  05:00:00       37.105      136.716      -23.647       31.904       41.443       25.144     1017.847     1717.536      632.229        1.200        0.168      141.661       22.945        0.026      329.933       -3.016      872.070
11/16/2014  05:01:00       34.216      109.271       -9.017       41.100       54.271       40.793     1689.183     2945.331     1664.083        0.974        0.315      114.503       36.254        0.100      329.929       -3.024      872.070
11/16/2014  05:02:00       26.356      111.769      -12.997       43.780       56.303       34.467     1916.654     3169.987     1187.994        0.981        0.314      114.835       32.719        0.081      329.924       -3.033      872.072
11/16/2014  05:03:00       27.317       93.480       -1.923       37.518       67.939       32.524     1407.601     4615.760     1057.841        0.828        0.354       97.389       38.107        0.153      329.921       -3.038      872.084
11/16/2014  05:04:00       39.056      102.513      -10.428       31.772       42.908       26.630     1009.489     1841.098      709.182        0.785        0.178      109.701       18.976        0.030      329.921       -3.037      872.101
11/16/2014  05:05:00        3.533      107.913       -7.641       37.276       34.661       28.221     1389.537     1201.396      796.415        0.755        0.169      107.970       22.881        0.045      329.884       -3.098      872.109
11/16/2014  05:06:00        8.558       95.094       -3.373       33.926       49.581       23.950     1150.971     2458.234      573.618        0.665        0.209       95.479       25.406        0.071      329.904       -3.065      872.119
11/16/2014  05:07:00        9.169       70.794       -3.488       23.250       54.234       29.177      540.555     2941.355      851.300        0.472        0.217       71.385       32.074        0.202      329.885       -3.095      872.140
11/16/2014  05:08:00       43.181       98.890      -18.028       28.365       39.885       23.196      804.577     1590.843      538.077        0.745        0.147      107.907       22.446        0.043      329.940       -3.007      872.172
11/16/2014  05:09:00       34.369       41.592       11.619       30.688       28.800       27.139      941.742      829.438      736.517        0.278        0.125       53.955       19.944        0.137      329.925       -3.031      872.191
11/16/2014  05:10:00       21.726       91.004       -9.302       26.270       42.120       24.170      690.101     1774.126      584.187        0.594        0.152       93.561       24.744        0.070      329.985       -2.933      872.199
11/16/2014  05:11:00       23.567      111.770      -13.840       20.685       32.015       19.657      427.861     1024.949      386.406        0.754        0.092      114.228       16.196        0.020      329.985       -2.931      872.209
11/16/2014  05:12:00       28.569       89.107      -14.703       16.605       14.081       15.247      275.715      198.281      232.457        0.484        0.035       93.575       10.500        0.013      329.927       -3.025      872.204
11/16/2014  05:13:00       31.930       60.514       -8.688       19.671       29.711       21.575      386.932      882.772      465.478        0.325        0.087       68.421       20.582        0.090      329.870       -3.122      872.183
11/16/2014  05:14:00       18.338       70.251       -7.126       21.659       30.610       17.900      469.095      936.994      320.394        0.352        0.086       72.605       17.729        0.060      329.838       -3.172      872.162
11/16/2014  05:15:00       23.464      110.840      -18.628       19.074       23.110       14.273      363.830      534.073      203.709        0.714        0.055      113.296       12.439        0.012      329.884       -3.097      872.156
11/16/2014  05:16:00       17.305      122.605      -13.270       20.650       23.084       18.625      426.415      532.853      346.887        0.841        0.065      123.821       12.143        0.010      329.881       -3.100      872.175
11/16/2014  05:17:00       21.456       70.000       -4.716       23.842       34.365       16.968      568.444     1180.922      287.926        0.371        0.102       73.214       16.663        0.052      329.838       -3.171      872.185
11/16/2014  05:18:00       31.834       58.898       -4.948       20.987       30.401       20.520      440.447      924.225      421.090        0.315        0.089       66.951       16.381        0.060      329.838       -3.173      872.192
11/16/2014  05:19:00       30.307       87.466      -17.335       28.566       28.889       14.742      816.012      834.585      217.321        0.537        0.093       92.567       14.599        0.025      329.809       -3.220      872.188
11/16/2014  05:20:00        2.034      103.002      -10.038       25.369       45.687       19.925      643.567     2087.264      397.004        0.692        0.156      103.022       24.721        0.058      329.801       -3.234      872.172
11/16/2014  05:21:00       19.034      119.976      -17.944       33.722       35.293       19.365     1137.189     1245.604      375.018        0.892        0.138      121.476       15.420        0.016      329.865       -3.128      872.152
11/16/2014  05:22:00       27.615      107.074       -4.330       47.174       67.442       40.115     2225.421     4548.408     1609.243        1.031        0.419      110.578       43.712        0.156      329.798       -3.237      872.144
11/16/2014  05:23:00       22.547       94.982       -5.083       36.607       43.219       35.367     1340.102     1867.906     1250.808        0.701        0.223       97.621       30.686        0.099      329.743       -3.328      872.137
11/16/2014  05:24:00       30.603       90.650        4.552       32.189       42.468       32.535     1036.111     1803.496     1058.516        0.654        0.195       95.676       28.917        0.091      329.720       -3.366      872.132
11/16/2014  05:25:00       21.191      105.805      -13.548       37.405       42.529       27.526     1399.098     1808.710      757.694        0.790        0.198      107.906       25.580        0.056      329.708       -3.384      872.130
11/16/2014  05:26:00       30.446       87.926       -1.157       29.882       50.707       27.859      892.952     2571.234      776.102        0.645        0.212       93.048       29.694        0.102      329.716       -3.373      872.131
11/16/2014  05:27:00       58.099       61.303       -6.812       31.575       27.094       23.304      996.983      734.091      543.095        0.473        0.114       84.460       17.002        0.041      329.711       -3.379      872.142
11/16/2014  05:28:00       42.857       45.157        4.076       29.912       23.245       18.795      894.708      540.352      353.245        0.284        0.089       62.256       11.434        0.034      329.664       -3.457      872.147
11/16/2014  05:29:00       65.047       28.926       -5.272       16.964       18.117       16.731      287.784      328.230      279.920        0.300        0.045       71.189       10.347        0.021      329.698       -3.400      872.142
11/16/2014  05:30:00       29.285       11.158        2.279       16.849       14.764       15.492      283.902      217.977      239.996        0.086        0.037       31.339        9.484        0.092      329.663       -3.460      872.144
11/16/2014  05:31:00        7.175       40.873       -4.771       13.603       28.496       16.174      185.034      812.007      261.608        0.150        0.063       41.498       17.798        0.184      329.629       -3.515      872.163
11/16/2014  05:32:00       12.320       84.271      -13.016       23.095       25.021       17.303      533.399      626.053      299.382        0.444        0.073       85.167       13.409        0.025      329.658       -3.467      872.189
11/16/2014  05:33:00        5.022       86.350      -19.108       20.545       19.338        9.811      422.097      373.949       96.261        0.437        0.045       86.496       10.385        0.014      329.714       -3.375      872.225
11/16/2014  05:34:00       -4.199       87.733      -11.399       11.789       19.420       11.664      138.976      377.151      136.060        0.425        0.033       87.834        7.402        0.007      329.687       -3.419      872.243
11/16/2014  05:35:00        7.280       99.786      -18.153       12.809       17.453        8.569      164.061      304.607       73.435        0.544        0.027      100.051        6.078        0.004      329.681       -3.430      872.266
11/16/2014  05:36:00       -4.245       93.809      -20.004       12.814       15.585        9.673      164.208      242.878       93.571        0.486        0.025       93.905        4.471        0.002      329.700       -3.399      872.268
11/16/2014  05:37:00      -14.645       30.902        5.744       22.255       21.266       15.214      495.287      452.243      231.470        0.119        0.059       34.197       11.360        0.110      329.645       -3.487      872.274
11/16/2014  05:38:00      -20.731       59.442       -8.564       37.934       25.268       13.562     1439.024      638.452      183.935        0.315        0.113       62.954       14.980        0.057      329.741       -3.331      872.286
11/16/2014  05:39:00      -36.523       48.100       -4.664       24.980       13.271       16.448      624.016      176.132      270.547        0.237        0.054       60.395       10.161        0.028      329.780       -3.268      872.297
11/16/2014  05:40:00       -2.437       60.811       -3.915       31.973       20.062       17.308     1022.254      402.481      299.576        0.272        0.086       60.860       13.701        0.051      329.810       -3.218      872.314
11/16/2014  05:41:00       -5.264      118.435      -16.415       15.716       37.188       14.524      247.002     1382.922      210.957        0.808        0.092      118.552       18.516        0.024      329.743       -3.328      872.327
11/16/2014  05:42:00       -3.384      137.123      -20.496       14.270       19.181       11.837      203.621      367.923      140.105        0.997        0.036      137.165        8.491        0.004      329.739       -3.333      872.330
11/16/2014  05:43:00        2.539      175.401      -28.741       11.989       20.885        8.277      143.742      436.191       68.507        1.612        0.032      175.420        8.174        0.002      329.743       -3.326      872.337
11/16/2014  05:44:00       28.607      140.029      -16.687       22.616       56.355       25.756      511.465     3175.893      663.386        1.253        0.218      142.921       30.931        0.047      329.664       -3.458      872.339
11/16/2014  05:45:00       32.472      135.136      -13.212       22.486       40.627       25.035      505.639     1650.584      626.750        1.114        0.139      138.982       23.759        0.029      329.649       -3.481      872.339
11/16/2014  05:46:00       37.493      144.545      -14.740       26.439       39.130       25.653      699.000     1531.173      658.061        1.270        0.144      149.328       21.008        0.020      329.625       -3.522      872.336
11/16/2014  05:47:00       34.796       80.046        6.699       35.259       55.285       40.200     1243.211     3056.472     1616.026        0.679        0.296       87.281       36.958        0.179      329.592       -3.575      872.340
11/16/2014  05:48:00       18.321       78.627       -5.968       35.268       55.134       28.264     1243.864     3039.720      798.874        0.582        0.254       80.734       26.000        0.104      329.578       -3.598      872.347
11/16/2014  05:49:00       39.835       92.998       -8.986       37.698       47.896       31.665     1421.111     2293.985     1002.665        0.752        0.236      101.171       31.770        0.099      329.573       -3.607      872.350
11/16/2014  05:50:00       35.173      117.265      -18.358       41.043       46.864       29.578     1684.540     2196.228      874.833        1.004        0.238      122.426       27.914        0.052      329.556       -3.634      872.351
11/16/2014  05:51:00       40.290       61.796        3.646       38.652       50.295       42.289     1493.955     2529.566     1788.358        0.563        0.291       73.770       34.618        0.220      329.545       -3.651      872.353
11/16/2014  05:52:00       39.124       65.548       -3.886       28.597       32.460       29.981      817.769     1053.671      898.854        0.431        0.139       76.337       25.313        0.110      329.535       -3.666      872.356
11/16/2014  05:53:00       36.820       48.934        1.886       33.568       36.076       25.197     1126.820     1301.500      634.868        0.341        0.153       61.240       19.645        0.103      329.543       -3.656      872.365
11/16/2014  05:54:00       25.059      116.796       -4.444       47.849       52.842       31.540     2289.564     2792.295      994.796        1.018        0.304      119.454       30.383        0.065      329.529       -3.678      872.372
11/16/2014  05:55:00       30.740      113.975      -11.882       35.684       42.790       29.727     1273.380     1830.989      883.724        0.903        0.199      118.048       25.405        0.046      329.546       -3.649      872.363
11/16/2014  05:56:00       17.893      121.635      -12.603       29.740       74.232       26.553      884.452     5510.357      705.063        1.119        0.355      122.944       34.318        0.078      329.574       -3.604      872.354
11/16/2014  05:57:00       29.042      151.986      -16.453       38.132       55.828       30.656     1454.035     3116.753      939.761        1.486        0.276      154.736       30.378        0.039      329.573       -3.608      872.353
11/16/2014  05:58:00       44.788       58.085       13.658       32.539       39.544       35.228     1058.818     1563.699     1240.978        0.471        0.193       73.347       26.951        0.135      329.540       -3.660      872.366
11/16/2014  05:59:00       63.435       82.587       -2.364       51.113       40.597       30.251     2612.517     1648.155      915.126        0.801        0.259      104.137       24.267        0.054      329.572       -3.607      872.371
11/16/2014  06:00:00       90.024       77.494       14.318       50.238       39.916       30.987     2523.865     1593.278      960.181        0.969        0.254      118.784       27.344        0.053      329.581       -3.594      872.378
11/16/2014  06:01:00       52.945       61.288        9.915       38.742       34.855       36.342     1500.907     1214.898     1320.710        0.535        0.202       80.990       26.092        0.104      329.533       -3.671      872.374
11/16/2014  06:02:00       74.478       64.166        7.937       33.495       39.368       32.631     1121.901     1549.860     1064.772        0.673        0.187       98.307       26.938        0.075      329.582       -3.591      872.361
11/16/2014  06:03:00      104.478       78.305       17.789       57.898       31.867       37.124     3352.158     1015.523     1378.214        1.155        0.287      130.566       28.204        0.047      329.593       -3.572      872.343
11/16/2014  06:04:00      107.039       91.496        2.165       52.974       38.207       32.749     2806.270     1459.738     1072.520        1.258        0.267      140.815       23.411        0.028      329.574       -3.604      872.339
11/16/2014  06:05:00       77.323       71.120        6.608       56.244       36.403       32.384     3163.406     1325.194     1048.692        0.831        0.277      105.057       24.411        0.054      329.548       -3.646      872.361
11/16/2014  06:06:00      101.474       68.083        6.461       38.323       30.380       25.573     1468.671      922.946      653.987        0.901        0.152      122.198       16.783        0.019      329.581       -3.593      872.379
11/16/2014  06:07:00      110.227       73.278       19.728       27.108       22.389       23.247      734.817      501.272      540.421        0.984        0.089      132.362       11.757        0.008      329.548       -3.647      872.393
11/16/2014  06:08:00      133.208       66.597        1.677       40.422       39.772       26.015     1633.973     1581.819      676.754        1.304        0.195      148.928       12.667        0.007      329.561       -3.626      872.419
11/16/2014  06:09:00      114.851       80.236       22.851       49.828       35.282       36.071     2482.821     1244.844     1301.147        1.259        0.251      140.102       16.126        0.013      329.581       -3.593      872.443
11/16/2014  06:10:00      106.808       59.755       23.968       68.681       49.440       29.922     4717.115     2444.267      895.335        1.180        0.403      122.387       31.390        0.066      329.559       -3.629      872.442
11/16/2014  06:11:00      107.389       70.982       17.419       52.450       39.923       39.831     2750.965     1593.807     1586.497        1.140        0.297      128.728       20.296        0.025      329.536       -3.666      872.446
11/16/2014  06:12:00       94.333       82.711       19.099       94.685       53.996       48.172     8965.235     2915.547     2320.580        1.515        0.710      125.458       37.164        0.088      329.581       -3.594      872.446
11/16/2014  06:13:00      124.811       92.481       22.522       55.393       39.955       42.897     3068.436     1596.370     1840.128        1.557        0.325      155.340       24.758        0.025      329.581       -3.593      872.437
11/16/2014  06:14:00       71.534       59.051       17.165       71.210       49.924       45.598     5070.930     2492.451     2079.181        0.927        0.482       92.759       28.179        0.092      329.532       -3.673      872.461
11/16/2014  06:15:00      199.247      109.032       15.206       68.694       43.223       37.394     4718.897     1868.268     1398.332        2.990        0.399      227.129       14.011        0.004      329.578       -3.601      872.479
11/16/2014  06:16:00      129.046       89.350       15.698       64.527       45.666       40.478     4163.685     2085.377     1638.465        1.638        0.394      156.960       18.304        0.014      329.548       -3.649      872.501
11/16/2014  06:17:00      145.915       97.915       11.575       56.959       57.073       49.774     3244.373     3257.313     2477.420        1.999        0.449      175.722       40.403        0.053      329.525       -3.686      872.519
11/16/2014  06:18:00      136.290       83.711       12.461       56.792       40.007       37.917     3225.335     1600.596     1437.676        1.600        0.313      159.946       21.007        0.017      329.509       -3.711      872.518
11/16/2014  06:19:00      120.981       88.727       15.869       66.486       45.776       40.101     4420.353     2095.407     1608.071        1.544        0.406      150.029       29.996        0.040      329.498       -3.729      872.520
11/16/2014  06:20:00      130.465       94.004        5.692       60.199       49.159       40.853     3623.876     2416.625     1668.933        1.680        0.385      160.804       25.834        0.026      329.527       -3.682      872.522
11/16/2014  06:21:00      170.295      107.503       30.317       64.767       44.267       47.816     4194.718     1959.535     2286.362        2.496        0.422      201.389       20.351        0.010      329.526       -3.683      872.515
11/16/2014  06:22:00      158.288      109.471       20.672       68.913       54.524       52.689     4749.068     2972.909     2776.150        2.398        0.525      192.455       30.872        0.026      329.533       -3.673      872.505
11/16/2014  06:23:00       89.340       63.387       13.340       59.296       49.091       33.508     3516.050     2409.918     1122.795        0.961        0.352      109.542       26.053        0.057      329.498       -3.730      872.495
11/16/2014  06:24:00      140.004       87.550       -0.098       71.317       62.943       44.405     5086.145     3961.867     1971.798        1.914        0.551      165.125       39.611        0.058      329.516       -3.701      872.487
11/16/2014  06:25:00      144.166      103.126       11.636       49.955       43.923       42.056     2495.506     1929.215     1768.733        1.887        0.310      177.254       23.214        0.017      329.493       -3.736      872.483
11/16/2014  06:26:00       97.738       73.819        9.313       42.735       32.151       32.168     1826.244     1033.672     1034.756        0.949        0.195      122.482       20.449        0.028      329.470       -3.774      872.486
11/16/2014  06:27:00      125.187       82.978       14.471       76.198       55.610       39.368     5806.151     3092.422     1549.806        1.661        0.522      150.190       19.060        0.016      329.493       -3.738      872.491
11/16/2014  06:28:00      113.857       79.046        8.680       46.859       46.679       34.600     2195.735     2178.966     1197.193        1.243        0.279      138.607       30.346        0.048      329.496       -3.733      872.519
11/16/2014  06:29:00       84.711       55.130       14.586       50.679       44.687       28.118     2568.404     1996.925      790.615        0.789        0.268      101.071       24.902        0.061      329.457       -3.796      872.529
11/16/2014  06:30:00      101.940       86.335        2.285       48.095       51.972       42.765     2313.125     2701.071     1828.827        1.235        0.342      133.587       35.645        0.071      329.469       -3.777      872.533
11/16/2014  06:31:00      115.944       80.022       20.145       62.712       39.563       39.655     3932.792     1565.213     1572.509        1.366        0.354      140.878       22.120        0.025      329.476       -3.766      872.552
11/16/2014  06:32:00       73.863       51.989       18.115       78.849       51.699       42.239     6217.101     2672.778     1784.145        0.958        0.534       90.325       28.001        0.096      329.459       -3.792      872.561
11/16/2014  06:33:00      100.103       85.331       20.854       58.623       41.404       45.682     3436.659     1714.274     2086.869        1.249        0.362      131.537       33.390        0.064      329.466       -3.783      872.573
11/16/2014  06:34:00      146.395       85.547       19.778       72.116       37.554       39.810     5200.706     1410.339     1584.839        1.867        0.410      169.558       15.290        0.008      329.458       -3.796      872.580
11/16/2014  06:35:00      103.118       87.412        9.917       75.596       50.841       46.425     5714.709     2584.807     2155.234        1.441        0.523      135.182       24.998        0.034      329.456       -3.799      872.572
11/16/2014  06:36:00       84.129       62.397        9.320       44.015       44.372       42.091     1937.289     1968.896     1771.672        0.837        0.284      104.743       29.450        0.079      329.432       -3.837      872.561
11/16/2014  06:37:00      125.057       82.524       25.252       69.500       56.114       40.419     4830.268     3148.747     1633.724        1.635        0.481      149.832       14.046        0.009      329.446       -3.816      872.557
11/16/2014  06:38:00      112.189      100.350        3.581       65.081       50.006       46.191     4235.590     2500.580     2133.609        1.577        0.443      150.521       33.317        0.049      329.418       -3.860      872.562
11/16/2014  06:39:00      137.246       89.757       18.879       46.281       44.370       45.331     2141.900     1968.732     2054.881        1.671        0.308      163.990       34.747        0.045      329.417       -3.863      872.565
11/16/2014  06:40:00      107.925       89.653       12.591       51.919       46.281       44.822     2695.602     2141.916     2008.994        1.334        0.342      140.305       24.556        0.031      329.396       -3.895      872.573
11/16/2014  06:41:00      161.559      112.980       14.166       49.906       41.326       45.620     2490.562     1707.832     2081.216        2.267        0.314      197.145       30.284        0.024      329.408       -3.878      872.588
11/16/2014  06:42:00       94.193       72.486        7.539       46.853       34.971       33.778     2195.189     1222.994     1140.923        0.937        0.228      118.855       22.354        0.035      329.404       -3.884      872.590
11/16/2014  06:43:00       68.055       60.537        6.302       48.992       45.838       26.027     2400.206     2101.153      677.423        0.676        0.259       91.084       18.178        0.040      329.424       -3.850      872.589
11/16/2014  06:44:00       84.196       61.794        2.920       34.631       28.356       27.491     1199.297      804.080      755.735        0.684        0.138      104.439       16.709        0.026      329.386       -3.913      872.600
11/16/2014  06:45:00       97.604       67.115       15.685       60.150       44.239       28.211     3618.005     1957.062      795.864        1.032        0.319      118.453       22.795        0.037      329.385       -3.915      872.605
11/16/2014  06:46:00       79.358       46.064       12.183       42.959       31.554       26.390     1845.450      995.631      696.450        0.605        0.177       91.758       17.701        0.037      329.421       -3.855      872.616
11/16/2014  06:47:00       96.043       66.269        1.990       34.657       31.799       28.274     1201.116     1011.147      799.422        0.832        0.151      116.687       15.950        0.019      329.371       -3.938      872.632
11/16/2014  06:48:00      124.977       77.951       12.722       53.201       43.923       30.460     2830.336     1929.190      927.788        1.377        0.284      147.295       14.413        0.010      329.385       -3.914      872.649
11/16/2014  06:49:00       66.536       41.301       18.791       58.376       32.342       23.296     3407.762     1045.995      542.709        0.574        0.250       78.312       30.041        0.147      329.435       -3.831      872.654
11/16/2014  06:50:00       79.111       45.843       10.266       24.273       32.502       22.270      589.167     1056.380      495.964        0.530        0.107       91.434       17.677        0.037      329.372       -3.936      872.649
11/16/2014  06:51:00       38.854       62.054        2.458       26.745       49.022       26.904      715.285     2403.178      723.804        0.460        0.192       73.215       26.612        0.132      329.350       -3.972      872.638
11/16/2014  06:52:00       59.645       87.495      -14.374       43.605       59.028       33.710     1901.357     3484.305     1136.332        0.897        0.326      105.891       34.878        0.108      329.364       -3.949      872.641
11/16/2014  06:53:00       37.809       67.719       10.206       43.858       34.108       32.656     1923.541     1163.363     1066.408        0.514        0.208       77.559       26.960        0.121      329.351       -3.970      872.657
11/16/2014  06:54:00       79.063       76.478        1.711       55.179       48.287       29.141     3044.751     2331.598      849.224        0.916        0.311      109.999       27.358        0.062      329.392       -3.903      872.662
11/16/2014  06:55:00      101.669       55.416        7.146       37.239       28.256       22.635     1386.714      798.381      512.363        0.808        0.135      115.790       14.408        0.015      329.376       -3.929      872.671
11/16/2014  06:56:00      108.094       77.458       15.017       72.614       43.396       34.326     5272.787     1883.198     1178.246        1.312        0.417      132.981       25.884        0.038      329.372       -3.935      872.668
11/16/2014  06:57:00       62.965       64.312        6.250       41.581       39.179       42.220     1728.994     1534.977     1782.546        0.659        0.252       90.003       26.377        0.086      329.374       -3.934      872.639
11/16/2014  06:58:00       43.092       74.103       14.910       59.866       46.962       41.270     3583.925     2205.457     1703.208        0.753        0.375       85.722       33.243        0.150      329.366       -3.946      872.612
11/16/2014  06:59:00       64.574       62.813        3.663       45.483       49.647       39.380     2068.696     2464.850     1550.797        0.711        0.304       90.085       36.785        0.167      329.383       -3.917      872.583
11/16/2014  07:00:00      107.582       78.954       20.240       71.546       41.955       32.684     5118.766     1760.204     1068.267        1.308        0.397      133.445       22.398        0.028      329.379       -3.926      872.573
11/16/2014  07:01:00      114.702       94.149       12.198       60.621       47.912       61.756     3674.847     2295.567     3813.840        1.597        0.489      148.393       40.266        0.074      329.363       -3.949      872.579
11/16/2014  07:02:00       87.414       81.916        9.612       58.849       41.152       33.227     3463.179     1693.470     1104.045        1.035        0.313      119.798       24.580        0.042      329.389       -3.907      872.601
11/16/2014  07:03:00       84.520       69.454       16.044       51.312       33.770       32.755     2632.887     1140.421     1072.866        0.853        0.242      109.396       20.723        0.036      329.402       -3.886      872.618
11/16/2014  07:04:00       75.854       83.485       11.693       53.997       57.984       46.365     2915.637     3362.167     2149.680        1.064        0.421      112.799       39.105        0.120      329.417       -3.861      872.612
11/16/2014  07:05:00      114.753       96.075       18.935       64.252       49.251       44.958     4128.286     2425.672     2021.230        1.566        0.429      149.662       18.502        0.015      329.426       -3.847      872.592
11/16/2014  07:06:00      119.804       97.682       11.868       72.484       55.758       49.962     5253.932     3108.918     2496.250        1.745        0.543      154.579       33.612        0.047      329.453       -3.806      872.583
11/16/2014  07:07:00      120.262      107.865        9.313       65.876       42.572       46.285     4339.674     1812.376     2142.276        1.724        0.415      161.548       30.655        0.036      329.437       -3.830      872.583
11/16/2014  07:08:00      107.320       92.398       13.914       59.963       48.636       48.482     3595.516     2365.493     2350.487        1.428        0.416      141.616       37.432        0.070      329.470       -3.775      872.589
11/16/2014  07:09:00       80.857       60.561        4.712       44.405       42.335       37.775     1971.831     1792.220     1426.961        0.771        0.260      101.022       26.638        0.070      329.511       -3.707      872.601
11/16/2014  07:10:00      106.379       76.920       21.218       49.345       37.349       34.438     2434.911     1394.976     1185.981        1.135        0.251      131.276       19.223        0.021      329.476       -3.765      872.619
11/16/2014  07:11:00       88.981       65.498        2.939       66.457       54.822       32.864     4416.523     3005.447     1080.021        1.036        0.425      110.488       17.558        0.025      329.488       -3.746      872.631
11/16/2014  07:12:00       87.632       45.772       10.095       56.511       41.929       25.143     3193.519     1758.014      632.195        0.773        0.279       98.866        8.073        0.007      329.504       -3.719      872.646
11/16/2014  07:13:00      205.998      146.731       22.955       56.057       49.640       48.588     3142.365     2464.083     2360.842        3.623        0.398      252.913       22.255        0.008      329.501       -3.729      872.655
11/16/2014  07:14:00       96.785       40.385       10.877       80.328       40.951       34.033     6452.548     1677.021     1158.243        1.020        0.464      104.873       32.775        0.098      329.538       -3.663      872.679
11/16/2014  07:15:00      140.331       84.031       27.412       64.226       43.117       41.941     4125.023     1859.073     1759.014        1.762        0.387      163.566       24.931        0.023      329.533       -3.672      872.698
11/16/2014  07:16:00      129.827       79.388        8.421       54.694       47.127       30.160     2991.452     2220.999      909.619        1.467        0.306      152.176       22.384        0.022      329.547       -3.648      872.730
11/16/2014  07:17:00      144.198      109.804       22.641       40.505       44.521       44.400     1640.671     1982.141     1971.380        1.948        0.280      181.245       26.059        0.021      329.553       -3.640      872.755
11/16/2014  07:18:00       97.907       47.991       12.972       57.460       46.832       33.806     3301.622     2193.235     1142.862        0.935        0.332      109.037       26.287        0.058      329.596       -3.570      872.760
11/16/2014  07:19:00       91.370      106.873        5.882       85.267       64.250       50.594     7270.446     4128.124     2559.798        1.688        0.698      140.607       36.772        0.068      329.584       -3.589      872.764
11/16/2014  07:20:00      106.298       65.683        8.145       59.531       42.165       41.803     3543.907     1777.848     1747.512        1.137        0.353      124.954       24.383        0.038      329.612       -3.542      872.762
11/16/2014  07:21:00      152.246       91.362       14.256       50.503       46.452       39.588     2550.517     2157.779     1567.175        1.900        0.314      177.555       21.942        0.015      329.613       -3.541      872.766
11/16/2014  07:22:00      155.997       84.379       11.396       66.932       52.233       38.940     4479.946     2728.300     1516.303        2.015        0.436      177.356       15.585        0.008      329.620       -3.532      872.780
11/16/2014  07:23:00      146.107       93.403       11.531       61.201       48.030       40.819     3745.572     2306.913     1666.183        1.896        0.386      173.411       30.046        0.030      329.634       -3.507      872.800
11/16/2014  07:24:00      118.349       61.340       31.873       72.787       64.731       48.733     5297.965     4190.150     2374.926        1.532        0.593      133.300       29.936        0.050      329.672       -3.445      872.816
11/16/2014  07:25:00      161.085      105.926       23.128       79.169       53.395       53.122     6267.793     2851.049     2821.971        2.482        0.597      192.792       22.896        0.014      329.656       -3.473      872.828
11/16/2014  07:26:00      175.758      107.832       12.347       57.395       41.423       40.189     3294.160     1715.898     1615.147        2.465        0.331      206.201       18.779        0.008      329.702       -3.397      872.844
11/16/2014  07:27:00      207.066      117.367        5.986       47.007       37.514       40.961     2209.631     1407.306     1677.798        3.099        0.265      238.016       20.090        0.007      329.622       -3.530      872.881
11/16/2014  07:28:00      116.431       79.555       20.436       61.641       54.008       41.968     3799.653     2916.883     1761.313        1.439        0.424      141.015       41.252        0.086      329.716       -3.374      872.905
11/16/2014  07:29:00      116.855       91.255       31.667       91.474       59.656       43.631     8367.431     3558.824     1903.684        1.840        0.691      148.266       40.399        0.074      329.744       -3.327      872.916
11/16/2014  07:30:00      159.388       75.159       16.629       56.156       51.323       33.582     3153.538     2634.021     1127.782        1.912        0.346      176.220       17.522        0.010      329.705       -3.391      872.926
11/16/2014  07:31:00       97.456       78.580       23.901       60.256       40.371       31.865     3630.803     1629.807     1015.360        1.126        0.314      125.190       25.732        0.042      329.770       -3.285      872.940
11/16/2014  07:32:00      133.588       58.621       21.872       78.019       52.207       48.714     6087.036     2725.581     2373.037        1.647        0.559      145.884       29.607        0.041      329.803       -3.231      872.940
11/16/2014  07:33:00      199.177      113.654       48.164       75.159       60.936       48.582     5648.853     3713.163     2360.186        3.331        0.586      229.322       35.543        0.024      329.719       -3.372      872.927
11/16/2014  07:34:00      134.757       70.909       28.535       68.915       57.823       49.870     4749.320     3343.480     2486.982        1.729        0.529      152.275       25.936        0.029      329.725       -3.358      872.945
11/16/2014  07:35:00      186.839      111.968       18.392       70.870       48.783       45.669     5022.550     2379.787     2085.643        2.863        0.474      217.820       26.166        0.014      329.754       -3.314      872.957
11/16/2014  07:36:00      191.666      117.794       31.416       89.365       75.098       51.843     7986.079     5639.762     2687.684        3.395        0.816      224.970       23.639        0.011      329.769       -3.288      872.965
11/16/2014  07:37:00      234.747      143.805       16.919       62.301       60.773       43.645     3881.374     3693.345     1904.876        4.277        0.474      275.293       32.174        0.014      329.729       -3.354      872.994
11/16/2014  07:38:00      183.275      123.261       33.752       68.060       48.240       55.094     4632.185     2327.075     3035.345        2.996        0.500      220.868       31.581        0.020      329.779       -3.272      873.014
11/16/2014  07:39:00      134.778      106.304       15.406       78.793       74.531       53.441     6208.387     5554.912     2855.895        2.216        0.731      171.656       45.569        0.070      329.851       -3.155      873.027
11/16/2014  07:40:00      154.157       95.924       30.174       55.810       59.550       47.102     3114.756     3546.212     2218.636        2.138        0.444      181.565        9.796        0.003      329.888       -3.092      873.025
11/16/2014  07:41:00      182.501       97.471       58.094       78.167       74.470       55.183     6110.147     5545.843     3045.137        3.044        0.735      206.899       48.991        0.056      329.813       -3.216      873.025
11/16/2014  07:42:00       75.793       26.618       26.403       87.039       55.510       45.625     7575.815     3081.332     2081.682        0.994        0.637       80.331       41.971        0.273      329.928       -3.025      873.024
11/16/2014  07:43:00      160.237       89.077       32.576       57.538       45.006       49.091     3310.576     2025.518     2409.961        2.121        0.387      183.332       21.261        0.013      329.987       -2.930      873.007
11/16/2014  07:44:00      172.233      121.889       32.932       66.017       62.417       49.353     4358.200     3895.838     2435.730        2.815        0.534      211.000       31.276        0.022      329.896       -3.080      873.006
11/16/2014  07:45:00      120.683       64.590       28.667       60.006       47.542       48.150     3600.702     2260.226     2318.408        1.387        0.409      136.880       36.583        0.071      329.959       -2.975      873.010
11/16/2014  07:46:00      105.963       84.242       55.867       86.743       78.732       57.979     7524.422     6198.690     3361.563        1.926        0.854      135.369       39.006        0.083      329.936       -3.012      873.017
11/16/2014  07:47:00       75.450       69.683       86.735       59.619       45.634       44.707     3554.465     2082.496     1998.711        1.285        0.382      102.706       28.256        0.076      329.963       -2.968      873.035
11/16/2014  07:48:00       49.651       88.234       76.237       66.203       54.839       46.332     4382.839     3007.343     2146.640        1.280        0.477      101.244       39.184        0.150      330.049       -2.827      873.045
11/16/2014  07:49:00      203.106      134.642       61.165       75.054       53.469       55.523     5633.032     2858.929     3082.847        3.735        0.579      243.681       29.615        0.015      329.889       -3.091      873.052
11/16/2014  07:50:00      151.778       97.274       49.376       63.805       55.422       48.573     4071.090     3071.580     2359.348        2.222        0.475      180.274       27.596        0.023      329.977       -2.947      873.049
11/16/2014  07:51:00      225.492      111.861       52.239      114.922       82.751       61.540    13207.134     6847.652     3787.218        4.496        1.192      251.713       16.039        0.004      329.887       -3.095      873.035
11/16/2014  07:52:00      178.898      108.107       24.085       76.260       59.647       53.271     5815.622     3557.747     2837.782        2.824        0.611      209.026       38.735        0.034      329.857       -3.144      873.054
11/16/2014  07:53:00      134.437       96.115       35.134       69.383       71.668       53.931     4814.021     5136.337     2908.566        2.070        0.643      165.261       40.711        0.061      329.902       -3.070      873.052
11/16/2014  07:54:00      113.893       68.199       41.196       66.159       37.630       40.319     4377.051     1416.043     1625.622        1.337        0.371      132.751       36.554        0.076      329.989       -2.925      873.073
11/16/2014  07:55:00      136.073       65.982       16.514       73.104       49.620       51.991     5344.218     2462.175     2703.013        1.682        0.525      151.227       41.350        0.075      330.035       -2.852      873.089
11/16/2014  07:56:00      138.119       81.809       29.256       80.475       62.445       40.654     6476.156     3899.360     1652.753        1.932        0.601      160.529       43.162        0.072      329.986       -2.931      873.100
11/16/2014  07:57:00      131.323       59.467       17.837       64.397       66.653       40.696     4147.017     4442.609     1656.125        1.567        0.512      144.160       28.280        0.038      330.015       -2.885      873.110
11/16/2014  07:58:00      127.749       94.711       27.853       67.994       41.318       42.429     4623.194     1707.218     1800.186        1.710        0.407      159.028       29.320        0.034      330.076       -2.783      873.115
11/16/2014  07:59:00      153.241       76.953       13.905       67.915       56.618       41.744     4612.420     3205.648     1742.543        1.958        0.478      171.478        8.973        0.003      330.021       -2.875      873.115
11/16/2014  08:00:00      138.945      108.595       18.545       89.683       67.135       40.354     8043.103     4507.161     1628.450        2.281        0.709      176.348       35.436        0.040      330.099       -2.745      873.106
11/16/2014  08:01:00      219.930      131.401       12.719       83.888       64.123       54.514     7037.211     4111.734     2971.730        3.996        0.706      256.194       33.909        0.018      330.001       -2.909      873.110
11/16/2014  08:02:00      171.553      115.919       31.761      122.241       87.737       72.602    14942.971     7697.696     5271.025        3.589        1.396      207.045       49.122        0.056      330.065       -2.803      873.106
11/16/2014  08:03:00      172.747      126.505       21.117      102.443       80.658       75.217    10494.533     6505.717     5657.620        3.447        1.133      214.115       55.001        0.066      330.050       -2.828      873.112
11/16/2014  08:04:00      170.537      129.117       45.728       91.866       72.396       62.358     8439.330     5241.125     3888.516        3.270        0.878      213.902       54.910        0.066      330.129       -2.698      873.100
11/16/2014  08:05:00      133.579      108.073       41.157       57.332       59.306       55.837     3286.942     3517.249     3117.787        2.057        0.496      171.822       44.251        0.066      330.192       -2.591      873.107
11/16/2014  08:06:00      126.909      111.606       -2.107       84.620       77.620       61.652     7160.557     6024.790     3800.953        2.277        0.849      169.002       45.947        0.074      330.197       -2.586      873.094
11/16/2014  08:07:00      167.485       94.065       10.076       73.225       67.036       49.863     5361.846     4493.806     2486.312        2.467        0.617      192.092       29.033        0.023      330.139       -2.681      873.081
11/16/2014  08:08:00      103.965       70.445       35.743       73.969       47.997       43.866     5471.409     2303.681     1924.251        1.337        0.485      125.583       42.893        0.117      330.330       -2.367      873.066
11/16/2014  08:09:00       70.548       76.094       39.715       70.703       75.052       55.046     4998.930     5632.820     3030.027        1.300        0.683      103.766       33.512        0.104      330.412       -2.232      873.044
11/16/2014  08:10:00      155.180       98.205       36.526       80.396       68.984       60.420     6463.540     4758.856     3650.566        2.496        0.744      183.644       33.692        0.034      330.277       -2.454      873.053
11/16/2014  08:11:00      148.849       75.000       61.844      127.387       70.571       63.497    16227.337     4980.225     4031.877        2.842        1.262      166.676       47.809        0.082      330.247       -2.504      873.048
11/16/2014  08:12:00      183.499      106.561       18.130       90.840       85.545       62.285     8251.880     7317.935     3879.368        3.240        0.972      212.196       45.912        0.047      330.157       -2.652      873.068
11/16/2014  08:13:00      211.365      118.237       29.174       87.064       63.056       52.331     7580.091     3976.061     2738.566        3.690        0.715      242.189       17.320        0.005      330.155       -2.657      873.069
11/16/2014  08:14:00      128.254       93.144       50.460      108.735       76.168       76.488    11823.337     5801.507     5850.347        2.557        1.174      158.508       51.598        0.106      330.285       -2.442      873.068
11/16/2014  08:15:00      114.841       69.686       37.141       65.581       63.401       52.201     4300.870     4019.711     2724.916        1.523        0.552      134.330       34.331        0.065      330.449       -2.172      873.081
11/16/2014  08:16:00      175.580       84.946       65.343       98.114       84.501       50.787     9626.419     7140.437     2579.366        3.083        0.967      195.049       40.324        0.043      330.339       -2.354      873.081
11/16/2014  08:17:00      181.657      130.635       80.189      122.962       95.448       88.281    15119.719     9110.369     7793.589        4.425        1.601      223.752       76.986        0.118      330.254       -2.494      873.079
11/16/2014  08:18:00      169.164      104.154       70.696       91.656      106.492       58.417     8400.806    11340.544     3412.520        3.380        1.158      198.657       46.625        0.055      330.256       -2.490      873.087
11/16/2014  08:19:00      209.306      105.693       39.558       83.607       74.169       52.016     6990.092     5501.026     2705.618        3.587        0.760      234.478       32.491        0.019      330.205       -2.575      873.114
11/16/2014  08:20:00      189.981      137.981       25.280       76.884       64.785       50.232     5911.177     4197.117     2523.277        3.420        0.632      234.801       31.207        0.018      330.256       -2.491      873.119
11/16/2014  08:21:00      150.961      108.512        6.255      107.184       66.800       56.688    11488.327     4462.248     3213.535        2.688        0.958      185.914       38.220        0.042      330.330       -2.369      873.123
11/16/2014  08:22:00      217.250      111.044       22.810      102.498       87.447       60.616    10505.763     7647.030     3674.360        4.093        1.091      243.985       17.220        0.005      330.245       -2.509      873.136
11/16/2014  08:23:00      137.239       89.421       29.251       56.847       43.167       44.103     3231.616     1863.357     1945.084        1.736        0.352      163.801       22.188        0.018      330.375       -2.292      873.165
11/16/2014  08:24:00       79.907       76.768       32.198       85.811       55.929       51.178     7363.449     3128.077     2619.169        1.321        0.656      110.808       32.600        0.087      330.527       -2.043      873.152
11/16/2014  08:25:00       89.490       85.128       70.947       92.837       64.912       54.943     8618.666     4213.580     3018.773        1.807        0.793      123.512       40.145        0.106      330.633       -1.871      873.162
11/16/2014  08:26:00       74.378       29.929       43.787       59.541       70.072       40.725     3545.175     4910.118     1658.499        0.923        0.506       80.173       27.819        0.120      330.621       -1.889      873.168
11/16/2014  08:27:00       68.258       96.915       98.806       73.973       61.627       42.257     5472.023     3797.931     1785.683        1.743        0.553      118.540       33.885        0.082      330.593       -1.935      873.173
11/16/2014  08:28:00      147.863       78.118       19.665       45.438       38.580       43.238     2064.580     1488.434     1869.564        1.689        0.271      167.230       24.892        0.022      330.385       -2.277      873.189
11/16/2014  08:29:00       60.187       58.663       44.507       64.307       34.208       36.085     4135.425     1170.196     1302.135        0.782        0.330       84.047       36.373        0.187      330.682       -1.789      873.208
11/16/2014  08:30:00       99.488       67.412        7.934       85.451       62.913       44.723     7301.855     3958.082     2000.109        1.388        0.663      120.176       44.302        0.136      330.651       -1.842      873.203
11/16/2014  08:31:00      122.838       83.438       23.648       62.945       51.121       45.796     3962.091     2613.380     2097.256        1.564        0.434      148.496       28.706        0.037      330.574       -1.966      873.207
11/16/2014  08:32:00      124.579       92.648       15.113       75.512       58.855       45.846     5702.022     3463.954     2101.852        1.780        0.563      155.254       39.670        0.065      330.663       -1.821      873.208
11/16/2014  08:33:00      105.183       89.079        5.972       70.328       55.393       44.804     4946.016     3068.372     2007.365        1.453        0.501      137.835       23.371        0.029      330.651       -1.840      873.199
11/16/2014  08:34:00      120.202      106.940       10.359       82.704       64.356       53.932     6839.892     4141.660     2908.629        1.994        0.695      160.887       42.318        0.069      330.593       -1.936      873.200
11/16/2014  08:35:00      151.205       74.419       18.261       86.545       66.996       41.180     7489.974     4488.453     1695.759        2.120        0.684      168.526       27.649        0.027      330.599       -1.927      873.192
11/16/2014  08:36:00      136.963       85.258       28.170       66.887       58.258       47.743     4473.882     3394.012     2279.413        1.848        0.507      161.331       31.598        0.038      330.726       -1.717      873.198
11/16/2014  08:37:00       83.748       60.695       22.478       88.148       66.267       56.989     7770.133     4391.256     3247.787        1.330        0.770      103.429       39.583        0.146      330.682       -1.790      873.203
11/16/2014  08:38:00       99.266       82.653       12.708       60.232       49.452       52.881     3627.889     2445.451     2796.444        1.286        0.443      129.172       39.858        0.095      330.596       -1.929      873.215
11/16/2014  08:39:00       90.462       78.810       13.449       72.633       52.217       50.205     5275.528     2726.658     2520.529        1.255        0.526      119.977       34.609        0.083      330.706       -1.749      873.223
11/16/2014  08:40:00       92.229       88.658       22.990       78.250       54.960       62.584     6123.051     3020.615     3916.798        1.498        0.653      127.931       42.025        0.108      330.729       -1.712      873.235
11/16/2014  08:41:00      137.736       69.472       12.669       50.416       41.544       39.606     2541.723     1725.942     1568.618        1.490        0.292      154.265       22.015        0.020      330.770       -1.644      873.250
11/16/2014  08:42:00       81.286       55.882        0.129       65.133       35.334       31.246     4242.367     1248.486      976.328        0.810        0.323       98.642       25.717        0.068      330.832       -1.543      873.274
11/16/2014  08:43:00      138.568      102.109       11.333       51.953       42.114       43.805     2699.141     1773.595     1918.842        1.807        0.320      172.126       26.350        0.023      330.635       -1.867      873.304
11/16/2014  08:44:00      153.036      104.438       27.538       61.534       40.365       53.431     3786.373     1629.363     2854.845        2.168        0.414      185.276       28.143        0.023      330.535       -2.032      873.309
11/16/2014  08:45:00      152.271      121.582        6.185       47.001       45.949       42.127     2209.081     2111.283     1774.666        2.205        0.305      194.855       25.496        0.017      330.548       -2.010      873.309
11/16/2014  08:46:00      148.672      115.098       12.799       56.821       39.776       41.204     3228.626     1582.119     1697.771        2.101        0.325      188.018       24.290        0.017      330.565       -1.983      873.301
11/16/2014  08:47:00      154.635      105.818       26.526       74.484       59.407       39.654     5547.923     3529.162     1572.419        2.323        0.532      187.375       22.765        0.015      330.535       -2.032      873.285
11/16/2014  08:48:00       71.020       45.382       13.830       61.044       27.878       25.043     3726.402      777.177      627.155        0.621        0.257       84.282       17.181        0.042      330.557       -1.994      873.277
11/16/2014  08:49:00      132.974       91.542        5.771       72.142       46.954       38.517     5204.505     2204.657     1483.597        1.749        0.445      161.438       21.347        0.017      330.694       -1.771      873.277
11/16/2014  08:50:00       92.686       92.443       -6.833       61.619       56.698       41.952     3796.947     3214.613     1759.975        1.298        0.439      130.906       32.550        0.062      330.578       -1.960      873.282
11/16/2014  08:51:00       33.176      117.142       -5.538       42.025       76.849       47.148     1766.126     5905.738     2222.976        1.237        0.495      121.749       48.424        0.158      330.626       -1.882      873.290
11/16/2014  08:52:00       73.859       52.244       30.659       56.267       45.899       36.689     3165.928     2106.761     1346.049        0.787        0.331       90.469       29.877        0.109      330.843       -1.524      873.286
11/16/2014  08:53:00      120.783       64.940       48.931       84.295       55.805       55.945     7105.723     3114.169     3129.848        1.727        0.667      137.134       42.557        0.096      330.758       -1.664      873.273
11/16/2014  08:54:00      154.060      106.137       26.602       63.432       42.451       47.811     4023.632     1802.074     2285.865        2.191        0.406      187.082       23.336        0.016      330.588       -1.943      873.275
11/16/2014  08:55:00      113.434       46.963       35.506       61.182       57.783       44.126     3743.264     3338.845     1947.078        1.268        0.451      122.771       32.078        0.068      330.674       -1.802      873.288
11/16/2014  08:56:00      135.195       84.490       25.394       39.141       29.988       32.805     1532.011      899.293     1076.190        1.478        0.175      159.425       14.974        0.009      330.613       -1.902      873.289
11/16/2014  08:57:00       74.229       82.723       65.898       44.022       48.933       48.137     1937.898     2394.403     2317.185        1.167        0.332      111.144       32.581        0.086      330.788       -1.615      873.291
11/16/2014  08:58:00       60.564       41.160       32.454       66.192       37.313       31.899     4381.439     1392.243     1017.565        0.660        0.340       73.227       30.108        0.169      330.945       -1.358      873.291
11/16/2014  08:59:00      177.378      129.519        5.263       46.079       38.199       39.026     2123.289     1459.173     1522.994        2.668        0.255      219.631       22.768        0.011      330.707       -1.751      873.286
11/16/2014  09:00:00      137.353      104.423       19.006       34.888       40.568       33.144     1217.142     1645.728     1098.531        1.705        0.198      172.540       21.793        0.016      330.686       -1.783      873.271
11/16/2014  09:01:00       62.323       70.287       -0.310       45.628       50.091       32.190     2081.933     2509.078     1036.184        0.722        0.281       93.939       24.836        0.070      330.812       -1.576      873.269
11/16/2014  09:02:00       86.330       96.172        1.440       56.114       47.117       39.420     3148.755     2220.041     1553.911        1.181        0.346      129.236       32.097        0.062      330.768       -1.648      873.264
11/16/2014  09:03:00       63.878       63.902        6.053       58.240       36.694       25.452     3391.851     1346.439      647.790        0.679        0.269       90.354       21.541        0.057      330.926       -1.390      873.260
11/16/2014  09:04:00      189.259       97.762       21.330       45.028       38.473       32.565     2027.557     1480.194     1060.474        2.520        0.228      213.018       23.211        0.012      330.843       -1.526      873.267
11/16/2014  09:05:00      104.841       56.462       28.377       66.416       69.568       58.648     4411.081     4839.648     3439.575        1.384        0.635      119.078       40.652        0.117      330.835       -1.540      873.261
11/16/2014  09:06:00       79.069       44.076        9.160       45.517       39.021       37.407     2071.841     1522.638     1399.311        0.664        0.250       90.524       22.444        0.061      330.809       -1.579      873.256
11/16/2014  09:07:00       91.850       66.120       25.158       36.930       54.552       43.688     1363.800     2975.970     1908.682        0.984        0.312      113.174       36.484        0.104      331.000       -1.267      873.249
11/16/2014  09:08:00       70.456      -72.111       19.594       55.556       83.522       51.871     3086.464     6976.000     2690.562        1.165        0.638      100.817       54.239        0.289      331.042       -1.199      873.232
11/16/2014  09:09:00       60.531        0.300       50.365       66.212       78.494       47.976     4384.062     6161.264     2301.675        0.952        0.642       60.531       59.874        0.978      331.090       -1.119      873.242
11/16/2014  09:10:00       59.850       27.053       30.086       52.841       42.139       45.450     2792.151     1775.656     2065.679        0.592        0.332       65.680       42.720        0.423      330.998       -1.270      873.256
11/16/2014  09:11:00       64.298       67.188       50.765       45.069       34.681       35.182     2031.256     1202.747     1237.764        0.785        0.224       92.997       27.446        0.087      331.009       -1.250      873.250
11/16/2014  09:12:00       90.582       68.032        8.756       38.991       33.938       37.065     1520.287     1151.780     1373.835        0.848        0.202      113.285       28.102        0.062      330.919       -1.399      873.246
11/16/2014  09:13:00       79.942       68.492        5.311       52.699       37.664       27.966     2777.176     1418.551      782.106        0.804        0.249      105.270       17.271        0.027      330.927       -1.387      873.238
11/16/2014  09:14:00       14.178       51.045        5.153       26.880       45.380       23.015      722.519     2059.334      529.688        0.307        0.166       52.977       24.499        0.214      331.039       -1.203      873.227
11/16/2014  09:15:00       44.502       38.147       10.848       48.740       21.839       22.490     2375.552      476.951      505.783        0.346        0.168       58.614       17.955        0.094      331.161       -1.002      873.237
11/16/2014  09:16:00      130.544       94.991       56.633       50.767       44.190       40.271     2577.322     1952.727     1621.732        1.771        0.308      161.446       30.256        0.035      331.041       -1.200      873.249
11/16/2014  09:17:00       74.883        6.462       36.194       33.060       33.540       35.936     1092.970     1124.902     1291.406        0.523        0.175       75.162       27.384        0.133      330.954       -1.343      873.271
11/16/2014  09:18:00      115.559       85.698        6.938       65.979       51.339       42.260     4353.287     2635.674     1785.874        1.476        0.439      143.868       34.611        0.058      331.053       -1.181      873.278
11/16/2014  09:19:00       68.694       36.842        9.307       49.117       45.560       31.711     2412.490     2075.727     1005.576        0.583        0.275       77.950       20.490        0.069      331.207       -0.926      873.275
11/16/2014  09:20:00       98.208       72.212       61.077       58.649       39.661       37.381     3439.706     1573.008     1397.360        1.250        0.321      121.898       30.694        0.063      331.295       -0.783      873.270
11/16/2014  09:21:00       79.514       80.655       65.251       63.589       32.749       32.029     4043.568     1072.485     1025.867        1.161        0.307      113.259       36.226        0.102      331.136       -1.044      873.273
11/16/2014  09:22:00       47.852       11.158       39.791       56.456       62.348       35.512     3187.281     3887.318     1261.124        0.617        0.417       49.135       30.775        0.392      331.450       -0.527      873.279
11/16/2014  09:23:00       38.483        6.408       27.925       55.096       53.878       37.698     3035.603     2902.819     1421.162        0.483        0.368       39.013       35.678        0.836      331.521       -0.410      873.272
11/16/2014  09:24:00       19.374      -25.927       23.543       31.183       61.059       31.546      972.350     3728.248      995.121        0.365        0.285       32.366       26.126        0.652      331.622       -0.244      873.275
11/16/2014  09:25:00       14.366      -17.721       18.771       17.267       39.341       24.984      298.145     1547.694      624.208        0.167        0.124       22.813       23.815        1.090      331.552       -0.359      873.268
11/16/2014  09:26:00       35.095      -19.404       31.235       28.049       52.667       32.252      786.738     2773.779     1040.189        0.359        0.230       40.102       33.724        0.707      331.419       -0.579      873.256
11/16/2014  09:27:00       18.666      -33.433       39.337       29.857       48.004       27.507      891.419     2304.368      756.660        0.348        0.198       38.291       23.977        0.392      331.635       -0.223      873.247
11/16/2014  09:28:00       86.151       48.834       16.429       60.319       65.695       50.473     3638.324     4315.881     2547.554        1.029        0.525       99.029       29.867        0.091      331.221       -0.904      873.238
11/16/2014  09:29:00       60.206      102.805      110.040       77.237       69.859       75.204     5965.605     4880.277     5655.646        2.140        0.825      119.137       66.331        0.310      331.225       -0.899      873.237
11/16/2014  09:30:00       94.663       70.278       52.363       72.828       66.078       40.924     5303.915     4366.257     1674.801        1.399        0.567      117.898       30.474        0.067      331.133       -1.050      873.236
11/16/2014  09:31:00       33.043       75.176       96.052       60.575       54.037       44.099     3669.379     2919.993     1944.701        1.225        0.427       82.117       46.135        0.316      331.150       -1.020      873.225
11/16/2014  09:32:00       58.490       74.626       70.311       59.193       65.890       65.249     3503.800     4341.505     4257.486        1.302        0.605       94.816       56.347        0.353      331.110       -1.088      873.221
11/16/2014  09:33:00       35.854       29.938       48.349       29.925       41.956       32.880      895.517     1760.336     1081.083        0.413        0.187       46.709       31.888        0.466      331.310       -0.758      873.221
11/16/2014  09:34:00       48.134       49.941       45.983       28.247       34.322       35.748      797.909     1177.975     1277.936        0.509        0.163       69.361       23.769        0.117      331.357       -0.679      873.224
11/16/2014  09:35:00       92.220       71.818       42.895       39.034       33.597       28.664     1523.665     1128.750      821.612        0.949        0.174      116.886       13.295        0.013      331.219       -0.906      873.246
11/16/2014  09:36:00       88.568       58.913       25.964       21.725       16.232       22.390      471.994      263.480      501.307        0.661        0.062      106.372       15.813        0.022      331.211       -0.921      873.253
11/16/2014  09:37:00       32.204       16.762       28.264       26.458       32.159       26.724      700.022     1034.223      714.165        0.228        0.122       36.305       17.182        0.224      331.621       -0.244      873.271
11/16/2014  09:38:00       59.483      -27.055       34.616       55.012      106.228       55.727     3026.337    11284.352     3105.524        1.144        0.871       65.346       65.422        1.002      331.538       -0.382      873.291
11/16/2014  09:39:00       46.093      -49.333       55.153       59.288      111.365       57.438     3515.012    12402.208     3299.076        1.340        0.961       67.515       69.483        1.059      331.561       -0.345      873.291
11/16/2014  09:40:00      147.485       63.630       48.234       79.250       62.990       51.889     6280.599     3967.722     2692.489        2.053        0.647      160.626       40.407        0.063      331.188       -0.959      873.302
11/16/2014  09:41:00      130.181       89.644       21.364       66.935       46.347       47.948     4480.247     2148.079     2299.005        1.718        0.446      158.060        8.317        0.003      331.195       -0.948      873.302
11/16/2014  09:42:00       39.609       58.143       44.453       50.972       43.892       49.723     2598.119     1926.514     2472.410        0.696        0.350       70.353       27.221        0.150      331.406       -0.600      873.278
11/16/2014  09:43:00      102.721       82.327       30.646       57.408       54.026       49.121     3295.656     2918.840     2412.869        1.345        0.431      131.641       25.154        0.037      331.236       -0.881      873.275
11/16/2014  09:44:00      163.986       86.535       21.630       69.750       48.061       46.008     4865.118     2309.832     2116.759        2.207        0.465      185.417       20.038        0.012      331.127       -1.061      873.268
11/16/2014  09:45:00       60.833       74.472       17.243       52.927       44.360       43.800     2801.249     1967.814     1918.409        0.811        0.334       96.160       23.519        0.060      331.438       -0.546      873.243
11/16/2014  09:46:00      113.130       47.093       15.469       91.816       45.439       35.234     8430.238     2064.704     1241.462        1.349        0.587      122.540       21.704        0.031      331.363       -0.672      873.264
11/16/2014  09:47:00       86.289       89.872       97.215       60.901       61.469       43.672     3708.970     3778.419     1907.203        1.718        0.470      124.590       38.434        0.095      331.399       -0.611      873.257
11/16/2014  09:48:00       89.507      153.875      128.290      105.329       64.931       57.961    11094.257     4216.044     3359.505        3.340        0.933      178.014       61.384        0.119      331.412       -0.592      873.256
11/16/2014  09:49:00       25.090       81.967       77.198       61.108       57.771       51.603     3734.157     3337.454     2662.906        1.152        0.487       85.721       41.065        0.229      331.435       -0.553      873.285
11/16/2014  09:50:00       92.257       72.424       46.845       60.044       53.127       42.164     3605.286     2822.441     1777.790        1.208        0.410      117.288       34.981        0.089      331.439       -0.546      873.302
11/16/2014  09:51:00       76.997       77.866        7.327       40.591       39.106       43.895     1647.615     1529.277     1926.727        0.857        0.255      109.506       28.421        0.067      331.187       -0.961      873.310
11/16/2014  09:52:00       42.822       37.118       32.018       38.263       31.618       25.531     1464.043      999.679      651.843        0.368        0.156       56.670       24.213        0.183      331.319       -0.741      873.322
11/16/2014  09:53:00       51.192        0.207       33.997       39.332       35.923       26.936     1547.023     1290.429      725.543        0.367        0.178       51.192       22.135        0.187      331.397       -0.613      873.311
11/16/2014  09:54:00       40.618       66.459       -0.975       32.930       40.289       35.935     1084.365     1623.206     1291.335        0.503        0.200       77.888       31.407        0.163      331.343       -0.703      873.300
11/16/2014  09:55:00      120.018       66.962       47.216       63.532       57.046       49.673     4036.325     3254.244     2467.452        1.544        0.488      137.435       33.865        0.061      331.350       -0.692      873.275
11/16/2014  09:56:00      132.886      113.363       95.357       81.039       61.798       54.724     6567.255     3818.964     2994.754        2.649        0.669      174.670       42.624        0.060      331.249       -0.861      873.242
11/16/2014  09:57:00      105.822       91.718       81.966       58.702       46.094       47.258     3445.979     2124.639     2233.353        1.706        0.390      140.037       32.274        0.053      331.239       -0.875      873.235
11/16/2014  09:58:00       32.001       93.862      127.190       58.446       64.005       36.844     3415.942     4096.702     1357.482        1.744        0.444       99.167       42.556        0.184      331.467       -0.500      873.224
11/16/2014  09:59:00      108.405      -14.751       34.855       80.985       62.018       38.413     6558.617     3846.263     1475.573        1.253        0.594      109.404       37.313        0.116      331.330       -0.725      873.229
11/16/2014  10:00:00       88.844       79.966       56.533       45.256       39.834       51.403     2048.150     1586.715     2642.255        1.188        0.314      119.531       27.772        0.054      331.422       -0.573      873.224
11/16/2014  10:01:00      114.037       95.469       65.764       59.042       61.622       53.132     3485.935     3797.215     2822.973        1.827        0.505      148.723       43.450        0.085      331.489       -0.464      873.211
11/16/2014  10:02:00       73.765      155.186      136.133       65.145       59.683       48.359     4243.839     3562.011     2338.568        2.910        0.507      171.826       44.580        0.067      331.291       -0.791      873.212
11/16/2014  10:03:00       71.202      135.961      105.290       44.947       48.788       38.483     2020.255     2380.318     1480.924        2.026        0.294      153.477       28.281        0.034      331.369       -0.662      873.214
11/16/2014  10:04:00       93.705       42.153       32.897       43.995       47.041       41.001     1935.532     2212.877     1681.080        0.873        0.291      102.750       29.059        0.080      331.338       -0.712      873.216
11/16/2014  10:05:00       89.468       15.693       47.813       61.033       63.927       47.903     3725.025     4086.620     2294.701        1.032        0.505       90.834       44.235        0.237      331.428       -0.563      873.214
11/16/2014  10:06:00       95.343       66.253       70.628       95.113       72.464       62.246     9046.414     5251.046     3874.596        1.832        0.909      116.102       48.850        0.177      331.542       -0.377      873.208
11/16/2014  10:07:00      183.226       67.168       35.744       69.746       63.161       43.573     4864.490     3989.275     1898.634        2.505        0.538      195.150       29.058        0.022      331.387       -0.632      873.208
11/16/2014  10:08:00       90.165      132.167      130.144       80.881       75.104       62.844     6541.776     5640.678     3949.389        2.933        0.807      159.993       67.890        0.180      331.393       -0.622      873.212
11/16/2014  10:09:00       91.442       68.284       55.720       59.154       71.900       55.824     3499.172     5169.560     3116.327        1.395        0.589      114.124       53.906        0.223      331.419       -0.579      873.220
11/16/2014  10:10:00       64.883      104.087      113.210       69.200       61.412       42.224     4788.623     3771.446     1782.877        1.910        0.517      122.653       41.774        0.116      331.427       -0.565      873.215
11/16/2014  10:11:00      122.233       98.548       57.130       44.637       31.492       41.876     1992.474      991.768     1753.613        1.633        0.237      157.012       27.756        0.031      331.237       -0.877      873.205
11/16/2014  10:12:00      111.754       65.810       25.669       65.168       42.921       41.742     4246.857     1842.184     1742.428        1.265        0.392      129.691       20.542        0.025      331.396       -0.616      873.206
11/16/2014  10:13:00       -0.080        0.447       12.526       30.342       18.286       23.902      920.652      334.383      571.327        0.099        0.091        0.454        9.530      440.174      331.734       -0.058      873.186
11/16/2014  10:14:00       39.883       60.050       71.786       47.483       51.422       39.678     2254.628     2644.247     1574.348        0.841        0.324       72.087       32.703        0.206      331.768       -0.003      873.179
11/16/2014  10:15:00       52.933       48.596       44.812       29.567       33.660       32.790      874.222     1133.010     1075.200        0.513        0.154       71.857       27.845        0.150      331.623       -0.243      873.168
11/16/2014  10:16:00      -22.458       -2.720       19.836       22.382       34.110       19.052      500.937     1163.463      362.992        0.147        0.101       22.622       14.324        0.401      331.966        0.322      873.149
11/16/2014  10:17:00       15.076        0.707       30.868       39.586       65.075       39.705     1567.012     4234.768     1576.484        0.428        0.369       15.093       39.147        6.728      332.087        0.522      873.141
11/16/2014  10:18:00      134.944     -203.772      -32.273       77.910       67.516       35.683     6069.984     4558.452     1273.249        3.634        0.595      244.403       23.818        0.009      331.577       -0.322      873.099
11/16/2014  10:19:00       31.740       10.509       42.547       37.081       54.693       33.896     1375.018     2991.328     1148.947        0.422        0.276       33.434       33.420        0.999      331.732       -0.063      873.113
11/16/2014  10:20:00       66.566       61.610       65.744       98.118       57.339       61.011     9627.219     3287.789     3722.316        1.459        0.832       90.702       61.481        0.459      331.787        0.026      873.113
11/16/2014  10:21:00       86.330       74.956       43.735       53.564       38.085       33.707     2869.068     1450.481     1136.176        1.022        0.273      114.330       21.442        0.035      331.583       -0.308      873.121
11/16/2014  10:22:00       29.908        4.311       15.088       33.961       63.750       31.045     1153.321     4064.086      963.805        0.366        0.309       30.217       34.638        1.314      331.840        0.114      873.115
11/16/2014  10:23:00       70.423       52.655       58.633       51.899       41.475       31.792     2693.486     1720.200     1010.739        0.830        0.271       87.932       17.152        0.038      331.952        0.299      873.106
11/16/2014  10:24:00       47.459       30.480       26.823       49.770       36.887       32.218     2477.079     1360.681     1037.990        0.439        0.244       56.404       24.469        0.188      331.907        0.225      873.114
11/16/2014  10:25:00        7.529       -1.386       -8.568       40.670       24.136       19.161     1654.051      582.524      367.153        0.137        0.130        7.656       14.336        3.506      332.058        0.474      873.103
11/16/2014  10:26:00       41.323     -107.339      -17.663       55.492       71.106       40.867     3079.380     5056.111     1670.128        1.167        0.490      115.018       42.058        0.134      332.183        0.680      873.097
11/16/2014  10:27:00      141.353     -172.385      -31.511      100.623       78.418       51.919    10124.956     6149.353     2695.566        3.483        0.948      222.929       49.973        0.050      331.659       -0.187      873.081
11/16/2014  10:28:00      106.917      -91.593       -4.617       33.723       50.447       36.260     1137.232     2544.870     1314.752        1.242        0.250      140.785       20.509        0.021      331.569       -0.332      873.097
11/16/2014  10:29:00       21.761        6.164       16.870       26.164       51.533       29.081      684.572     2655.650      845.710        0.249        0.209       22.618       33.343        2.173      331.825        0.091      873.099
11/16/2014  10:30:00       25.688       18.874       33.833       20.796       23.510       22.036      432.463      552.735      485.600        0.182        0.074       31.876       15.633        0.241      332.111        0.562      873.094
11/16/2014  10:31:00        8.992       -2.050       16.414       31.485       21.435       24.368      991.329      459.466      593.789        0.120        0.102        9.223       21.075        5.222      332.470        1.154      873.084
11/16/2014  10:32:00       17.938       21.317       25.392       24.724       24.850       29.849      611.256      617.526      890.947        0.177        0.106       27.860       21.524        0.597      332.353        0.961      873.057
11/16/2014  10:33:00       56.536       22.661       39.225       39.101       28.475       28.463     1528.871      810.836      810.123        0.420        0.157       60.909       19.963        0.107      332.109        0.559      873.034
11/16/2014  10:34:00       29.344      -16.751       16.348       30.876       69.983       28.559      953.323     4897.658      815.638        0.404        0.333       33.788       39.053        1.336      332.134        0.600      873.017
11/16/2014  10:35:00      -32.348      -76.338      -15.927       38.426       41.197       22.632     1476.578     1697.193      512.227        0.541        0.184       82.909       19.831        0.057      332.255        0.800      873.011
11/16/2014  10:36:00       46.578      -64.633        5.561       59.505       62.258       33.051     3540.833     3876.091     1092.394        0.744        0.425       79.668       23.261        0.085      332.443        1.107      873.009
11/16/2014  10:37:00      -21.648       21.432       28.393       38.822       33.864       25.960     1507.109     1146.801      673.945        0.253        0.166       30.462       26.762        0.772      332.705        1.542      872.991
11/16/2014  10:38:00       12.764       23.858       53.810       25.890       43.684       29.213      670.278     1908.300      853.382        0.353        0.172       27.057       14.272        0.278      332.745        1.608      872.995
11/16/2014  10:39:00      152.285       92.652       54.657      146.288       87.975       80.098    21400.223     7739.563     6415.750        3.515        1.778      178.256       87.552        0.241      332.174        0.663      873.003
11/16/2014  10:40:00      222.303      104.715       60.265       93.689       70.369       66.687     8777.539     4951.768     4447.138        4.109        0.909      245.732       48.681        0.039      331.974        0.333      873.000
11/16/2014  10:41:00      157.738      117.566       41.396       69.507       50.421       44.973     4831.221     2542.235     2022.606        2.490        0.470      196.731       30.659        0.024      331.871        0.164      873.001
11/16/2014  10:42:00      128.354       86.932       48.402       79.439       52.570       46.163     6310.527     2763.567     2131.023        1.879        0.560      155.023       48.389        0.097      332.069        0.491      872.979
11/16/2014  10:43:00      109.834       74.211       58.686       85.808       48.669       46.198     7362.959     2368.678     2134.273        1.644        0.593      132.555       47.431        0.128      332.192        0.694      872.956
11/16/2014  10:44:00       62.223       11.626       44.439       66.323       51.147       38.273     4398.769     2616.000     1464.851        0.723        0.424       63.300       34.203        0.292      332.283        0.846      872.931
11/16/2014  10:45:00       68.420      -67.494       21.819       51.500       63.477       37.311     2652.232     4029.389     1392.080        0.889        0.404       96.108       37.415        0.152      331.949        0.295      872.915
11/16/2014  10:46:00      -11.450       -9.679       34.679       14.895       31.306       18.629      221.869      980.055      347.056        0.149        0.077       14.993       16.071        1.149      332.754        1.623      872.891
11/16/2014  10:47:00       27.621       44.158       46.502       53.026       46.362       44.302     2811.807     2149.473     1962.673        0.590        0.346       52.085       33.212        0.407      332.586        1.345      872.891
11/16/2014  10:48:00       88.945       94.822      103.814       86.375      106.930       65.546     7460.567    11434.080     4296.236        2.543        1.160      130.009       71.832        0.305      332.238        0.770      872.868
11/16/2014  10:49:00      113.392      133.963      125.851       74.244       73.559       60.959     5512.183     5410.908     3716.010        3.064        0.732      175.510       46.984        0.072      332.037        0.436      872.853
11/16/2014  10:50:00       93.811       92.702       64.886       83.127       68.748       70.176     6910.074     4726.252     4924.724        1.908        0.828      131.887       60.833        0.213      332.358        0.967      872.845
11/16/2014  10:51:00       98.949      100.665      115.409       54.813       56.998       40.088     3004.411     3248.817     1607.039        2.055        0.393      141.153       34.477        0.060      332.066        0.487      872.855
11/16/2014  10:52:00      113.397       73.192       51.373       40.624       35.710       31.870     1650.315     1275.237     1015.698        1.240        0.197      134.967       22.719        0.028      331.916        0.240      872.849
11/16/2014  10:53:00       37.788       54.644        0.215       26.306       32.512       28.543      691.986     1057.049      814.707        0.349        0.128       66.438       21.260        0.102      332.143        0.614      872.834
11/16/2014  10:54:00       39.385       93.628       85.049       57.934       60.634       48.440     3356.307     3676.515     2346.420        1.346        0.469      101.574       49.612        0.239      332.351        0.957      872.825
11/16/2014  10:55:00      150.555      125.641       58.193      119.580       55.461       56.495    14299.345     3075.887     3191.681        3.120        1.028      196.093       60.784        0.096      332.177        0.669      872.806
11/16/2014  10:56:00       99.415      127.715      -10.060       97.829       55.802       52.131     9570.595     3113.825     2717.625        2.085        0.770      161.847       37.011        0.052      332.114        0.565      872.789
11/16/2014  10:57:00       39.153       35.976       15.087       38.711       45.706       40.294     1498.563     2089.011     1623.584        0.413        0.261       53.172       24.178        0.207      332.390        1.020      872.759
11/16/2014  10:58:00       41.910       48.429        9.283       44.038       35.630       32.357     1939.334     1269.521     1046.992        0.422        0.213       64.045       19.869        0.096      332.290        0.857      872.740
11/16/2014  10:59:00       74.421       12.361       27.224       61.037       50.327       37.370     3725.490     2532.799     1396.536        0.704        0.383       75.441       28.374        0.141      332.501        1.204      872.720
11/16/2014  11:00:00       31.787       38.659       50.682       37.544       30.293       20.048     1409.564      917.685      401.932        0.390        0.136       50.049       16.643        0.111      332.771        1.651      872.714
11/16/2014  11:01:00        5.118       55.542       63.327       27.908       35.885       29.015      778.874     1287.741      841.885        0.501        0.145       55.777       20.431        0.134      333.105        2.203      872.693
11/16/2014  11:02:00       32.316       36.316       80.609       48.764       50.803       46.353     2377.942     2580.913     2148.569        0.798        0.355       48.613       42.741        0.773      332.473        1.159      872.686
11/16/2014  11:03:00       28.360       39.708       12.069       42.569       75.280       39.312     1812.109     5667.044     1545.397        0.577        0.451       48.795       45.943        0.887      332.558        1.299      872.638
11/16/2014  11:04:00      222.322      115.112       71.485      126.029      121.379       87.386    15883.348    14732.932     7636.390        5.301        1.913      250.355       45.602        0.033      332.626        1.408      872.591
11/16/2014  11:05:00      200.599      154.461      128.128      122.204      103.180       97.547    14933.799    10646.018     9515.478        5.780        1.755      253.177       79.814        0.099      332.224        0.744      872.603
11/16/2014  11:06:00      214.713      147.550       71.202       82.656       73.000       71.225     6831.977     5329.000     5073.006        4.508        0.862      260.524       49.479        0.036      332.151        0.623      872.607
11/16/2014  11:07:00      150.215      112.434       13.627       82.484       76.063       63.427     6803.638     5785.648     4022.977        2.600        0.831      187.632       46.553        0.062      332.347        0.948      872.600
11/16/2014  11:08:00      136.697      105.510       26.183       67.719       60.702       59.867     4585.838     3684.777     3584.022        2.118        0.593      172.681       41.494        0.058      332.235        0.762      872.589
11/16/2014  11:09:00       62.288      -15.176        4.396       59.093       93.267       44.031     3491.972     8698.673     1938.738        0.913        0.706       64.110       17.721        0.076      332.482        1.172      872.570
11/16/2014  11:10:00       11.785      -62.467       -6.506       41.197       49.806       34.208     1697.230     2480.658     1170.186        0.471        0.267       63.569       30.650        0.232      332.469        1.152      872.552
11/16/2014  11:11:00      -82.511        0.543        6.646       46.504       54.402       30.447     2162.614     2959.556      926.992        0.645        0.302       82.513       23.265        0.080      332.717        1.561      872.515
11/16/2014  11:12:00        8.358      -27.165        8.564       38.544       34.458       28.507     1485.672     1187.380      812.656        0.218        0.174       28.422       22.282        0.615      332.774        1.655      872.490
11/16/2014  11:13:00        1.898      -75.790        8.133       45.612       54.204       33.825     2080.473     2938.110     1144.130        0.599        0.308       75.814       18.692        0.061      332.873        1.819      872.466
11/16/2014  11:14:00       45.660       23.395       55.581       57.819       58.188       47.224     3342.982     3385.900     2230.074        0.734        0.448       51.305       49.766        0.941      332.787        1.676      872.440
11/16/2014  11:15:00       -2.998       -9.880       21.426       54.197       31.912       25.990     2937.263     1018.359      675.504        0.260        0.232       10.325       27.067        6.872      332.937        1.923      872.421
11/16/2014  11:16:00       -2.974      -61.393      -11.433       23.376       50.769       26.360      546.458     2577.538      694.866        0.386        0.191       61.465       12.830        0.044      332.847        1.777      872.416
11/16/2014  11:17:00       59.028       52.151       43.638       55.615       44.831       43.145     3092.984     2009.814     1861.530        0.753        0.348       78.766       23.285        0.087      333.227        2.403      872.420
11/16/2014  11:18:00       72.269       57.204       47.775       67.839       73.584       55.038     4602.109     5414.571     3029.200        1.191        0.652       92.169       47.447        0.265      332.944        1.936      872.398
11/16/2014  11:19:00      141.944       82.855       31.435       63.124       43.283       44.974     3984.701     1873.439     2022.623        1.794        0.394      164.356       23.716        0.021      332.707        1.544      872.369
11/16/2014  11:20:00      197.444      129.070       17.412       79.638       46.144       53.859     6342.136     2129.291     2900.798        3.366        0.569      235.889        4.774        0.000      332.555        1.290      872.356
11/16/2014  11:21:00       76.522       63.054       60.733       85.612       69.338       54.537     7329.335     4807.738     2974.256        1.431        0.756       99.153       37.640        0.144      332.998        2.024      872.321
11/16/2014  11:22:00      141.882       40.264       96.603       81.944       73.849       57.610     6714.762     5453.720     3318.932        2.328        0.774      147.485       53.989        0.134      332.854        1.786      872.305
11/16/2014  11:23:00       66.890      136.794      135.802       83.964       85.591       86.812     7049.916     7325.858     7536.252        3.177        1.096      152.272       78.656        0.267      332.810        1.712      872.282
11/16/2014  11:24:00      101.074      -54.565       25.910       62.952       53.178       44.192     3962.988     2827.936     1952.922        1.130        0.437      114.862       43.283        0.142      332.670        1.484      872.277
11/16/2014  11:25:00       52.738      -68.654       -7.908       46.766       41.889       20.309     2187.047     1754.695      412.453        0.595        0.218       86.571       14.792        0.029      332.794        1.690      872.264
11/16/2014  11:26:00       41.154      -57.691       35.901       44.933       69.148       40.856     2018.970     4781.462     1669.204        0.739        0.423       70.866       44.898        0.401      333.052        2.114      872.250
11/16/2014  11:27:00       37.552      -34.602       60.068       51.739       67.393       54.914     2676.968     4541.825     3015.564        0.822        0.512       51.064       40.110        0.617      333.140        2.260      872.247
11/16/2014  11:28:00       59.348       -3.676       62.458       68.719       97.597       68.692     4722.266     9525.264     4718.625        1.320        0.948       59.461       71.700        1.454      333.035        2.086      872.236
11/16/2014  11:29:00       92.134      -18.322       36.477       67.114       92.714       55.490     4504.354     8595.954     3079.162        1.316        0.809       93.938       69.453        0.547      332.660        1.465      872.242
11/16/2014  11:30:00      135.876      -58.502       33.964       80.662       89.401       59.366     6506.393     7992.547     3524.316        2.053        0.901      147.935       65.058        0.193      332.962        1.964      872.216
11/16/2014  11:31:00      155.468     -210.632      -37.555       65.656       73.997       37.628     4310.722     5475.544     1415.881        4.057        0.560      261.794       36.110        0.019      332.849        1.775      872.206
11/16/2014  11:32:00      201.626     -206.699      -50.134       39.173       51.519       29.381     1534.523     2654.255      863.251        4.547        0.253      288.751       11.077        0.001      332.450        1.116      872.188
11/16/2014  11:33:00       92.602      -41.969       45.421       88.868      121.331       61.946     7897.527    14721.285     3837.339        1.942        1.323      101.669       88.342        0.755      332.755        1.623      872.173
11/16/2014  11:34:00       42.901       22.441       40.167       38.407       56.339       31.123     1475.112     3174.033      968.669        0.479        0.281       48.416       32.091        0.439      332.772        1.653      872.147
11/16/2014  11:35:00        0.930      -24.379       13.887       49.421       65.858       34.292     2442.420     4337.254     1175.951        0.437        0.398       24.397       35.168        2.078      333.267        2.469      872.117
11/16/2014  11:36:00      -46.628       -2.763        5.825       48.166       41.976       35.847     2319.959     1761.967     1285.034        0.379        0.268       46.710       31.507        0.455      333.226        2.403      872.078
11/16/2014  11:37:00      -34.391        9.127       14.793       43.487       33.878       23.433     1891.132     1147.710      549.108        0.254        0.179       35.581       17.129        0.232      333.306        2.534      872.046
11/16/2014  11:38:00        6.569      -61.907      -10.892       46.129       52.790       35.325     2127.861     2786.823     1247.837        0.508        0.308       62.254       20.017        0.103      333.191        2.346      872.016
11/16/2014  11:39:00      -55.511      -41.239      -22.102       39.761       42.664       33.577     1580.952     1820.254     1127.415        0.490        0.226       69.153       27.630        0.160      332.754        1.625      871.984
11/16/2014  11:40:00       32.517      -73.162       17.587       98.264       91.742       49.951     9655.744     8416.572     2495.094        1.364        1.028       80.063       30.580        0.146      333.336        2.583      871.965
11/16/2014  11:41:00       44.436       46.913      101.536       82.746       97.203       61.108     6846.829     9448.513     3734.193        1.725        1.001       64.617       70.189        1.180      333.265        2.468      871.953
11/16/2014  11:42:00       76.790     -100.981       -0.800       49.096       63.452       37.153     2410.407     4026.099     1380.345        1.195        0.391      126.861       29.800        0.055      333.046        2.104      871.940
11/16/2014  11:43:00       16.057      -17.602       15.295       48.939       61.116       43.314     2395.070     3735.218     1876.131        0.440        0.400       23.825       48.028        4.064      333.367        2.635      871.912
11/16/2014  11:44:00       39.475       23.771       40.161       56.271       30.011       19.905     3166.410      900.632      396.214        0.410        0.223       46.079       10.364        0.051      333.442        2.760      871.883
11/16/2014  11:45:00       70.955       54.449       37.121       36.945       34.372       21.807     1364.953     1181.447      475.548        0.620        0.151       89.439       11.638        0.017      333.053        2.115      871.864
11/16/2014  11:46:00      245.340      154.008       35.724      118.200       92.980       53.683    13971.153     8645.243     2881.848        5.534        1.275      289.672       34.743        0.014      332.822        1.733      871.835
11/16/2014  11:47:00       96.416      113.582      105.641      120.005      101.005       91.034    14401.083    10202.038     8287.179        3.312        1.645      148.986       75.797        0.259      333.286        2.498      871.780
11/16/2014  11:48:00      101.626      146.575      145.070      106.316       89.271       87.474    11303.123     7969.391     7651.774        3.989        1.346      178.359       92.039        0.266      332.866        1.804      871.811
11/16/2014  11:49:00      116.190      125.434      111.424      101.846       56.308       62.909    10372.706     3170.587     3957.541        2.957        0.875      170.978       63.599        0.138      332.771        1.648      871.815
11/16/2014  11:50:00       81.551       32.547       61.607       63.238      107.431       62.164     3999.073    11541.356     3864.415        1.545        0.970       87.805       76.427        0.758      332.852        1.783      871.817
11/16/2014  11:51:00       61.293      -84.396       -4.581       53.401       48.758       28.446     2851.687     2377.323      809.176        0.847        0.302      104.305       27.765        0.071      332.742        1.604      871.806
11/16/2014  11:52:00       -9.663       43.740       57.215       20.810       24.350       23.257      433.077      592.916      540.897        0.342        0.078       44.795       15.302        0.117      333.482        2.826      871.775
11/16/2014  11:53:00       31.865     -103.137      -17.483       51.590       62.665       37.272     2661.488     3926.953     1389.198        0.997        0.399      107.948       39.456        0.134      333.355        2.615      871.763
11/16/2014  11:54:00       18.917      -29.533       24.525       40.463       47.273       35.856     1637.232     2234.735     1285.657        0.349        0.258       35.072       26.591        0.575      333.389        2.673      871.736
11/16/2014  11:55:00       -9.486        8.876       25.071       18.006       24.788       15.936      324.201      614.456      253.961        0.099        0.060       12.991        9.823        0.572      333.758        3.281      871.738
11/16/2014  11:56:00       -0.259      -74.010      -18.309       80.319       49.301       33.408     6451.074     2430.612     1116.119        0.790        0.500       74.011       32.396        0.192      333.201        2.361      871.726
11/16/2014  11:57:00       46.227      -99.692       -7.996       39.919       28.892       26.581     1593.556      834.761      706.573        0.764        0.157      109.888       23.811        0.047      333.212        2.378      871.731
11/16/2014  11:58:00       84.825      -52.283       31.007       45.478       67.763       43.513     2068.284     4591.841     1893.401        0.972        0.428       99.643       46.450        0.217      333.236        2.419      871.720
11/16/2014  11:59:00       78.350       46.330       78.574       84.427       74.912       60.566     7127.986     5611.756     3668.260        1.543        0.820       91.023       36.142        0.158      333.564        2.962      871.703
11/16/2014  12:00:00       69.604       86.661      114.257       82.351       83.295       62.079     6781.665     6938.059     3853.785        2.149        0.879      111.152       61.756        0.309      333.234        2.414      871.710
11/16/2014  12:01:00       39.853       -2.377       43.465       64.201       63.495       45.828     4121.727     4031.657     2100.225        0.687        0.513       39.924       46.352        1.348      333.156        2.286      871.716
11/16/2014  12:02:00      -15.732      -58.221       11.629       31.660       32.383       28.836     1002.380     1048.629      831.543        0.333        0.144       60.309       13.336        0.049      333.555        2.947      871.693
11/16/2014  12:03:00       30.378      -13.393       26.355       47.933       38.935       36.806     2297.553     1515.921     1354.675        0.348        0.258       33.199       23.805        0.514      333.302        2.528      871.691
11/16/2014  12:04:00       11.807      -31.652       -6.283       34.401       33.180       26.729     1183.428     1100.895      714.417        0.209        0.150       33.783       16.459        0.237      333.235        2.417      871.679
11/16/2014  12:05:00       38.038       -4.702        9.984       37.238       28.849       18.915     1386.651      832.251      357.784        0.207        0.129       38.327       14.515        0.143      333.434        2.747      871.664
11/16/2014  12:06:00       50.895       48.198       13.398       46.966       47.945       43.878     2205.813     2298.763     1925.317        0.576        0.321       70.096       28.465        0.165      333.487        2.833      871.658
11/16/2014  12:07:00       65.680       23.845       49.781       81.807       65.352       50.308     6692.316     4270.844     2530.919        1.042        0.675       69.875       42.512        0.370      333.675        3.146      871.638
11/16/2014  12:08:00      119.614       89.680      105.518       97.932      115.698       85.575     9590.675    13386.133     7323.156        3.189        1.515      149.499       81.043        0.294      333.341        2.591      871.630
11/16/2014  12:09:00       61.402       54.082       41.298       62.652       51.851       60.207     3925.254     2688.563     3624.866        0.932        0.512       81.823       18.301        0.050      333.362        2.627      871.640
11/16/2014  12:10:00       70.337       78.469        9.312       59.816       44.492       42.578     3577.942     1979.560     1812.901        0.928        0.369      105.379       36.248        0.118      333.260        2.457      871.644
11/16/2014  12:11:00       24.520       66.108       -3.290       54.475       54.041       38.469     2967.560     2920.408     1479.880        0.617        0.368       70.509       30.205        0.184      333.249        2.441      871.633
11/16/2014  12:12:00      -16.198       21.205        6.212       37.269       21.518       25.501     1388.974      463.009      650.307        0.163        0.125       26.684       18.502        0.481      333.754        3.276      871.615
11/16/2014  12:13:00       39.840       29.492       22.709       68.921       45.998       29.733     4750.042     2115.846      884.068        0.536        0.387       49.568       19.293        0.152      333.800        3.353      871.604
11/16/2014  12:14:00       75.727     -109.340       -1.789       69.191      109.133       42.014     4787.328    11910.054     1765.194        1.807        0.923      133.003       45.558        0.117      333.561        2.957      871.596
11/16/2014  12:15:00      100.127     -177.881       -6.599       50.514       46.129       37.324     2551.695     2127.854     1393.115        2.389        0.304      204.125       27.023        0.018      333.392        2.675      871.590
11/16/2014  12:16:00       88.171      -46.893        8.210       63.153       82.190       60.994     3988.274     6755.229     3720.256        1.225        0.723       99.866       69.891        0.490      333.470        2.804      871.574
11/16/2014  12:17:00       33.784      -66.024       12.982       34.664       59.990       31.401     1201.622     3598.810      986.004        0.573        0.289       74.166       34.145        0.212      333.583        2.994      871.550
11/16/2014  12:18:00       15.190      -49.800       -2.930       56.260       53.871       24.381     3165.157     2902.036      594.455        0.469        0.333       52.065       28.694        0.304      333.785        3.328      871.540
11/16/2014  12:19:00       51.470      -76.288       29.318       49.049       78.839       49.030     2405.804     6215.562     2403.897        1.017        0.551       92.027       40.280        0.192      333.778        3.317      871.512
11/16/2014  12:20:00       80.295       12.852       85.715      106.815      162.403       70.670    11409.445    26374.827     4994.216        2.836        2.139       81.317       82.409        1.027      333.911        3.535      871.472
11/16/2014  12:21:00       50.560       57.772       87.492       71.081       96.320       58.638     5052.453     9277.558     3438.398        1.565        0.888       76.772       55.812        0.529      333.887        3.497      871.491
11/16/2014  12:22:00       50.292        8.775       59.302       60.531       94.204       61.135     3663.999     8874.451     3737.515        1.120        0.814       51.052       70.690        1.917      333.652        3.106      871.476
11/16/2014  12:23:00       86.936       -7.167       47.666       48.834       70.134       47.303     2384.726     4918.792     2237.609        0.971        0.477       87.231       53.471        0.376      333.506        2.865      871.471
11/16/2014  12:24:00       59.552       52.791       34.099       37.547       32.392       37.606     1409.767     1049.250     1414.212        0.568        0.194       79.582       25.498        0.103      333.266        2.469      871.446
11/16/2014  12:25:00       -5.144       17.463      -11.664       26.076       14.750       18.040      679.943      217.574      325.429        0.084        0.061       18.205        9.690        0.283      333.308        2.539      871.414
11/16/2014  12:26:00       97.853      -70.462       18.024       77.629       73.184       39.266     6026.210     5355.839     1541.855        1.389        0.646      120.583       45.623        0.143      333.658        3.116      871.388
11/16/2014  12:27:00       73.573       13.520       36.906       54.727       77.515       36.431     2995.026     6008.631     1327.232        0.864        0.517       74.805       44.873        0.360      333.536        2.915      871.380
11/16/2014  12:28:00       44.046      -67.689       -0.067       38.900       68.457       43.597     1513.174     4686.343     1900.739        0.731        0.405       80.758       49.740        0.379      333.573        2.976      871.363
11/16/2014  12:29:00      -44.273      -18.674       10.914       52.234       51.497       33.214     2728.426     2651.991     1103.192        0.445        0.324       48.050       36.135        0.566      333.708        3.200      871.322
11/16/2014  12:30:00     -104.216      -35.981       -4.749       34.953       34.085       21.144     1221.696     1161.815      447.059        0.750        0.142      110.253       14.578        0.017      333.622        3.058      871.305
11/16/2014  12:31:00      -40.845       28.174       20.650       41.688       29.118       26.012     1737.894      847.840      676.632        0.307        0.163       49.619       15.556        0.098      333.879        3.484      871.287
11/16/2014  12:32:00        4.948      171.432      -27.781       38.474       97.541       37.238     1480.267     9514.293     1386.635        2.128        0.619      171.504       53.434        0.097      333.601        3.021      871.272
11/16/2014  12:33:00      120.935      111.454        5.458      103.875       74.746       54.883    10789.947     5587.029     3012.192        2.323        0.969      164.460       51.872        0.099      333.498        2.851      871.246
11/16/2014  12:34:00       75.722       88.203        4.460       58.259       41.845       35.151     3394.061     1751.022     1235.592        0.996        0.319      116.248       30.961        0.071      333.564        2.961      871.247
11/16/2014  12:35:00      144.298       80.587       62.590       94.226       64.134       55.938     8878.545     4113.173     3129.115        2.367        0.806      165.276       39.278        0.056      333.735        3.242      871.227
11/16/2014  12:36:00      165.391      105.068       35.369       74.678       54.185       55.743     5576.830     2936.011     3107.258        2.563        0.581      195.942       37.475        0.037      333.661        3.121      871.235
11/16/2014  12:37:00      190.204      152.566       13.653       51.298       40.028       45.125     2631.514     1602.226     2036.233        3.295        0.313      243.832       17.019        0.005      333.582        2.986      871.228
11/16/2014  12:38:00      171.870       97.324       13.470       43.267       40.351       30.180     1872.062     1628.179      910.818        2.180        0.221      197.512       21.866        0.012      333.387        2.665      871.246
11/16/2014  12:39:00      150.941      106.783       28.521       35.757       36.454       31.098     1278.598     1328.888      967.080        1.929        0.179      184.894       19.163        0.011      333.566        2.963      871.222
11/16/2014  12:40:00      117.224       92.821       48.890      115.647       79.521       65.116    13374.331     6323.583     4240.072        2.434        1.197      149.523       54.598        0.133      334.091        3.834      871.201
11/16/2014  12:41:00      125.889      111.117      147.937      150.959      121.589      114.445    22788.550    14783.865    13097.636        5.037        2.534      167.914      124.716        0.552      333.933        3.572      871.167
11/16/2014  12:42:00      173.583      141.896       74.564      124.612       95.945      103.559    15528.062     9205.422    10724.394        4.563        1.773      224.200       86.937        0.150      333.863        3.455      871.184
11/16/2014  12:43:00      194.352      135.486      103.693      106.338       77.026       87.253    11307.711     5932.998     7613.151        4.586        1.243      236.916       68.816        0.084      333.720        3.215      871.195
11/16/2014  12:44:00       79.505       68.151       65.882       61.020       79.297       52.789     3723.485     6287.980     2786.669        1.405        0.640      104.717       53.910        0.265      333.772        3.305      871.202
11/16/2014  12:45:00       44.611       48.422       74.658       41.669       76.055       46.571     1736.281     5784.323     2168.824        0.980        0.484       65.839       54.420        0.683      333.870        3.467      871.174
11/16/2014  12:46:00       77.008       13.183       30.191       55.750       92.085       37.688     3108.008     8479.607     1420.408        1.001        0.650       78.128       29.641        0.144      333.793        3.341      871.147
11/16/2014  12:47:00       71.787       48.532       46.064       69.905       49.749       37.879     4886.657     2474.972     1434.797        0.921        0.440       86.653       19.825        0.052      334.205        4.024      871.125
11/16/2014  12:48:00      147.745       34.387       60.405      108.222       81.723       62.868    11712.018     6678.681     3952.432        2.450        1.117      151.694       58.606        0.149      334.095        3.839      871.118
11/16/2014  12:49:00       65.752       67.105       89.353       98.580       94.112       65.409     9718.039     8856.991     4278.386        1.983        1.143       93.949       65.486        0.486      334.127        3.893      871.117
11/16/2014  12:50:00      119.720       39.875       83.482       70.756      116.305       83.411     5006.372    13526.790     6957.353        2.419        1.275      126.185       85.894        0.463      333.986        3.659      871.117
11/16/2014  12:51:00      169.885       89.164       51.217       95.391       77.949       73.215     9099.369     6076.036     5360.379        2.998        1.027      191.862       61.695        0.103      333.916        3.541      871.102
11/16/2014  12:52:00      105.081       72.236       41.232       67.150       54.876       40.226     4509.101     3011.395     1618.121        1.355        0.457      127.515       32.740        0.066      333.728        3.233      871.095
11/16/2014  12:53:00       47.957      -75.209        2.527       37.965       72.334       34.493     1441.311     5232.164     1189.759        0.791        0.393       89.198       30.182        0.114      334.117        3.879      871.070
11/16/2014  12:54:00       87.088       77.678       27.463       58.286       60.026       84.841     3397.264     3603.096     7198.036        1.428        0.710      116.697       53.197        0.208      334.175        3.974      871.068
11/16/2014  12:55:00      158.025      141.818      105.755      132.842       80.975       91.740    17646.904     6557.029     8416.248        4.444        1.631      212.330       84.550        0.159      333.885        3.489      871.038
11/16/2014  12:56:00      164.013      147.774      106.130      111.360       82.380       76.638    12401.052     6786.425     5873.309        4.253        1.253      220.766       65.542        0.088      334.030        3.730      871.027
11/16/2014  12:57:00      173.857      116.602       54.766       77.019       59.543       51.892     5931.856     3545.418     2692.804        2.949        0.609      209.338       41.361        0.039      333.948        3.594      871.039
11/16/2014  12:58:00       49.426        9.346       50.785       52.301       39.039       36.789     2735.412     1524.051     1353.428        0.536        0.281       50.302       28.187        0.314      334.079        3.815      871.038
11/16/2014  12:59:00       24.098       53.432       16.282       42.869       44.010       38.721     1837.731     1936.906     1499.349        0.449        0.264       58.615       22.147        0.143      334.337        4.243      871.013
11/16/2014  13:00:00       90.924       70.558       69.033      103.236       84.721       52.422    10657.576     7177.618     2748.061        1.929        1.029      115.089       42.687        0.138      334.305        4.189      870.994
11/16/2014  13:01:00       62.664       66.646       91.129       62.769      110.600       67.095     3939.929    12232.323     4501.675        1.867        1.034       91.479       76.976        0.708      334.089        3.828      870.976
11/16/2014  13:02:00       88.138      101.783       78.610       81.478       54.208       60.105     6638.701     2938.532     3612.653        1.875        0.659      134.641       42.651        0.100      334.135        3.906      870.955
11/16/2014  13:03:00       67.167       24.434       20.936       45.176       34.493       34.838     2040.844     1189.765     1213.667        0.499        0.222       71.473       13.865        0.038      334.121        3.886      870.926
11/16/2014  13:04:00       83.259       37.545       60.136       61.753       96.220       59.011     3813.461     9258.306     3482.321        1.425        0.828       91.333       69.317        0.576      334.080        3.816      870.894
11/16/2014  13:05:00       14.180       19.600       53.883       37.527       84.799       44.129     1408.296     7190.901     1947.377        0.702        0.527       24.191       50.355        4.333      334.490        4.498      870.862
11/16/2014  13:06:00      101.379       48.712       32.616       75.721       49.525       41.035     5733.661     2452.697     1683.879        1.179        0.494      112.475       31.964        0.081      334.347        4.261      870.847
11/16/2014  13:07:00      139.770       87.067       26.146       52.300       48.160       38.127     2735.248     2319.354     1453.664        1.715        0.325      164.670       19.799        0.014      334.051        3.770      870.822
11/16/2014  13:08:00      106.964       76.662       63.043       82.362       85.433       44.424     6783.490     7298.817     1973.529        1.867        0.803      131.599       26.436        0.040      334.235        4.072      870.805
11/16/2014  13:09:00       63.597      -40.480       34.233       57.496       91.405       69.290     3305.733     8354.914     4801.053        1.166        0.823       75.387       75.088        0.992      334.628        4.727      870.800
11/16/2014  13:10:00      121.885      116.835       58.537      121.178       72.664       67.706    14684.109     5280.034     4584.152        2.824        1.227      168.838       69.644        0.170      334.346        4.256      870.788
11/16/2014  13:11:00      185.553      135.448       28.007       57.246       52.718       48.412     3277.059     2779.154     2343.702        3.098        0.420      229.731       31.610        0.019      334.186        3.988      870.793
11/16/2014  13:12:00      127.906      119.332       18.806       73.954       46.624       53.622     5469.188     2173.766     2875.285        2.073        0.526      174.928       41.388        0.056      334.280        4.147      870.790
11/16/2014  13:13:00       94.605       77.995       -3.958       55.463       45.483       43.761     3076.105     2068.690     1915.030        1.105        0.353      122.611       14.914        0.015      334.167        3.960      870.781
11/16/2014  13:14:00      -26.265       42.545      -29.596       48.668       45.484       24.664     2368.565     2068.794      608.306        0.421        0.252       49.999       15.180        0.092      334.196        4.008      870.748
11/16/2014  13:15:00       47.520       23.015       26.213       35.527       17.494       18.125     1262.151      306.033      328.530        0.269        0.095       52.800       11.957        0.051      334.276        4.142      870.733
11/16/2014  13:16:00      119.102       39.708       20.018       50.597       43.066       42.578     2560.018     1854.715     1812.880        1.119        0.311      125.547       27.665        0.049      334.308        4.195      870.717
11/16/2014  13:17:00       33.054       74.519       13.475       60.214       77.028       46.267     3625.738     5933.250     2140.641        0.926        0.585       81.521       40.780        0.250      334.564        4.619      870.688
11/16/2014  13:18:00       28.957      103.254        0.292       41.112       61.832       36.445     1690.235     3823.143     1328.212        0.917        0.342      107.237       40.246        0.141      334.352        4.267      870.694
11/16/2014  13:19:00       82.138       74.988       18.774       37.582       32.726       40.713     1412.394     1071.008     1657.513        0.843        0.207      111.220       22.525        0.041      334.236        4.075      870.692
11/16/2014  13:20:00      111.861      139.811      118.262       85.114       69.037       66.405     7244.352     4766.125     4409.581        3.123        0.821      179.053       44.633        0.062      334.284        4.151      870.685
11/16/2014  13:21:00      119.302       88.356       35.001       57.875       46.608       33.461     3349.528     2172.329     1119.662        1.495        0.332      148.458       38.095        0.066      333.999        3.682      870.683
11/16/2014  13:22:00       61.180       42.796       74.605       47.019       69.968       53.031     2210.809     4895.495     2812.289        1.053        0.496       74.663       54.607        0.535      334.354        4.271      870.666
11/16/2014  13:23:00       49.849      -93.555      -10.480       49.896       74.536       34.376     2489.577     5555.651     1181.692        1.029        0.461      106.007       18.692        0.031      334.391        4.333      870.645
11/16/2014  13:24:00       44.639      -64.676        8.407       53.118       64.903       48.979     2821.527     4212.408     2398.898        0.784        0.472       78.585       50.386        0.411      334.468        4.461      870.635
11/16/2014  13:25:00       32.061      -72.532        6.996       51.908       83.987       41.833     2694.405     7053.752     1750.035        0.892        0.575       79.301       32.777        0.171      334.581        4.646      870.604
11/16/2014  13:26:00       83.021      -25.581       30.482       48.973       39.987       34.362     2398.378     1598.928     1180.772        0.683        0.259       86.873       30.316        0.122      334.369        4.296      870.579
11/16/2014  13:27:00      114.915     -118.870      -17.363       83.499       79.887       43.675     6972.049     6381.889     1907.478        2.145        0.763      165.335       52.387        0.100      334.391        4.330      870.538
11/16/2014  13:28:00      109.858     -167.072      -16.854       53.851       48.315       25.521     2899.925     2334.294      651.330        2.307        0.294      199.955       13.532        0.005      334.133        3.901      870.525
11/16/2014  13:29:00       27.844      -25.562       18.586       59.258       61.721       28.304     3511.560     3809.508      801.093        0.495        0.406       37.798       33.749        0.797      334.645        4.755      870.494
11/16/2014  13:30:00      -11.515      -36.564        8.804       24.992       33.935       28.642      624.619     1151.594      820.390        0.207        0.130       38.334       18.403        0.230      334.889        5.159      870.460
11/16/2014  13:31:00      -36.914       16.448       -4.386       27.911       28.270       22.579      779.009      799.176      509.796        0.187        0.104       40.412       19.494        0.233      334.958        5.274      870.443
11/16/2014  13:32:00       25.143        1.601       24.107       46.184       59.110       38.940     2132.979     3494.045     1516.318        0.418        0.357       25.194       15.994        0.403      334.897        5.173      870.424
11/16/2014  13:33:00       14.643       14.834       39.170       28.621       46.335       21.010      819.166     2146.945      441.405        0.269        0.170       20.843        8.774        0.177      334.915        5.202      870.408
11/16/2014  13:34:00       56.917       67.272       48.579       38.346       37.948       28.801     1470.405     1440.058      829.494        0.693        0.187       88.120       15.207        0.030      334.857        5.106      870.408
11/16/2014  13:35:00      137.459       92.754       25.163       85.470       56.048       43.942     7305.178     3141.406     1930.913        2.025        0.619      165.826       26.593        0.026      334.607        4.689      870.393
11/16/2014  13:36:00      145.405       97.701       14.897       62.952       46.094       50.310     3963.001     2124.631     2531.061        1.976        0.431      175.180       26.736        0.023      334.300        4.179      870.380
11/16/2014  13:37:00       89.917       74.358        8.012       61.550       43.162       47.669     3788.358     1862.947     2272.303        1.080        0.396      116.679       20.378        0.031      334.317        4.210      870.363
11/16/2014  13:38:00       96.283       43.850       34.543       68.522       52.108       43.458     4695.207     2715.222     1888.633        1.084        0.465      105.798       28.908        0.075      334.531        4.564      870.355
11/16/2014  13:39:00      119.306       78.451       15.300       53.097       50.517       40.643     2819.259     2551.986     1651.856        1.382        0.351      142.788       28.979        0.041      334.372        4.300      870.354
11/16/2014  13:40:00       85.882       71.856       -1.975       50.163       58.768       36.330     2516.323     3453.674     1319.878        0.991        0.364      111.977       30.114        0.072      334.358        4.278      870.359
11/16/2014  13:41:00       49.308       53.064       18.809       41.851       37.414       35.366     1751.504     1399.771     1250.722        0.500        0.220       72.436       23.158        0.102      334.497        4.508      870.362
11/16/2014  13:42:00       78.017       39.007      -10.201       39.476       36.581       24.047     1558.374     1338.177      578.280        0.559        0.174       87.225        3.478        0.002      334.459        4.446      870.365
11/16/2014  13:43:00       54.975       69.882        3.353       36.491       42.880       30.041     1331.585     1838.685      902.467        0.599        0.204       88.915       26.740        0.090      334.493        4.503      870.359
11/16/2014  13:44:00      123.059       93.279       15.412       48.143       41.244       34.334     2317.746     1701.037     1178.845        1.464        0.260      154.417       20.469        0.018      334.471        4.465      870.345
11/16/2014  13:45:00       93.227       57.112        3.982       27.662       27.095       23.643      765.214      734.121      558.984        0.701        0.103      109.330       18.442        0.028      334.338        4.246      870.334
11/16/2014  13:46:00       71.229        5.138        8.175       42.369       50.444       26.242     1795.173     2544.558      688.625        0.510        0.251       71.414       17.511        0.060      334.377        4.311      870.321
11/16/2014  13:47:00       -6.838       65.642      -20.098       31.483       32.714       16.618      991.190     1070.234      276.147        0.355        0.117       65.997       12.795        0.038      334.397        4.343      870.300
11/16/2014  13:48:00      -67.735       54.484        2.595       59.541       31.327       29.276     3545.173      981.374      857.063        0.647        0.269       86.928       35.600        0.168      334.480        4.481      870.267
11/16/2014  13:49:00       25.841       12.160       18.220       30.863       28.004       22.499      952.553      784.217      506.213        0.169        0.112       28.559       16.429        0.331      334.912        5.197      870.251
11/16/2014  13:50:00       67.788       31.513       25.891       33.185       45.658       28.003     1101.270     2084.674      784.194        0.511        0.199       74.754       19.772        0.070      334.670        4.796      870.240
11/16/2014  13:51:00       56.298       12.606       33.669       34.142       34.568       26.525     1165.661     1194.970      703.567        0.376        0.153       57.692       23.134        0.161      334.676        4.806      870.219
11/16/2014  13:52:00       67.019       96.319       78.413       85.469       56.634       74.589     7304.941     3207.387     5563.564        1.799        0.804      117.341       72.931        0.386      334.766        4.954      870.184
11/16/2014  13:53:00      182.983       73.777       50.906       97.191      102.921       60.910     9445.994    10592.637     3710.077        3.263        1.187      197.297       58.630        0.088      334.640        4.745      870.155
11/16/2014  13:54:00      126.171       49.330       38.720       87.790       87.962       53.736     7707.039     7737.333     2887.571        1.909        0.917      135.472       55.413        0.167      334.719        4.875      870.122
11/16/2014  13:55:00      160.736       94.127       36.326       68.257       66.390       54.603     4658.987     4407.690     2981.489        2.403        0.602      186.268       42.506        0.052      334.668        4.790      870.102
11/16/2014  13:56:00       46.003       76.841      125.855       78.608       77.797       47.042     6179.194     6052.330     2212.914        1.915        0.722       89.559       39.617        0.196      335.000        5.344      870.089
11/16/2014  13:57:00       81.333      113.822      134.912       92.912       65.328       51.949     8632.671     4267.769     2698.741        2.668        0.780      139.895       44.147        0.100      334.749        4.925      870.092
11/16/2014  13:58:00      127.747       98.267      110.224      103.089      106.257       95.096    10627.433    11290.627     9043.296        3.454        1.548      161.170       98.143        0.371      334.508        4.524      870.094
11/16/2014  13:59:00       95.432       60.080       72.230      113.327       63.226       57.609    12842.961     3997.487     3318.776        1.904        1.008      112.769       66.568        0.348      334.834        5.066      870.093
11/16/2014  14:00:00       31.129       75.462       78.864       67.992       60.484       62.218     4622.850     3658.362     3871.096        1.252        0.608       81.631       51.288        0.395      334.965        5.287      870.109
11/16/2014  14:01:00      122.938       62.632       15.931       63.155       40.694       40.879     3988.534     1655.980     1671.058        1.330        0.366      137.973       30.597        0.049      334.640        4.744      870.108
11/16/2014  14:02:00       86.182       14.939       30.331       70.572       53.205       37.980     4980.459     2830.766     1442.515        0.891        0.463       87.467       34.856        0.159      334.584        4.651      870.110
11/16/2014  14:03:00       87.479       73.607       45.291       34.119       23.534       32.681     1164.072      553.857     1068.076        0.895        0.139      114.327       20.332        0.032      334.550        4.597      870.104
11/16/2014  14:04:00       91.681       76.043       48.400       62.437       45.430       43.682     3898.351     2063.871     1908.141        1.220        0.394      119.114       31.508        0.070      334.651        4.763      870.087
11/16/2014  14:05:00      138.899       84.391       92.453       91.967       62.183       67.721     8457.875     3866.713     4586.185        2.593        0.846      162.527       58.816        0.131      334.898        5.173      870.068
11/16/2014  14:06:00       75.507      174.258      184.375       93.957       84.062       54.293     8827.838     7066.401     2947.767        4.445        0.942      189.913       51.102        0.072      334.737        4.904      870.041
11/16/2014  14:07:00       85.199       99.774      105.140       80.530       81.886       62.934     6485.115     6705.255     3960.628        2.271        0.858      131.201       56.616        0.186      334.667        4.788      870.025
11/16/2014  14:08:00      137.492       85.181       47.160       93.398       58.806       60.345     8723.190     3458.165     3641.539        2.210        0.791      161.741       47.059        0.085      334.807        5.021      869.989
11/16/2014  14:09:00       69.593       67.947       59.373       66.747       50.855       38.765     4455.133     2586.248     1502.692        1.076        0.427       97.262       31.555        0.105      334.817        5.040      869.987
11/16/2014  14:10:00       48.281       63.436       63.626       76.124       46.933       41.663     5794.937     2202.712     1735.789        1.007        0.487       79.720       38.975        0.239      335.029        5.391      869.981
11/16/2014  14:11:00       65.403      128.732      101.243       93.350       63.944       69.186     8714.295     4088.791     4786.709        2.434        0.879      144.393       64.530        0.200      334.826        5.053      869.985
11/16/2014  14:12:00       53.604      177.231      155.926       70.393       61.194       51.958     4955.189     3744.763     2699.684        3.500        0.570      185.160       43.338        0.055      334.686        4.818      869.972
11/16/2014  14:13:00      105.701      126.630       96.257       68.010       84.170       68.481     4625.401     7084.624     4689.667        2.643        0.820      164.948       66.604        0.163      334.667        4.789      869.965
11/16/2014  14:14:00       47.192      -18.375       27.880       27.429       36.829       28.685      752.333     1356.410      822.858        0.314        0.147       50.643       22.432        0.196      334.689        4.827      869.964
11/16/2014  14:15:00       84.560       62.541       50.297       58.044       43.265       38.140     3369.095     1871.821     1454.679        1.014        0.335      105.175       20.829        0.039      334.847        5.090      869.956
11/16/2014  14:16:00       31.849       -1.869       19.004       47.065       82.868       42.143     2215.120     6867.086     1775.991        0.612        0.543       31.904       39.366        1.523      334.885        5.153      869.936
11/16/2014  14:17:00       67.603        2.928       53.403       58.778      116.863       50.056     3454.908    13657.006     2505.588        1.352        0.981       67.666       64.205        0.900      335.049        5.424      869.925
11/16/2014  14:18:00       49.464       32.627       55.496       47.741       58.245       37.144     2279.233     3392.497     1379.706        0.682        0.353       59.255       28.543        0.232      335.156        5.603      869.908
11/16/2014  14:19:00      127.116       32.085       52.934       94.051       84.066       51.963     8845.660     7067.078     2700.157        1.930        0.931      131.103       46.024        0.123      335.175        5.633      869.891
11/16/2014  14:20:00      168.080       58.514       43.102       97.612       78.177       68.232     9528.181     6111.704     4655.546        2.691        1.015      177.974       61.114        0.118      335.024        5.381      869.899
11/16/2014  14:21:00       67.226      -19.181       23.903       74.262       33.488       31.508     5514.799     1121.426      992.758        0.654        0.381       69.909       26.206        0.141      334.873        5.133      869.899
11/16/2014  14:22:00       72.108       38.647       69.926       67.048       44.929       38.662     4495.479     2018.640     1494.783        0.979        0.400       81.812       35.303        0.186      334.991        5.328      869.887
11/16/2014  14:23:00       94.335       97.909       73.807       90.831       76.011       81.412     8250.316     5777.683     6627.991        2.229        1.033      135.960       53.975        0.158      335.093        5.499      869.894
11/16/2014  14:24:00       90.125      149.319      151.471      109.605       89.567       80.931    12013.252     8022.303     6549.869        3.997        1.329      174.410       68.852        0.156      334.932        5.227      869.896
11/16/2014  14:25:00      156.587      138.543      104.986      121.084       85.348       82.370    14661.252     7284.328     6784.833        4.173        1.437      209.078       70.098        0.112      334.909        5.189      869.901
11/16/2014  14:26:00      157.808      128.435       65.164       86.916       41.559       65.704     7554.388     1727.164     4317.004        2.962        0.680      203.467       61.381        0.091      334.943        5.245      869.903
11/16/2014  14:27:00      200.350      119.639       55.119       77.190       62.797       63.267     5958.303     3943.418     4002.750        3.570        0.695      233.353       30.229        0.017      334.853        5.095      869.906
11/16/2014  14:28:00      176.091       92.702       15.637       79.018       71.503       44.853     6243.820     5112.673     2011.824        2.660        0.668      199.002       25.704        0.017      334.828        5.055      869.906
11/16/2014  14:29:00       66.051       66.943       51.354       62.708       46.802       53.096     3932.341     2190.454     2819.209        1.021        0.447       94.043       40.787        0.188      334.958        5.273      869.912
11/16/2014  14:30:00       53.089       69.971       -1.516       71.890       70.091       46.440     5168.132     4912.722     2156.715        0.997        0.612       87.831       37.894        0.186      334.856        5.104      869.922
11/16/2014  14:31:00       27.901      132.462      -17.247       57.748       89.364       45.438     3334.786     7985.904     2064.652        1.600        0.669      135.369       47.478        0.123      334.852        5.098      869.915
11/16/2014  14:32:00      117.294       72.222       23.543       91.296       53.830       44.859     8334.908     2897.666     2012.290        1.638        0.662      137.746       15.218        0.012      334.999        5.340      869.910
11/16/2014  14:33:00      126.742       71.744       80.594       92.453       77.778       59.850     8547.537     6049.481     3582.061        2.294        0.909      145.639       55.607        0.146      334.992        5.330      869.911
11/16/2014  14:34:00      232.842      145.094       52.416      101.488       76.374       70.805    10299.786     5833.055     5013.381        4.958        1.057      274.349       56.020        0.042      334.871        5.126      869.914
11/16/2014  14:35:00      273.380      161.506       28.692       53.332       65.414       45.179     2844.249     4278.946     2041.129        5.540        0.458      317.523       22.066        0.005      334.663        4.778      869.922
11/16/2014  14:36:00      185.098      100.162       24.243      102.981       81.941       62.967    10605.077     6714.353     3964.786        3.308        1.064      210.460       44.123        0.044      334.833        5.064      869.923
11/16/2014  14:37:00      254.214      169.123       30.872      101.722       69.495       64.083    10347.418     4829.511     4106.596        5.673        0.964      305.331       41.257        0.018      334.700        4.842      869.927
11/16/2014  14:38:00      140.082       99.576       37.361       63.601       50.447       44.010     4045.143     2544.912     1936.876        1.973        0.426      171.867        8.410        0.002      334.760        4.942      869.942
11/16/2014  14:39:00       72.730       49.660       32.973       75.868       55.185       43.789     5755.916     3045.354     1917.510        0.978        0.536       88.067       31.119        0.125      334.924        5.217      869.938
11/16/2014  14:40:00       91.859       46.530       18.253       73.192       67.100       40.117     5357.070     4502.386     1609.413        1.120        0.573      102.972       32.745        0.101      334.927        5.222      869.933
11/16/2014  14:41:00      185.017      140.165       23.113       92.489       68.898       74.835     8554.283     4746.882     5600.241        3.665        0.945      232.115       42.394        0.033      334.800        5.009      869.929
11/16/2014  14:42:00      215.423      122.396       20.008       75.036       53.595       51.010     5630.366     2872.424     2602.038        3.644        0.555      247.765       27.301        0.012      334.776        4.968      869.954
11/16/2014  14:43:00      196.533      122.535       11.813       73.118       59.531       52.423     5346.314     3543.951     2748.164        3.271        0.582      231.603       27.808        0.014      334.675        4.799      869.968
11/16/2014  14:44:00      183.854      124.634       24.586       70.140       58.846       58.071     4919.686     3462.910     3372.288        3.085        0.588      222.116       44.645        0.040      334.755        4.934      869.964
11/16/2014  14:45:00      101.725      126.945        7.638       87.069       64.332       64.256     7581.096     4138.636     4128.885        2.118        0.792      162.674       48.354        0.088      334.830        5.060      869.942
11/16/2014  14:46:00       99.795       59.687       51.294       94.794       49.653       40.793     8985.825     2465.404     1664.069        1.463        0.656      116.283       41.678        0.128      335.042        5.413      869.948
11/16/2014  14:47:00      162.346      110.350       35.310      115.886       78.029       79.199    13429.616     6088.596     6272.527        3.278        1.290      196.299       53.858        0.075      334.884        5.149      869.938
11/16/2014  14:48:00      195.098      124.676       33.746      107.242       75.083       76.087    11500.897     5637.476     5789.194        3.883        1.146      231.533       50.961        0.048      334.763        4.946      869.937
11/16/2014  14:49:00      155.912      131.078       15.375      102.533       78.771       72.792    10512.951     6204.903     5298.660        3.187        1.101      203.690       57.875        0.081      334.853        5.097      869.917
11/16/2014  14:50:00      132.826       43.103       29.670       96.437      102.897       44.819     9300.140    10587.843     2008.765        2.113        1.095      139.645       23.247        0.028      334.977        5.304      869.922
11/16/2014  14:51:00       39.462       72.190       67.437       58.395       54.804       41.780     3409.935     3003.429     1745.576        0.974        0.408       82.272       35.090        0.182      335.082        5.481      869.937
11/16/2014  14:52:00       65.245       40.063       40.870       62.166       45.700       40.584     3864.673     2088.471     1647.040        0.756        0.380       76.563       28.764        0.141      335.103        5.515      869.932
11/16/2014  14:53:00      166.890      103.671       15.001       47.797       50.850       40.503     2284.562     2585.731     1640.492        2.267        0.326      196.468       21.552        0.012      334.963        5.282      869.934
11/16/2014  14:54:00       99.912       33.309       33.882       55.173       40.261       38.366     3044.096     1620.918     1471.965        0.919        0.307      105.318       29.723        0.080      335.027        5.390      869.933
11/16/2014  14:55:00      102.426       74.983       61.676       77.253       50.590       48.678     5967.990     2559.395     2369.515        1.540        0.545      126.939       32.484        0.065      335.105        5.518      869.935
11/16/2014  14:56:00       34.354       45.874       56.262       61.330       54.240       40.763     3761.364     2941.943     1661.605        0.741        0.418       57.312       37.454        0.427      335.114        5.533      869.942
11/16/2014  14:57:00       79.152       45.186       41.548       84.585       49.874       44.719     7154.622     2487.435     1999.780        1.084        0.582       91.141       42.167        0.214      334.973        5.298      869.943
11/16/2014  14:58:00      184.680       80.551       17.783       65.703       46.156       45.217     4316.894     2130.367     2044.605        2.470        0.425      201.483       31.117        0.024      334.748        4.920      869.932
11/16/2014  14:59:00      116.140       72.524       44.702       91.236       68.147       46.275     8323.942     4643.970     2141.354        1.792        0.755      136.924       43.802        0.102      334.870        5.126      869.921
11/16/2014  15:00:00       43.329       74.060       19.857       76.007       50.987       51.707     5777.138     2599.649     2673.582        0.940        0.553       85.804       22.582        0.069      334.916        5.204      869.921
11/16/2014  15:01:00      103.022       33.547        7.436       64.827       56.621       47.065     4202.486     3205.891     2215.107        1.071        0.481      108.347       23.395        0.047      334.945        5.252      869.927
11/16/2014  15:02:00      153.184      102.993       34.028       80.302       71.438       67.106     6448.411     5103.441     4503.154        2.564        0.803      184.588       17.100        0.009      334.908        5.191      869.942
11/16/2014  15:03:00      252.539      166.502       27.409      108.619       80.015       79.546    11798.040     6402.433     6327.494        5.838        1.226      302.488       51.640        0.029      334.711        4.860      869.929
11/16/2014  15:04:00      195.279      137.347       22.189      104.237       73.120       62.797    10865.437     5346.504     3943.441        3.882        1.008      238.743       43.917        0.034      334.775        4.967      869.921
11/16/2014  15:05:00      210.661      132.878       24.819       80.113       84.310       64.095     6418.028     7108.220     4108.105        4.014        0.882      249.068       43.801        0.031      334.770        4.958      869.925
11/16/2014  15:06:00      140.533      104.998       28.202      135.316       85.268       68.573    18310.551     7270.612     4702.233        3.092        1.514      175.426       51.001        0.085      334.748        4.923      869.915
11/16/2014  15:07:00      251.235      141.288       28.779      138.724       99.917       63.905    19244.402     9983.369     4083.840        5.860        1.666      288.238       45.030        0.024      334.751        4.927      869.925
11/16/2014  15:08:00      224.845      116.375       39.465      102.283       88.627       69.155    10461.821     7854.755     4782.442        4.437        1.155      253.177       45.266        0.032      334.707        4.853      869.940
11/16/2014  15:09:00      182.409      100.857       22.286       95.996       77.877       63.415     9215.307     6064.772     4021.522        3.162        0.965      208.435       39.137        0.035      334.701        4.843      869.961
11/16/2014  15:10:00      186.632       92.095       52.432       85.776       93.353       53.864     7357.577     8714.700     2901.327        3.251        0.949      208.118       43.597        0.044      334.711        4.861      869.978
11/16/2014  15:11:00      161.446      120.147       47.822       91.039       59.203       69.296     8288.177     3504.964     4801.895        2.969        0.830      201.247       39.128        0.038      334.741        4.909      869.989
11/16/2014  15:12:00       52.888       64.817       84.405       86.328       63.465       55.826     7452.510     4027.759     3116.513        1.436        0.730       83.657       52.934        0.400      334.741        4.914      869.990
11/16/2014  15:13:00      117.150       67.918       35.274       78.388       54.574       51.983     6144.741     2978.309     2702.282        1.570        0.591      135.414       30.783        0.052      334.755        4.937      869.993
11/16/2014  15:14:00      139.984       60.530       45.473      118.544       98.861       73.269    14052.654     9773.447     5368.285        2.726        1.460      152.511       50.058        0.108      334.723        4.881      869.999
11/16/2014  15:15:00      173.648      122.200       33.575       87.977       72.477       68.044     7739.959     5252.931     4629.982        3.191        0.881      212.335       38.736        0.033      334.677        4.803      869.998
11/16/2014  15:16:00      189.368      111.244       44.562       64.127       51.865       43.651     4112.261     2690.023     1905.452        2.946        0.435      219.626       26.182        0.014      334.730        4.890      870.003
11/16/2014  15:17:00      137.401       78.512       60.362       90.767       55.464       46.121     8238.580     3076.255     2127.167        2.106        0.672      158.251       47.464        0.090      334.794        5.001      870.007
11/16/2014  15:18:00       86.977       40.321       38.950       75.216       65.328       55.609     5657.502     4267.806     3092.360        1.186        0.651       95.869       35.359        0.136      334.748        4.925      870.003
11/16/2014  15:19:00       77.683       61.958       83.990       87.864       63.791       47.727     7720.044     4069.269     2277.873        1.549        0.703       99.366       30.256        0.093      334.794        5.001      870.007
11/16/2014  15:20:00      126.209      127.791      121.452       74.998       91.415       73.991     5624.698     8356.618     5474.647        3.323        0.973      179.609       63.542        0.125      334.704        4.849      869.975
11/16/2014  15:21:00      148.962      156.268      144.468       93.373       78.682       55.175     8718.493     6190.883     3044.256        4.271        0.898      215.892       43.281        0.040      334.646        4.750      869.957
11/16/2014  15:22:00      154.924      100.762       95.856      104.153       94.888       88.952    10847.747     9003.687     7912.451        3.555        1.388      184.809       73.007        0.156      334.680        4.809      869.950
11/16/2014  15:23:00      133.091       42.757       50.011      101.444       89.107       66.989    10290.939     7939.985     4487.461        2.238        1.136      139.791       66.239        0.225      334.697        4.839      869.944
11/16/2014  15:24:00      143.088      100.629       38.029       83.245       40.984       52.246     6929.673     1679.680     2729.678        2.169        0.567      174.930       50.000        0.082      334.732        4.896      869.955
11/16/2014  15:25:00      133.938       29.662       24.679       89.291       45.096       38.873     7972.967     2033.625     1511.132        1.547        0.576      137.183       31.199        0.052      334.729        4.892      869.964
11/16/2014  15:26:00      113.856       83.142       65.023       76.646       58.952       55.421     5874.645     3475.379     3071.535        1.826        0.621      140.982       29.293        0.043      334.696        4.837      869.964
11/16/2014  15:27:00      224.104      107.519       42.690      104.776       85.121       56.276    10978.001     7245.534     3166.962        4.249        1.070      248.562       43.919        0.031      334.575        4.633      869.980
11/16/2014  15:28:00      170.702       95.395       45.761      115.725       66.912       59.154    13392.337     4477.281     3499.204        3.085        1.068      195.549       51.956        0.071      334.602        4.679      869.979
11/16/2014  15:29:00      191.223      118.276       40.372      120.031       81.814       60.753    14407.453     6693.496     3690.932        3.848        1.240      224.845       44.678        0.039      334.613        4.697      869.981
11/16/2014  15:30:00      144.160       91.844       52.582       74.275       61.182       58.107     5516.718     3743.272     3376.377        2.231        0.632      170.931       39.104        0.052      334.597        4.671      869.975
11/16/2014  15:31:00      210.961      106.588       36.506       86.662       86.830       69.454     7510.369     7539.533     4823.865        3.853        0.994      236.359       11.367        0.002      334.528        4.556      869.969
11/16/2014  15:32:00      215.490      154.465       81.401       98.064       79.599       70.840     9616.498     6335.960     5018.275        4.894        1.049      265.133       34.609        0.017      334.547        4.587      869.960
11/16/2014  15:33:00      100.139       86.294       99.944       83.594       84.629       67.256     6987.968     7162.125     4523.322        2.306        0.934      132.191       56.016        0.180      334.582        4.648      869.947
11/16/2014  15:34:00       67.274       76.584       79.797       94.380       57.311       55.097     8907.577     3284.578     3035.709        1.599        0.761      101.936       45.839        0.202      334.559        4.610      869.953
11/16/2014  15:35:00       99.785       74.957       87.661      100.839      101.831       74.293    10168.431    10369.484     5519.482        2.465        1.303      124.802       63.701        0.261      334.553        4.599      869.946
11/16/2014  15:36:00      186.386      135.598       64.792       81.677       72.062       66.612     6671.070     5192.877     4437.186        3.681        0.815      230.491       43.855        0.036      334.510        4.526      869.960
11/16/2014  15:37:00      100.255      126.606       84.511      101.733       89.172      102.243    10349.626     7951.698    10453.567        3.098        1.438      161.493       82.052        0.258      334.520        4.545      869.970
11/16/2014  15:38:00      111.247      119.726      122.571       89.673       86.635       77.387     8041.258     7505.544     5988.792        3.163        1.077      163.433       73.660        0.203      334.513        4.532      869.973
11/16/2014  15:39:00      160.602      123.834       98.154       89.024       80.580       77.795     7925.335     6493.064     6052.139        3.561        1.024      202.800       55.194        0.074      334.557        4.606      869.984
11/16/2014  15:40:00      210.599      114.028       65.128      132.275      120.428       83.184    17496.795    14502.809     6919.516        5.025        1.946      239.488       65.010        0.074      334.423        4.385      869.990
11/16/2014  15:41:00      136.926       68.983       77.970      105.331      102.912       71.969    11094.591    10590.828     5179.606        2.822        1.343      153.321       57.905        0.143      334.442        4.415      869.993
11/16/2014  15:42:00      182.522      128.021      116.318      154.604       93.757       97.752    23902.463     8790.413     9555.381        5.273        2.112      222.943       79.084        0.126      334.393        4.333      869.985
11/16/2014  15:43:00      201.676      111.127       45.678      140.406      112.585       96.840    19713.719    12675.437     9377.957        4.843        2.088      230.266       88.645        0.148      334.367        4.290      869.999
11/16/2014  15:44:00      132.388       88.340       72.742       91.794       54.845       55.698     8426.081     3008.006     3102.302        2.258        0.727      159.156       53.586        0.113      334.403        4.350      870.000
11/16/2014  15:45:00      169.502       97.382       36.080      110.189       93.223       78.729    12141.547     8690.493     6198.258        3.327        1.352      195.485       48.222        0.061      334.384        4.319      869.991
11/16/2014  15:46:00      125.299       82.563       47.471       86.830       96.732       57.039     7539.412     9357.170     3253.404        2.246        1.007      150.054       37.522        0.063      334.386        4.322      869.998
11/16/2014  15:47:00       89.456       93.788       65.967       44.485       42.086       35.169     1978.898     1771.264     1236.824        1.307        0.249      129.609       27.336        0.044      334.459        4.445      870.010
11/16/2014  15:48:00      203.991      151.309      106.129      145.211      105.982       83.644    21086.090    11232.204     6996.240        5.753        1.966      253.982       73.160        0.083      334.344        4.251      870.013
11/16/2014  15:49:00      145.192       78.536      103.743      121.795      131.123       97.577    14834.138    17193.164     9521.233        3.977        2.077      165.071      100.852        0.373      334.266        4.123      870.012
11/16/2014  15:50:00      117.573      132.674      101.124       91.737       88.837       85.102     8415.592     7892.088     7242.423        3.260        1.178      177.273       64.401        0.132      334.278        4.142      870.025
11/16/2014  15:51:00       94.776       51.132       53.363       75.149       53.304       44.653     5647.442     2841.316     1993.904        1.246        0.524      107.689       31.725        0.087      334.331        4.232      870.037
11/16/2014  15:52:00      124.828      108.501       66.519       89.006       62.126       57.774     7922.067     3859.635     3337.798        2.345        0.756      165.392       51.239        0.096      334.341        4.249      870.052
11/16/2014  15:53:00      142.062      106.627       78.382      106.806       80.944       91.644    11407.530     6551.899     8398.595        3.202        1.318      177.626       74.828        0.177      334.244        4.087      870.056
11/16/2014  15:54:00      163.575       96.927       73.230      131.692       96.665       79.474    17342.722     9344.117     6316.128        3.725        1.650      190.136       61.174        0.104      334.238        4.077      870.053
11/16/2014  15:55:00      189.236       93.615       79.809      101.538       79.922       69.711    10309.961     6387.520     4859.677        3.625        1.078      211.125       54.953        0.068      334.216        4.037      870.076
11/16/2014  15:56:00      133.854       93.972       37.223       92.853       74.384       54.413     8621.717     5533.037     2960.824        2.262        0.856      163.547       48.193        0.087      334.193        4.001      870.081
11/16/2014  15:57:00      102.797       94.181       72.308       45.280       46.524       43.195     2050.285     2164.483     1865.808        1.537        0.304      139.418       27.309        0.038      334.246        4.092      870.096
11/16/2014  15:58:00      106.452       65.253       42.938       54.755       62.047       54.408     2998.067     3849.784     2960.206        1.362        0.490      124.859       37.546        0.090      334.244        4.088      870.110
11/16/2014  15:59:00      200.204      150.372      124.240      135.813       85.708       58.732    18445.168     7345.839     3449.472        5.368        1.462      250.387       54.284        0.047      334.185        3.986      870.092
11/16/2014  16:00:00      119.628       85.005       55.968      155.172       75.736       55.530    24078.197     5735.940     3083.565        2.878        1.645      146.754       49.383        0.113      334.175        3.972      870.091
11/16/2014  16:01:00      198.153      116.465       50.286       69.764       75.736       60.881     4867.078     5736.000     3706.505        3.483        0.715      229.846       36.221        0.025      334.084        3.820      870.102
11/16/2014  16:02:00      144.683      104.773       49.878       78.191       48.389       45.486     6113.778     2341.453     2068.980        2.246        0.526      178.635       20.152        0.013      334.105        3.855      870.107
11/16/2014  16:03:00      191.291       76.018       71.354      109.012       93.350       58.707    11883.651     8714.196     3446.523        3.575        1.202      205.842       48.029        0.054      334.109        3.862      870.107
11/16/2014  16:04:00      206.582       85.641       75.878      108.472      100.869       74.788    11766.258    10174.479     5593.307        4.165        1.377      223.630       57.297        0.066      334.043        3.754      870.095
11/16/2014  16:05:00      166.071       86.038       38.809       59.856       62.649       51.818     3582.682     3924.919     2685.067        2.334        0.510      187.035       28.484        0.023      334.040        3.749      870.110
11/16/2014  16:06:00      150.140       51.589       25.753       83.064       73.714       42.005     6899.670     5433.737     1764.443        1.998        0.705      158.756       34.927        0.048      334.035        3.740      870.098
11/16/2014  16:07:00      183.018       78.411       -1.727       81.282       68.461       47.377     6606.822     4686.951     2244.602        2.659        0.677      199.108       18.137        0.008      334.020        3.714      870.110
11/16/2014  16:08:00       96.983       55.959       25.666       38.983       45.934       32.882     1519.656     2109.931     1081.245        0.895        0.236      111.969       16.668        0.022      334.034        3.741      870.112
11/16/2014  16:09:00      131.068       92.727       41.491       59.687       56.886       44.027     3562.541     3236.042     1938.373        1.812        0.437      160.552       34.894        0.047      334.011        3.700      870.113
11/16/2014  16:10:00      230.485      122.704       45.280      103.315       97.638       64.523    10674.021     9533.178     4163.186        4.730        1.219      261.112       46.411        0.032      334.003        3.687      870.109
11/16/2014  16:11:00      119.449       71.090       57.343       64.659       67.360       61.427     4180.806     4537.378     3773.335        1.755        0.625      139.003       49.147        0.125      334.076        3.808      870.126
11/16/2014  16:12:00      180.765      130.595       57.516       86.724       60.155       54.366     7521.002     3618.572     2955.610        3.356        0.705      223.005       38.469        0.030      334.043        3.754      870.141
11/16/2014  16:13:00      190.238       58.634       21.325       86.864       73.050       41.117     7545.387     5336.302     1690.579        2.732        0.729      199.069       25.563        0.016      334.003        3.687      870.155
11/16/2014  16:14:00      161.345      111.952       40.428       67.586       52.807       42.102     4567.873     2788.605     1772.598        2.466        0.456      196.381       24.978        0.016      334.002        3.686      870.174
11/16/2014  16:15:00      105.671       58.306       53.142       57.772       47.757       42.436     3337.591     2280.771     1800.830        1.240        0.371      120.689       31.056        0.066      334.010        3.700      870.169
11/16/2014  16:16:00      117.044       42.952       45.938       91.095       63.932       56.627     8298.293     4087.309     3206.571        1.662        0.780      124.676       45.602        0.134      333.972        3.637      870.160
11/16/2014  16:17:00      104.698       66.058       52.339       81.887       52.870       53.484     6705.471     2795.260     2860.490        1.521        0.618      123.795       39.103        0.100      333.961        3.618      870.156
11/16/2014  16:18:00      190.584      115.477       31.291       84.360       77.773       67.697     7116.571     6048.571     4582.931        3.419        0.887      222.839       39.389        0.031      333.895        3.507      870.161
11/16/2014  16:19:00      134.668      101.915       25.338      111.648       92.343       63.534    12465.205     8527.296     4036.560        2.709        1.251      168.885       23.467        0.019      333.865        3.458      870.160
11/16/2014  16:20:00      207.885      131.543       29.203       98.667       81.216       67.213     9735.130     6595.964     4517.557        4.111        1.042      246.008       43.102        0.031      333.821        3.383      870.149
11/16/2014  16:21:00      277.783      139.957       43.820       61.858       68.670       59.680     3826.405     4715.553     3561.732        5.539        0.605      311.049       35.478        0.013      333.836        3.408      870.146
11/16/2014  16:22:00       80.039       51.486       43.308       62.932       40.631       45.904     3960.384     1650.858     2107.156        0.932        0.386       95.168       37.439        0.155      333.852        3.439      870.126
11/16/2014  16:23:00       85.150       59.079        8.078       40.215       32.042       31.520     1617.210     1026.691      993.537        0.722        0.182      103.639       27.628        0.071      333.813        3.374      870.119
11/16/2014  16:24:00      168.460       99.840       25.692       65.194       58.512       41.769     4250.275     3423.708     1744.618        2.421        0.471      195.824       20.472        0.011      333.780        3.314      870.120
11/16/2014  16:25:00      133.190       81.555       -2.517       53.868       48.003       45.102     2901.710     2304.326     2034.234        1.582        0.362      156.175       19.256        0.015      333.763        3.288      870.127
11/16/2014  16:26:00      114.682      101.625        2.849       64.531       65.064       60.893     4164.297     4233.266     3707.933        1.779        0.605      153.230       45.980        0.090      333.740        3.250      870.131
11/16/2014  16:27:00      156.545       98.029       16.371       75.561       48.862       43.251     5709.495     2387.454     1870.645        2.217        0.498      184.706       22.793        0.015      333.730        3.232      870.135
11/16/2014  16:28:00      101.008       54.398       19.897       58.110       41.777       30.733     3376.732     1745.350      944.514        0.981        0.303      114.725       15.513        0.018      333.707        3.197      870.143
11/16/2014  16:29:00      215.563      157.137       19.699       79.800       65.573       64.340     6367.982     4299.855     4139.699        4.317        0.740      266.757       28.809        0.012      333.700        3.182      870.127
11/16/2014  16:30:00      154.028      107.485       64.210       81.424       66.510       58.599     6629.911     4423.561     3433.865        2.694        0.724      187.824       42.374        0.051      333.678        3.148      870.117
11/16/2014  16:31:00       70.731       70.613       53.340       48.176       54.002       40.051     2320.886     2916.228     1604.064        0.984        0.342       99.946       11.093        0.012      333.712        3.206      870.128
11/16/2014  16:32:00       81.252       56.774        9.870       38.319       31.615       29.070     1468.330      999.496      845.057        0.662        0.166       99.122       20.073        0.041      333.658        3.118      870.133
11/16/2014  16:33:00      166.744      108.686       26.880       76.403       52.704       51.431     5837.381     2777.731     2645.166        2.580        0.563      199.038       31.217        0.025      333.610        3.035      870.148
11/16/2014  16:34:00       79.423       74.547        8.138       58.634       47.287       39.231     3437.981     2236.057     1539.067        0.957        0.361      108.928       24.503        0.051      333.584        2.993      870.159
11/16/2014  16:35:00       84.225       86.075        5.905       75.944       43.410       30.510     5767.417     1884.450      930.864        1.156        0.429      120.428       24.906        0.043      333.543        2.925      870.173
11/16/2014  16:36:00       81.833       73.230        8.583       63.640       66.564       52.993     4049.988     4430.715     2808.229        1.171        0.564      109.815       43.807        0.159      333.510        2.871      870.177
11/16/2014  16:37:00      167.682      110.845       24.804       51.403       47.753       40.203     2642.267     2280.388     1616.310        2.378        0.327      201.007       28.534        0.020      333.514        2.875      870.193
11/16/2014  16:38:00       93.637       63.757       12.645       74.968       60.394       39.412     5620.262     3647.488     1553.321        1.190        0.541      113.282       30.897        0.074      333.504        2.861      870.193
11/16/2014  16:39:00      122.245       81.105       13.773       73.402       47.470       39.848     5387.866     2253.359     1587.827        1.547        0.461      146.703       18.402        0.016      333.470        2.804      870.206
11/16/2014  16:40:00      106.599       82.876       -0.704       55.376       47.616       47.453     3066.535     2267.307     2251.782        1.291        0.379      135.025       30.173        0.050      333.462        2.792      870.224
11/16/2014  16:41:00      166.266      101.829       14.047       61.132       54.035       41.299     3737.070     2919.814     1705.648        2.328        0.418      194.970       35.737        0.034      333.457        2.782      870.229
11/16/2014  16:42:00      116.919       64.210        3.862       55.085       41.768       20.467     3034.326     1744.529      418.910        1.150        0.260      133.390       14.039        0.011      333.484        2.828      870.236
11/16/2014  16:43:00       90.475       31.461       12.121       63.003       26.034       27.974     3969.387      677.785      782.554        0.737        0.271       95.789       21.861        0.052      333.429        2.737      870.241
11/16/2014  16:44:00       75.700       47.416       24.022       36.204       26.371       19.580     1310.763      695.445      383.377        0.547        0.119       89.324       12.275        0.019      333.414        2.712      870.237
11/16/2014  16:45:00      122.505       82.714        9.671       64.565       49.486       38.434     4168.603     2448.896     1477.199        1.502        0.405      147.815       29.583        0.040      333.413        2.710      870.234
11/16/2014  16:46:00       52.928       40.702        2.868       55.534       43.599       24.669     3084.051     1900.848      608.546        0.503        0.280       66.768       15.774        0.056      333.381        2.658      870.239
11/16/2014  16:47:00       65.286       70.317       -6.168       41.449       38.402       34.247     1717.993     1474.688     1172.871        0.680        0.218       95.952       21.064        0.048      333.365        2.630      870.235
11/16/2014  16:48:00       91.339       66.987        0.678       37.963       32.361       24.523     1441.210     1047.212      601.378        0.796        0.154      113.270       11.684        0.011      333.362        2.626      870.241
11/16/2014  16:49:00       44.611       34.495        1.371       59.413       37.992       16.549     3529.905     1443.365      273.868        0.421        0.262       56.391       22.685        0.162      333.289        2.507      870.262
11/16/2014  16:50:00       59.400       55.366        3.558       28.244       28.119       29.205      797.729      790.665      852.933        0.452        0.122       81.202       21.563        0.071      333.345        2.598      870.275
11/16/2014  16:51:00       46.627       56.480       -9.081       37.201       34.773       28.331     1383.931     1209.165      802.638        0.442        0.170       73.240       24.166        0.109      333.331        2.576      870.294
11/16/2014  16:52:00       55.391       51.773       15.854       55.089       31.170       38.808     3034.795      971.547     1506.095        0.576        0.276       75.820       23.168        0.093      333.300        2.524      870.310
11/16/2014  16:53:00       59.563       62.600       -1.364       31.194       23.509       23.487      973.083      552.654      551.646        0.477        0.104       86.409       16.525        0.037      333.305        2.533      870.298
11/16/2014  16:54:00       84.351       75.777       -4.142       64.752       52.878       45.067     4192.837     2796.052     2030.995        1.095        0.451      113.390       38.996        0.118      333.313        2.544      870.303
11/16/2014  16:55:00       46.073       84.875       -3.899       51.248       37.675       28.337     2626.366     1419.383      802.995        0.709        0.242       96.574       20.081        0.043      333.307        2.534      870.288
11/16/2014  16:56:00       57.870       61.497        4.412       49.040       39.983       30.859     2404.949     1598.677      952.279        0.605        0.248       84.444       28.525        0.114      333.296        2.516      870.278
11/16/2014  16:57:00      100.604       70.377       19.388       44.641       35.239       33.941     1992.799     1241.794     1152.003        0.992        0.219      122.776       23.646        0.037      333.291        2.510      870.264
11/16/2014  16:58:00      113.890       87.341       15.831       61.353       34.856       38.630     3764.161     1214.969     1492.251        1.366        0.324      143.525       27.132        0.036      333.271        2.476      870.253
11/16/2014  16:59:00      111.430       67.863        8.561       43.073       32.140       35.767     1855.287     1032.985     1279.243        1.063        0.208      130.468       12.296        0.009      333.282        2.494      870.248
11/16/2014  17:00:00      120.446       79.573        4.866       38.067       33.619       25.308     1449.066     1130.259      640.483        1.204        0.161      144.358       15.996        0.012      333.277        2.486      870.237
11/16/2014  17:01:00       70.102       49.380        7.235       25.430       22.011       27.276      646.700      484.478      744.004        0.464        0.094       85.748        8.529        0.010      333.235        2.416      870.235
11/16/2014  17:02:00       53.633       37.229       28.396       38.806       26.023       23.049     1505.917      677.196      531.272        0.389        0.136       65.288       18.994        0.085      333.271        2.476      870.231
11/16/2014  17:03:00       43.890       31.478       10.330       18.588       14.790       16.982      345.500      218.749      288.395        0.194        0.043       54.011        6.029        0.012      333.271        2.475      870.244
11/16/2014  17:04:00      124.976       65.176       22.200       55.141       27.808       23.368     3040.583      773.298      546.048        1.236        0.218      140.949        5.829        0.002      333.248        2.439      870.256
11/16/2014  17:05:00       70.843       51.842       10.955       48.840       39.842       35.251     2385.378     1587.419     1242.615        0.652        0.261       87.785       28.467        0.105      333.256        2.450      870.272
11/16/2014  17:06:00       79.332       48.204       10.382       37.630       24.633       23.259     1416.031      606.792      540.973        0.564        0.128       92.829       13.460        0.021      333.206        2.369      870.282
11/16/2014  17:07:00       46.076       41.542        0.778       30.754       33.429       24.687      945.783     1117.501      609.440        0.326        0.134       62.038       24.503        0.156      333.211        2.376      870.296
11/16/2014  17:08:00       48.314       55.183        5.541       38.658       33.401       27.167     1494.471     1115.656      738.022        0.438        0.167       73.344       22.110        0.091      333.209        2.374      870.298
11/16/2014  17:09:00       85.934       70.782        8.585       53.695       35.072       27.317     2883.160     1230.062      746.245        0.866        0.243      111.332       25.385        0.052      333.216        2.385      870.302
11/16/2014  17:10:00       92.462       48.055       18.268       40.617       29.167       24.214     1649.703      850.687      586.306        0.714        0.154      104.204       16.343        0.025      333.210        2.374      870.318
11/16/2014  17:11:00       59.235       39.373        7.488       31.870       20.796       21.641     1015.711      432.467      468.315        0.352        0.096       71.126       15.847        0.050      333.155        2.283      870.318
11/16/2014  17:12:00       68.860       66.084        3.580       29.881       42.252       32.998      892.861     1785.273     1088.882        0.644        0.188       95.440       27.224        0.081      333.149        2.274      870.325
11/16/2014  17:13:00       48.944       43.316        0.283       28.703       31.413       18.409      823.884      986.779      338.877        0.321        0.107       65.359       19.710        0.091      333.096        2.187      870.324
11/16/2014  17:14:00       95.495       73.185        4.522       36.363       30.606       27.976     1322.295      936.717      782.647        0.877        0.152      120.313       20.723        0.030      333.145        2.270      870.332
11/16/2014  17:15:00       91.699       76.335        6.504       42.980       35.599       41.733     1847.263     1267.322     1741.683        0.957        0.243      119.314       29.086        0.059      333.118        2.224      870.338
11/16/2014  17:16:00       75.737       73.530        4.394       54.835       33.042       36.549     3006.893     1091.773     1335.798        0.830        0.272      105.559       25.821        0.060      333.106        2.204      870.348
11/16/2014  17:17:00       59.856       74.678        4.279       50.657       56.175       48.514     2566.140     3155.683     2353.592        0.863        0.404       95.706       40.499        0.179      333.091        2.180      870.369
11/16/2014  17:18:00       53.955       55.081        6.583       43.528       38.375       34.568     1894.678     1472.631     1194.961        0.527        0.228       77.104       29.523        0.147      333.058        2.124      870.377
11/16/2014  17:19:00       51.975       77.115        0.802       48.411       46.113       26.557     2343.630     2126.448      705.275        0.691        0.259       92.996       23.256        0.063      333.044        2.101      870.400
11/16/2014  17:20:00       57.507       93.688       -0.018       47.465       50.561       30.033     2252.880     2556.412      901.982        0.890        0.286      109.930       24.761        0.051      333.052        2.116      870.407
11/16/2014  17:21:00       32.071       87.910      -10.246       33.408       45.154       30.096     1116.069     2038.916      905.794        0.646        0.203       93.577       24.713        0.070      333.024        2.069      870.418
11/16/2014  17:22:00       47.648       76.073       -6.234       34.206       42.313       27.456     1170.074     1790.425      753.842        0.590        0.186       89.763       27.743        0.096      333.038        2.093      870.426
11/16/2014  17:23:00       67.109       47.818       18.820       43.368       38.109       30.386     1880.754     1452.334      923.303        0.570        0.213       82.402       19.511        0.056      333.008        2.042      870.439
11/16/2014  17:24:00       41.176       27.210       10.693       52.006       30.692       23.934     2704.582      941.986      572.857        0.338        0.211       49.355       20.867        0.179      332.963        1.967      870.457
11/16/2014  17:25:00       52.336       48.236       -6.399       40.330       33.381       22.326     1626.486     1114.290      498.451        0.417        0.162       71.174       17.328        0.059      332.942        1.932      870.467
11/16/2014  17:26:00       48.413       68.740       -0.453       33.815       39.148       27.240     1143.470     1532.580      742.000        0.524        0.171       84.077       25.586        0.093      332.941        1.931      870.487
11/16/2014  17:27:00       48.885       43.869        0.056       42.085       27.008       22.172     1771.141      729.439      491.615        0.365        0.150       65.683       16.568        0.064      332.937        1.924      870.503
11/16/2014  17:28:00       76.930       57.559        2.345       39.099       33.372       22.568     1528.728     1113.677      509.319        0.619        0.158       96.080       17.754        0.034      332.925        1.905      870.525
11/16/2014  17:29:00       65.581       67.648        3.244       50.040       35.545       34.407     2504.027     1263.446     1183.847        0.692        0.248       94.219       25.150        0.071      332.928        1.910      870.540
11/16/2014  17:30:00       84.660       67.520        4.921       44.555       32.856       36.141     1985.119     1079.490     1306.196        0.806        0.219      108.288       24.715        0.052      332.930        1.914      870.552
11/16/2014  17:31:00       91.761       94.681       -5.694       47.206       52.262       50.141     2228.434     2731.366     2514.167        1.244        0.374      131.851       42.377        0.103      332.937        1.924      870.571
11/16/2014  17:32:00       58.329       83.715       -3.961       51.861       60.903       42.417     2689.521     3709.165     1799.183        0.931        0.410      102.032       39.993        0.154      332.913        1.886      870.566
11/16/2014  17:33:00       62.709       77.215        6.851       58.237       50.684       38.796     3391.590     2568.820     1505.102        0.870        0.373       99.471       35.028        0.124      332.923        1.902      870.570
11/16/2014  17:34:00       52.523       84.518       -0.123       58.527       73.466       45.525     3425.449     5397.260     2072.516        1.040        0.545       99.509       38.207        0.147      332.912        1.884      870.577
11/16/2014  17:35:00       46.648       78.468      -12.325       49.818       43.957       39.855     2481.860     1932.176     1588.412        0.724        0.300       91.287       30.120        0.109      332.872        1.818      870.582
11/16/2014  17:36:00      131.644      101.209       13.946       54.079       45.821       42.157     2924.514     2099.530     1777.241        1.728        0.340      166.052       24.516        0.022      332.903        1.867      870.593
11/16/2014  17:37:00       63.107       80.299       -3.542       42.915       58.965       36.914     1841.700     3476.841     1362.643        0.856        0.334      102.129       38.006        0.138      332.867        1.809      870.588
11/16/2014  17:38:00       44.909       76.781        4.774       39.581       55.264       37.478     1566.631     3054.089     1404.582        0.698        0.301       88.950       32.843        0.136      332.864        1.806      870.589
11/16/2014  17:39:00       72.935       92.149       -9.339       60.669       53.867       43.701     3680.671     2901.640     1909.745        1.119        0.425      117.520       36.341        0.096      332.842        1.769      870.593
11/16/2014  17:40:00       50.682       75.898        2.049       49.107       60.791       39.665     2411.486     3695.603     1573.310        0.801        0.384       91.264       32.139        0.124      332.787        1.678      870.604
11/16/2014  17:41:00       45.156       91.754       -8.227       38.857       56.404       30.266     1509.885     3181.415      916.040        0.807        0.280      102.264       26.506        0.067      332.805        1.708      870.619
11/16/2014  17:42:00       49.299      100.504       -5.582       47.604       56.172       34.606     2266.134     3155.283     1197.548        0.959        0.331      111.944       29.190        0.068      332.795        1.692      870.621
11/16/2014  17:43:00       48.510       86.361        9.824       46.753       60.555       44.376     2185.798     3666.929     1969.229        0.886        0.391       99.053       40.276        0.165      332.787        1.677      870.632
11/16/2014  17:44:00       37.653      112.238       -9.489       29.636       44.225       30.439      878.278     1955.821      926.552        0.893        0.188      118.386       23.514        0.039      332.797        1.694      870.642
11/16/2014  17:45:00       33.531      117.704      -11.836       34.284       54.171       27.737     1175.383     2934.470      769.369        1.000        0.244      122.387       32.379        0.070      332.760        1.633      870.662
11/16/2014  17:46:00       39.130      114.626      -18.652       31.190       46.671       23.102      972.805     2178.198      533.715        0.935        0.184      121.121       19.906        0.027      332.745        1.608      870.673
11/16/2014  17:47:00       33.929       76.344        0.390       29.816       46.205       29.561      889.001     2134.929      873.880        0.544        0.195       83.544       28.210        0.114      332.719        1.565      870.695
11/16/2014  17:48:00       19.287      121.809       -4.273       34.297       48.610       32.294     1176.310     2362.894     1042.878        0.990        0.229      123.326       27.728        0.051      332.753        1.620      870.700
11/16/2014  17:49:00       17.418       87.727       -4.890       26.708       55.315       31.565      713.304     3059.758      996.353        0.640        0.238       89.440       34.280        0.147      332.758        1.629      870.712
11/16/2014  17:50:00        5.287      146.380      -15.134       45.909       62.844       32.649     2107.613     3949.353     1065.985        1.440        0.356      146.475       31.817        0.047      332.706        1.541      870.717
11/16/2014  17:51:00       19.500      178.005      -28.735       31.854       40.423       17.592     1014.647     1634.050      309.491        1.792        0.148      179.070       15.355        0.007      332.686        1.508      870.720
11/16/2014  17:52:00       16.466      168.551      -20.412       38.473       45.848       23.479     1480.171     2102.077      551.256        1.661        0.207      169.354       15.660        0.009      332.654        1.455      870.728
11/16/2014  17:53:00       27.811      130.091      -17.067       31.405       51.707       32.547      986.293     2673.571     1059.282        1.135        0.236      133.030       29.478        0.049      332.588        1.349      870.718
11/16/2014  17:54:00       25.522      129.600      -15.167       39.425       63.063       29.859     1554.355     3976.883      891.575        1.205        0.321      132.089       32.000        0.059      332.563        1.305      870.723
11/16/2014  17:55:00       39.073      129.375       -1.947       48.545       73.674       46.961     2356.604     5427.863     2205.305        1.413        0.499      135.147       50.358        0.139      332.530        1.251      870.720
11/16/2014  17:56:00       21.662      104.143      -11.401       41.361       53.831       29.768     1710.764     2897.759      886.154        0.847        0.275      106.372       29.813        0.079      332.532        1.255      870.720
11/16/2014  17:57:00       18.171      166.415      -17.465       38.201       43.732       35.214     1459.287     1912.487     1240.011        1.647        0.231      167.404       26.110        0.024      332.514        1.225      870.733
11/16/2014  17:58:00       28.679      170.728      -25.020       37.031       55.743       29.915     1371.310     3107.287      894.931        1.798        0.269      173.120       29.103        0.028      332.527        1.247      870.743
11/16/2014  17:59:00       20.271      136.973       -8.629       38.099       71.877       35.923     1451.559     5166.289     1290.444        1.358        0.395      138.464       38.083        0.076      332.470        1.152      870.762
11/16/2014  18:00:00       32.530      140.637      -25.470       34.700       52.751       28.633     1204.103     2782.673      819.855        1.315        0.240      144.350       28.395        0.039      332.465        1.145      870.777
11/16/2014  18:01:00       29.256       79.433        2.594       33.300       62.909       34.485     1108.863     3957.505     1189.220        0.671        0.313       84.650       34.539        0.166      332.400        1.038      870.800
11/16/2014  18:02:00       50.484       85.926       -3.568       46.651       50.116       40.048     2176.270     2511.648     1603.843        0.812        0.315       99.659       33.914        0.116      332.396        1.031      870.818
11/16/2014  18:03:00       20.168       50.692       13.234       43.627       44.588       32.664     1903.327     1988.080     1066.962        0.405        0.248       54.557       29.240        0.287      332.365        0.980      870.831
11/16/2014  18:04:00       16.883      111.267       -4.893       36.541       69.324       32.285     1335.266     4805.804     1042.326        0.993        0.359      112.540       36.114        0.103      332.347        0.948      870.839
11/16/2014  18:05:00       23.030       98.838       -7.837       39.128       55.864       32.470     1531.038     3120.757     1054.294        0.803        0.285      101.485       35.939        0.125      332.314        0.895      870.822
11/16/2014  18:06:00       23.545       97.440       -8.226       35.636       63.534       25.728     1269.889     4036.531      661.922        0.804        0.298      100.244       26.746        0.071      332.316        0.898      870.802
11/16/2014  18:07:00       40.304      129.936       -4.742       45.145       84.476       39.283     2038.116     7136.193     1543.182        1.462        0.536      136.044       42.017        0.095      332.301        0.874      870.773
11/16/2014  18:08:00        2.034      131.406       -0.340       41.901       67.913       37.686     1755.693     4612.172     1420.200        1.253        0.389      131.422       39.625        0.091      332.295        0.864      870.755
11/16/2014  18:09:00       26.388       82.626       -4.157       51.214       56.891       30.963     2622.889     3236.551      958.679        0.718        0.341       86.737       31.483        0.132      332.282        0.843      870.753
11/16/2014  18:10:00       35.254       79.571      -11.189       36.774       54.383       29.231     1352.361     2957.508      854.466        0.643        0.258       87.031       26.878        0.095      332.279        0.839      870.746
11/16/2014  18:11:00       39.263      102.054      -11.461       45.285       61.220       29.829     2050.755     3747.880      889.798        0.939        0.334      109.346       33.314        0.093      332.274        0.831      870.756
11/16/2014  18:12:00       55.235       57.206        4.406       41.315       44.025       31.613     1706.906     1938.173      999.389        0.549        0.232       79.520       26.654        0.112      332.252        0.793      870.748
11/16/2014  18:13:00       48.076       74.045       -3.185       42.134       49.765       25.107     1775.315     2476.522      630.337        0.634        0.244       88.284       24.230        0.075      332.241        0.775      870.751
11/16/2014  18:14:00       53.942       52.856       11.014       62.451       34.100       35.445     3900.112     1162.791     1256.315        0.607        0.316       75.521       21.396        0.080      332.248        0.788      870.747
11/16/2014  18:15:00       56.451       51.119        2.280       30.584       30.239       23.997      935.363      914.395      575.874        0.411        0.121       76.157       15.328        0.041      332.259        0.806      870.750
11/16/2014  18:16:00       63.084       51.141        3.293       38.805       25.855       22.038     1505.842      668.485      485.670        0.463        0.133       81.210       15.900        0.038      332.227        0.753      870.746
11/16/2014  18:17:00       33.480       77.872        1.114       30.193       36.664       26.964      911.588     1344.252      727.036        0.508        0.149       84.764       23.530        0.077      332.214        0.733      870.765
11/16/2014  18:18:00       47.977       56.805        0.182       39.812       36.317       27.620     1585.024     1318.959      762.847        0.460        0.183       74.355       21.003        0.080      332.223        0.747      870.778
11/16/2014  18:19:00       42.716       86.137       -4.390       42.957       47.036       36.545     1845.292     2212.353     1335.506        0.733        0.270       96.147       29.859        0.096      332.245        0.782      870.798
11/16/2014  18:20:00       30.094      123.497       -9.552       37.455       56.814       34.097     1402.847     3227.798     1162.598        1.102        0.290      127.111       37.322        0.086      332.233        0.762      870.832
11/16/2014  18:21:00       31.240      133.426      -11.551       40.917       63.428       33.362     1674.176     4023.088     1113.054        1.286        0.341      137.034       37.809        0.076      332.246        0.784      870.860
11/16/2014  18:22:00       20.719       59.546       -4.227       35.439       40.917       28.517     1255.894     1674.161      813.197        0.387        0.187       63.048       28.208        0.200      332.161        0.644      870.890
11/16/2014  18:23:00       25.796       69.525       -1.828       32.600       43.682       31.155     1062.735     1908.134      970.644        0.472        0.197       74.157       28.238        0.145      332.173        0.664      870.890
11/16/2014  18:24:00       40.091       68.995       -3.454       31.030       27.360       24.960      962.843      748.546      622.989        0.436        0.117       79.797       15.265        0.037      332.190        0.692      870.909
11/16/2014  18:25:00       12.715       79.625        0.126       38.358       43.862       24.245     1471.322     1923.873      587.843        0.524        0.199       80.634       21.150        0.069      332.158        0.641      870.912
11/16/2014  18:26:00       16.397       85.479       -8.662       22.420       32.475       20.361      502.668     1054.605      414.551        0.481        0.099       87.037       18.788        0.047      332.205        0.718      870.924
11/16/2014  18:27:00       23.430      107.249      -13.852       27.532       30.104       19.448      758.008      906.271      378.241        0.714        0.102      109.779       16.039        0.021      332.222        0.744      870.941
11/16/2014  18:28:00        3.477      129.496      -21.250       30.568       24.070       14.095      934.381      579.367      198.656        0.947        0.086      129.542        7.286        0.003      332.288        0.855      870.942
11/16/2014  18:29:00        7.513      159.148      -24.965       13.952       27.641       12.726      194.671      764.045      161.962        1.356        0.056      159.326        9.861        0.004      332.231        0.759      870.957
11/16/2014  18:30:00        2.122      190.215      -29.370       18.465       25.864       11.970      340.974      668.971      143.272        1.910        0.058      190.227       10.911        0.003      332.196        0.702      870.961
11/16/2014  18:31:00       25.998      235.223      -38.554       25.041       52.649       20.738      627.032     2771.876      430.061        3.066        0.191      236.655       24.344        0.011      332.194        0.695      870.951
11/16/2014  18:32:00       12.322      223.460      -34.003       31.840       32.105       19.712     1013.798     1030.748      388.575        2.684        0.122      223.799       16.792        0.006      332.173        0.661      870.952
11/16/2014  18:33:00       27.631      188.110      -26.447       41.347       60.617       29.967     1709.608     3674.418      898.043        2.156        0.314      190.128       27.855        0.021      332.108        0.554      870.942
11/16/2014  18:34:00        9.048      192.485      -21.998       24.958       43.294       24.887      622.915     1874.362      619.362        2.037        0.156      192.698       20.711        0.012      332.113        0.564      870.928
11/16/2014  18:35:00       21.187      185.286      -28.732       31.316       38.155       26.626      980.710     1455.788      708.943        1.937        0.157      186.493       22.741        0.015      332.117        0.570      870.930
11/16/2014  18:36:00       17.733      194.953      -30.832       29.526       34.918       17.771      871.810     1219.294      315.826        2.084        0.120      195.758       11.291        0.003      332.124        0.582      870.933
11/16/2014  18:37:00        9.463      176.058      -27.224       29.714       36.125       19.314      882.939     1305.009      373.016        1.719        0.128      176.313       16.197        0.008      332.097        0.537      870.943
11/16/2014  18:38:00       21.519      182.403      -30.139       30.623       33.135       19.563      937.787     1097.960      382.719        1.853        0.121      183.668       17.119        0.009      332.095        0.534      870.954
11/16/2014  18:39:00       16.225      175.195      -27.312       23.727       39.043       15.470      562.969     1524.384      239.325        1.701        0.116      175.945       15.766        0.008      332.078        0.506      870.954
11/16/2014  18:40:00        2.602      141.171      -20.029       26.074       29.397       16.377      679.836      864.170      268.217        1.107        0.091      141.195       11.089        0.006      332.063        0.481      870.955
11/16/2014  18:41:00        1.204      166.392      -20.666       24.289       24.578       16.553      589.974      604.065      273.990        1.479        0.073      166.397       11.494        0.005      332.078        0.507      870.962
11/16/2014  18:42:00        3.114      157.762      -22.142       30.203       27.360       15.472      912.238      748.577      239.376        1.364        0.095      157.793       10.584        0.004      332.097        0.538      870.959
11/16/2014  18:43:00       14.106      132.996      -22.523       20.033       27.731       14.444      401.331      769.013      208.624        0.989        0.069      133.742        9.020        0.005      332.092        0.528      870.963
11/16/2014  18:44:00       18.717      155.450      -23.528       23.583       28.161       16.467      556.161      793.064      271.170        1.334        0.081      156.573       12.040        0.006      332.102        0.547      870.970
11/16/2014  18:45:00       21.368      157.702      -20.595       37.138       42.374       28.313     1379.205     1795.568      801.623        1.486        0.199      159.143       25.962        0.027      332.068        0.491      870.974
11/16/2014  18:46:00       18.005      124.834       -5.107       29.012       55.449       31.989      841.695     3074.590     1023.279        1.044        0.247      126.125       27.568        0.048      332.064        0.484      870.986
11/16/2014  18:47:00       16.527      150.850      -15.535       27.392       69.226       31.795      750.303     4792.305     1010.924        1.491        0.328      151.753       38.732        0.065      332.012        0.397      871.005
11/16/2014  18:48:00       32.241      189.773      -31.217       24.931       36.910       22.419      621.572     1362.320      502.621        2.026        0.124      192.492       18.948        0.010      332.015        0.403      871.009
11/16/2014  18:49:00       23.007      186.934      -24.902       34.131       53.332       31.689     1164.909     2844.274     1004.193        2.055        0.251      188.344       34.100        0.033      331.998        0.374      871.022
11/16/2014  18:50:00       15.552      180.762      -28.072       26.721       36.106       20.214      714.036     1303.677      408.620        1.807        0.121      181.430       15.902        0.008      332.000        0.377      871.023
11/16/2014  18:51:00       19.929      140.870      -16.173       40.319       50.608       29.453     1625.589     2561.153      867.460        1.278        0.253      142.273       32.181        0.051      331.971        0.329      871.009
11/16/2014  18:52:00       39.398      110.688       -9.680       31.606       52.355       38.891      998.944     2741.024     1512.539        0.957        0.263      117.490       35.429        0.091      331.941        0.281      871.000
11/16/2014  18:53:00       32.871       98.600       -5.287       41.915       50.215       32.537     1756.859     2521.595     1058.671        0.808        0.267      103.935       31.954        0.095      331.969        0.328      870.989
11/16/2014  18:54:00       22.130       77.942       -5.317       40.496       53.353       29.121     1639.939     2846.513      848.035        0.596        0.267       81.023       25.426        0.098      331.925        0.255      870.979
11/16/2014  18:55:00       23.606      128.548       -9.774       32.180       61.882       34.686     1035.552     3829.423     1203.086        1.162        0.303      130.697       38.970        0.089      331.943        0.285      870.974
11/16/2014  18:56:00       36.540       87.039      -14.015       29.681       46.712       24.476      880.947     2181.996      599.072        0.638        0.183       94.398       27.098        0.082      331.927        0.257      870.979
11/16/2014  18:57:00       20.987       85.812        3.812       37.753       48.219       35.693     1425.259     2325.033     1273.956        0.642        0.251       88.342       28.129        0.101      331.887        0.191      870.964
11/16/2014  18:58:00       18.268      107.719       -9.498       34.147       51.398       31.436     1166.045     2641.739      988.213        0.841        0.240      109.257       30.546        0.078      331.896        0.207      870.957
11/16/2014  18:59:00       27.799       94.087       -7.006       47.403       52.748       34.904     2247.039     2782.364     1218.274        0.796        0.312       98.108       29.205        0.089      331.866        0.157      870.957
11/16/2014  19:00:00       28.690      119.762      -13.857       42.458       54.078       33.665     1802.687     2924.392     1133.363        1.061        0.293      123.150       28.051        0.052      331.871        0.165      870.953
11/16/2014  19:01:00       18.304       60.998        0.092       19.978       61.342       20.663      399.115     3762.838      426.973        0.432        0.229       63.685       21.788        0.117      331.847        0.125      870.960
11/16/2014  19:02:00       40.059       76.553       -5.885       39.801       51.078       27.772     1584.157     2609.006      771.278        0.623        0.248       86.401       33.862        0.154      331.857        0.142      870.947
11/16/2014  19:03:00       35.021       74.309        4.088       32.401       44.940       37.552     1049.806     2019.568     1410.126        0.562        0.224       82.148       30.993        0.142      331.837        0.109      870.940
11/16/2014  19:04:00       43.012       67.829       -8.843       31.580       29.442       29.181      997.285      866.810      851.519        0.462        0.136       80.317       20.590        0.066      331.851        0.131      870.947
11/16/2014  19:05:00       42.322       71.858        5.004       38.512       41.351       32.356     1483.176     1709.894     1046.894        0.561        0.212       83.395       27.797        0.111      331.859        0.145      870.945
11/16/2014  19:06:00       32.976       75.318       -6.315       42.982       37.615       32.126     1847.460     1414.867     1032.078        0.555        0.215       82.221       29.417        0.128      331.854        0.138      870.948
11/16/2014  19:07:00       35.527       73.396       -1.587       43.193       57.185       35.250     1865.601     3270.128     1242.539        0.651        0.319       81.542       33.072        0.165      331.857        0.141      870.965
11/16/2014  19:08:00       25.198      100.679      -11.144       21.670       37.714       18.574      469.574     1422.326      345.007        0.657        0.112      103.784       18.874        0.033      331.872        0.167      870.987
11/16/2014  19:09:00       20.496      120.671      -10.080       24.767       33.344       18.482      613.385     1111.804      341.574        0.857        0.103      122.399       14.584        0.014      331.871        0.165      870.994
11/16/2014  19:10:00       24.411      164.611      -24.325       26.496       35.745       22.435      702.040     1277.688      503.341        1.538        0.124      166.411       22.133        0.018      331.896        0.207      870.998
11/16/2014  19:11:00       10.110      135.582      -15.115       26.852       60.905       28.096      721.034     3709.407      789.361        1.197        0.261      135.958       34.643        0.065      331.859        0.145      870.999
11/16/2014  19:12:00       15.378      143.867      -19.196       31.131       43.692       26.718      969.115     1909.019      713.831        1.245        0.180      144.687       29.165        0.041      331.878        0.177      870.988
11/16/2014  19:13:00       14.797      186.914      -30.289       28.137       28.328       15.195      791.681      802.475      230.879        1.895        0.091      187.499       13.649        0.005      331.916        0.239      870.977
11/16/2014  19:14:00        6.318      180.213      -28.893       24.331       24.611       19.183      591.974      605.688      367.979        1.746        0.078      180.324       14.863        0.007      331.904        0.220      870.977
11/16/2014  19:15:00       14.365      162.555      -25.264       36.242       28.340       15.789     1313.453      803.155      249.277        1.482        0.118      163.188       11.520        0.005      331.879        0.180      870.969
11/16/2014  19:16:00      -14.874      170.941      -23.797       32.735       33.731       21.381     1071.606     1137.772      457.142        1.634        0.133      171.587       17.192        0.010      331.877        0.175      870.962
11/16/2014  19:17:00      -19.232      157.908      -26.334       38.386       39.812       23.491     1473.490     1584.970      551.830        1.480        0.181      159.075       17.519        0.012      331.906        0.223      870.973
11/16/2014  19:18:00        3.004      165.736      -27.707       43.936       42.109       19.155     1930.350     1773.202      366.930        1.616        0.204      165.764       22.924        0.019      331.911        0.232      870.978
11/16/2014  19:19:00       -8.838      151.838      -22.908       23.296       25.410       12.061      542.723      645.666      145.459        1.250        0.067      152.095        8.290        0.003      331.932        0.267      870.985
11/16/2014  19:20:00      -25.917      161.877      -24.139       27.800       36.827       19.973      772.850     1356.217      398.912        1.499        0.126      163.938       20.650        0.016      331.962        0.315      870.985
11/16/2014  19:21:00      -15.779      138.971      -15.892       33.577       35.466       20.763     1127.391     1257.808      431.088        1.131        0.141      139.864       18.701        0.018      331.958        0.308      871.007
11/16/2014  19:22:00       -7.785      126.585      -16.418       22.417       36.163       22.077      502.501     1307.762      487.376        0.933        0.115      126.824       18.747        0.022      331.904        0.221      871.007
11/16/2014  19:23:00        3.724      143.542      -25.935       33.359       36.246       24.760     1112.854     1313.752      613.076        1.216        0.152      143.590       20.926        0.021      331.897        0.207      871.012
11/16/2014  19:24:00       -0.329      144.947      -22.531       30.708       27.767       17.902      942.969      771.033      320.477        1.178        0.102      144.947       12.953        0.008      331.927        0.258      871.004
11/16/2014  19:25:00      -10.415      132.181      -21.352       30.696       38.179       19.421      942.273     1457.625      377.192        1.041        0.139      132.591       16.994        0.016      331.974        0.335      871.012
11/16/2014  19:26:00       17.704      182.631      -24.533       32.621       40.306       21.610     1064.131     1624.560      467.008        1.871        0.158      183.487       21.692        0.014      331.861        0.148      871.022
11/16/2014  19:27:00       14.599      148.343      -27.170       29.101       26.940       15.668      846.844      725.761      245.486        1.239        0.091      149.060       13.730        0.008      331.872        0.167      871.022
11/16/2014  19:28:00        7.515      142.473      -19.635       24.218       34.250       16.659      586.529     1173.086      277.525        1.139        0.102      142.671       11.408        0.006      331.821        0.083      871.023
11/16/2014  19:29:00       13.135      175.339      -32.923       25.019       37.317       16.200      625.957     1392.570      262.446        1.714        0.114      175.830       15.610        0.008      331.856        0.140      871.042
11/16/2014  19:30:00       18.752       90.296       -9.960       27.974       50.331       27.687      782.569     2533.207      766.597        0.634        0.204       92.222       31.155        0.114      331.740       -0.050      871.045
11/16/2014  19:31:00       18.594       64.016        7.876       34.437       48.396       34.636     1185.900     2342.162     1199.647        0.462        0.236       66.661       32.292        0.235      331.703       -0.110      871.041
11/16/2014  19:32:00       27.236      101.727        1.774       47.141       52.206       38.677     2222.227     2725.476     1495.909        0.877        0.322      105.310       33.990        0.104      331.671       -0.162      871.040
11/16/2014  19:33:00       36.451       88.746        8.176       58.245       55.367       48.832     3392.516     3065.464     2384.561        0.906        0.442       95.940       36.178        0.142      331.653       -0.194      871.034
11/16/2014  19:34:00       31.223      102.949       -6.626       37.096       65.332       38.191     1376.103     4268.206     1458.563        0.936        0.355      107.579       40.754        0.144      331.665       -0.173      871.040
11/16/2014  19:35:00       15.175      138.375      -17.988       33.176       47.471       24.566     1100.671     2253.494      603.493        1.183        0.198      139.205       21.507        0.024      331.662       -0.177      871.040
11/16/2014  19:36:00       17.414      179.389      -22.634       38.087       41.944       31.051     1450.633     1759.302      964.179        1.858        0.209      180.233       28.767        0.025      331.642       -0.212      871.046
11/16/2014  19:37:00       30.547       97.101       -4.904       41.719       67.513       34.318     1740.452     4558.043     1177.717        0.893        0.374      101.792       34.087        0.112      331.635       -0.222      871.064
11/16/2014  19:38:00       31.278      146.581      -11.936       45.462       68.592       42.991     2066.814     4704.875     1848.220        1.561        0.431      149.881       44.212        0.087      331.642       -0.212      871.096
11/16/2014  19:39:00       23.138      116.271       -8.870       37.502       56.693       31.863     1406.434     3214.056     1015.248        0.988        0.282      118.551       31.344        0.070      331.599       -0.282      871.114
11/16/2014  19:40:00       39.378       97.602       -2.377       46.038       56.884       36.495     2119.518     3235.761     1331.918        0.888        0.334      105.246       33.624        0.102      331.572       -0.325      871.129
11/16/2014  19:41:00       44.770      144.504      -13.646       51.689       61.345       39.909     2671.728     3763.206     1592.724        1.555        0.401      151.281       37.739        0.062      331.667       -0.170      871.127
11/16/2014  19:42:00       28.635       74.538        4.247       39.231       61.090       33.072     1539.080     3732.015     1093.728        0.638        0.318       79.850       34.197        0.183      331.599       -0.281      871.131
11/16/2014  19:43:00       46.102       75.799        3.177       52.626       44.896       38.832     2769.482     2015.633     1507.888        0.709        0.315       88.718       31.155        0.123      331.599       -0.280      871.121
11/16/2014  19:44:00       63.947      129.703      -18.216       54.256       69.990       45.194     2943.736     4898.538     2042.510        1.556        0.494      144.610       39.668        0.075      331.652       -0.195      871.113
11/16/2014  19:45:00       56.897       70.779        1.786       45.913       41.888       35.961     2107.993     1754.604     1293.194        0.670        0.258       90.813       31.605        0.121      331.624       -0.241      871.100
11/16/2014  19:46:00       25.371       78.209       -7.994       30.410       38.085       27.068      924.776     1450.489      732.690        0.497        0.155       82.221       25.042        0.093      331.617       -0.251      871.107
11/16/2014  19:47:00       40.924       73.261       -4.789       35.044       44.842       24.727     1228.070     2010.803      611.438        0.546        0.193       83.916       20.603        0.060      331.597       -0.284      871.109
11/16/2014  19:48:00       36.469      103.703       -5.270       42.351       59.325       35.172     1793.639     3519.494     1237.074        0.933        0.328      109.929       34.825        0.100      331.590       -0.297      871.112
11/16/2014  19:49:00       29.595      179.329      -17.873       36.412       59.896       41.534     1325.854     3587.589     1725.092        2.000        0.332      181.755       43.826        0.058      331.612       -0.262      871.137
11/16/2014  19:50:00       34.756       97.086       -0.429       45.603       52.192       35.381     2079.663     2723.956     1251.831        0.834        0.303      103.120       32.204        0.098      331.594       -0.289      871.143
11/16/2014  19:51:00       26.861      103.466        0.817       42.969       71.749       40.314     1846.299     5147.847     1625.258        1.002        0.431      106.896       43.443        0.165      331.571       -0.327      871.147
11/16/2014  19:52:00       22.786       85.911       -0.282       34.205       71.766       29.508     1169.994     5150.331      870.729        0.754        0.360       88.881       35.719        0.162      331.561       -0.344      871.164
11/16/2014  19:53:00       45.428      124.715      -17.274       50.925       56.665       40.070     2593.393     3210.884     1605.620        1.266        0.370      132.731       36.419        0.075      331.571       -0.328      871.171
11/16/2014  19:54:00       47.574       65.363       -5.467       46.211       40.256       29.494     2135.432     1620.515      869.898        0.559        0.231       80.843       15.200        0.035      331.589       -0.298      871.175
11/16/2014  19:55:00       40.628      104.548       -7.309       38.917       54.137       29.749     1514.500     2930.804      885.026        0.898        0.267      112.165       33.438        0.089      331.586       -0.303      871.178
11/16/2014  19:56:00       35.016       65.606        1.082       40.142       26.957       23.261     1611.380      726.702      541.087        0.420        0.144       74.366       13.812        0.034      331.575       -0.322      871.190
11/16/2014  19:57:00       29.950      107.617      -11.441       34.938       59.285       26.969     1220.673     3514.725      727.320        0.903        0.273      111.707       31.521        0.080      331.576       -0.320      871.197
11/16/2014  19:58:00       21.554      185.790      -29.345       29.789       45.073       23.433      887.355     2031.549      549.109        1.966        0.173      187.036       23.845        0.016      331.659       -0.183      871.195
11/16/2014  19:59:00       50.561       97.865      -10.113       36.237       54.316       32.134     1313.112     2950.192     1032.586        0.877        0.265      110.155       31.693        0.083      331.593       -0.292      871.207
11/16/2014  20:00:00       26.040       90.568       -9.119       27.055       62.799       29.784      731.949     3943.735      887.064        0.726        0.278       94.237       36.060        0.146      331.545       -0.372      871.221
11/16/2014  20:01:00        6.674      136.853       -6.508       29.986       59.641       25.028      899.187     3557.098      626.424        1.195        0.254      137.015       24.495        0.032      331.582       -0.310      871.219
11/16/2014  20:02:00        8.815      170.527      -21.252       33.528       58.238       28.724     1124.106     3391.652      825.064        1.747        0.267      170.754       24.386        0.020      331.640       -0.215      871.221
11/16/2014  20:03:00       14.362      173.616      -25.898       29.108       35.473       21.762      847.249     1258.366      473.606        1.680        0.129      174.209       17.774        0.010      331.626       -0.237      871.226
11/16/2014  20:04:00       15.559      226.121      -34.798       28.346       28.421       19.723      803.476      807.762      388.991        2.729        0.100      226.656       16.520        0.005      331.676       -0.158      871.223
11/16/2014  20:05:00       14.995      199.607      -34.168       23.445       29.263       14.496      549.668      856.299      210.132        2.143        0.081      200.169        7.756        0.002      331.640       -0.216      871.219
11/16/2014  20:06:00       21.581      155.935      -20.301       30.239       43.163       19.477      914.384     1863.070      379.339        1.417        0.158      157.421       18.778        0.014      331.560       -0.347      871.234
11/16/2014  20:07:00       25.240      138.640      -27.024       35.247       42.785       25.770     1242.326     1830.541      664.074        1.216        0.187      140.919       26.738        0.036      331.573       -0.325      871.246
11/16/2014  20:08:00        4.334      162.458      -21.457       23.830       34.374       15.779      567.877     1181.556      248.961        1.443        0.100      162.516       16.574        0.010      331.613       -0.260      871.245
11/16/2014  20:09:00       21.750      135.406      -23.241       24.044       28.743       20.539      578.103      826.175      421.838        1.059        0.091      137.142       14.941        0.012      331.605       -0.271      871.255
11/16/2014  20:10:00       22.582      135.754      -20.519       32.777       31.422       22.526     1074.326      987.345      507.405        1.096        0.128      137.620       13.528        0.010      331.586       -0.303      871.268
11/16/2014  20:11:00       -4.734      157.635      -23.000       25.711       27.812       14.281      661.066      773.506      203.955        1.352        0.082      157.706        8.876        0.003      331.625       -0.239      871.287
11/16/2014  20:12:00       43.060      142.224      -24.004       34.274       51.988       28.666     1174.709     2702.775      821.726        1.368        0.235      148.600       31.750        0.046      331.603       -0.277      871.277
11/16/2014  20:13:00       12.979      141.811      -24.463       31.445       32.492       17.504      988.814     1055.727      306.384        1.161        0.118      142.403       14.042        0.010      331.639       -0.217      871.270
11/16/2014  20:14:00        8.717      143.184      -14.494       34.438       32.811       20.666     1185.961     1076.535      427.097        1.174        0.134      143.449       15.711        0.012      331.581       -0.311      871.280
11/16/2014  20:15:00       -7.556      111.189      -22.747       20.885       21.756       13.465      436.178      473.325      181.319        0.701        0.055      111.445       11.126        0.010      331.675       -0.158      871.280
11/16/2014  20:16:00       10.000      134.610      -21.042       24.462       25.383       14.589      598.381      644.310      212.840        1.006        0.073      134.981       11.723        0.008      331.583       -0.308      871.277
11/16/2014  20:17:00       12.441      119.943      -12.895       21.800       34.251       20.700      475.237     1173.135      428.477        0.839        0.104      120.586       21.597        0.032      331.593       -0.292      871.273
11/16/2014  20:18:00        1.434      119.427       -9.935       34.002       44.078       23.192     1156.127     1942.883      537.875        0.900        0.182      119.436       14.279        0.014      331.557       -0.351      871.276
11/16/2014  20:19:00       15.289       96.222      -16.404       17.903       17.662       15.068      320.521      311.958      227.043        0.531        0.043       97.429        9.348        0.009      331.530       -0.394      871.290
11/16/2014  20:20:00       11.984       51.244       -5.267       14.027       35.115       11.354      196.744     1233.070      128.910        0.218        0.078       52.626       11.905        0.051      331.499       -0.446      871.286
11/16/2014  20:21:00       18.558       64.272       -5.396       28.039       38.311       22.337      786.206     1467.703      498.961        0.363        0.138       66.898       24.848        0.138      331.502       -0.442      871.283
11/16/2014  20:22:00        3.831       91.307      -17.875       22.576       35.487        9.132      509.668     1259.326       83.386        0.526        0.093       91.388        8.590        0.009      331.566       -0.338      871.277
11/16/2014  20:23:00        9.651      127.314      -18.223       17.725       15.472       13.600      314.168      239.388      184.965        0.869        0.037      127.679       10.846        0.007      331.580       -0.315      871.269
11/16/2014  20:24:00      -21.747      126.094      -19.577       22.413       27.149       12.437      502.336      737.091      154.679        0.907        0.070      127.956        8.399        0.004      331.665       -0.173      871.268
11/16/2014  20:25:00        2.561      131.187      -22.783       19.584       22.213       10.593      383.527      493.403      112.212        0.936        0.049      131.212        5.021        0.001      331.512       -0.423      871.273
11/16/2014  20:26:00      -13.929      143.419      -24.119       13.257       18.859        9.095      175.758      355.667       82.728        1.098        0.031      144.094        4.063        0.001      331.551       -0.360      871.269
11/16/2014  20:27:00       -5.375      160.549      -24.834       31.381       26.651       15.853      984.738      710.298      251.311        1.418        0.097      160.639       16.973        0.011      331.520       -0.411      871.270
11/16/2014  20:28:00        7.533      154.200      -22.405       17.391       23.424       11.639      302.441      548.704      135.470        1.266        0.049      154.384       10.085        0.004      331.485       -0.469      871.259
11/16/2014  20:29:00       20.896      136.839      -20.625       29.260       24.771       17.660      856.156      613.595      311.874        1.068        0.089      138.425       14.424        0.011      331.429       -0.561      871.252
11/16/2014  20:30:00       17.101      129.733      -16.395       25.910       42.918       20.494      671.339     1841.937      420.022        1.016        0.147      130.855       20.108        0.024      331.405       -0.601      871.250
11/16/2014  20:31:00       22.688      136.938      -18.700       31.157       34.048       22.304      970.787     1159.287      497.484        1.112        0.131      138.805       20.563        0.022      331.405       -0.601      871.239
11/16/2014  20:32:00       14.275      140.164      -19.877       21.316       38.578       20.817      454.361     1488.281      433.351        1.131        0.119      140.889       17.694        0.016      331.406       -0.601      871.235
11/16/2014  20:33:00       11.039      118.510       -3.167       33.011       68.561       30.299     1089.721     4700.625      918.023        1.044        0.335      119.023       39.521        0.110      331.441       -0.542      871.241
11/16/2014  20:34:00       28.686       89.455       -6.080       35.435       54.405       28.290     1255.607     2959.925      800.317        0.694        0.251       93.942       32.233        0.118      331.426       -0.567      871.240
11/16/2014  20:35:00       23.080       91.269       -9.571       27.055       29.337       20.515      731.957      860.666      420.868        0.548        0.101       94.142       16.882        0.032      331.383       -0.637      871.236
11/16/2014  20:36:00       28.036      106.161       -8.680       33.269       47.211       25.786     1106.807     2228.884      664.904        0.807        0.200      109.801       25.667        0.055      331.373       -0.653      871.255
11/16/2014  20:37:00       37.484       68.110        1.002       48.467       48.009       30.394     2349.076     2304.878      923.824        0.581        0.279       77.743       29.646        0.145      331.395       -0.618      871.272
11/16/2014  20:38:00       11.675       85.107       -8.963       30.152       63.335       27.195      909.156     4011.369      739.581        0.656        0.283       85.905       29.948        0.122      331.390       -0.626      871.281
11/16/2014  20:39:00       20.913      161.056      -18.152       34.199       40.019       26.861     1169.565     1601.525      721.540        1.510        0.175      162.409       26.180        0.026      331.431       -0.558      871.293
11/16/2014  20:40:00       18.326      141.214      -14.103       28.702       35.335       24.398      823.828     1248.532      595.254        1.157        0.133      142.399       21.246        0.022      331.410       -0.593      871.300
11/16/2014  20:41:00       33.362      123.860       -7.139       26.524       41.711       24.921      703.536     1739.800      621.044        0.978        0.153      128.274       23.487        0.034      331.413       -0.588      871.318
11/16/2014  20:42:00       23.830      104.157       -8.048       35.691       48.232       24.750     1273.854     2326.368      612.539        0.785        0.211      106.848       25.325        0.056      331.441       -0.542      871.316
11/16/2014  20:43:00       15.477      128.939      -20.926       23.595       24.139       12.794      556.716      582.707      163.698        0.930        0.065      129.864       11.141        0.007      331.475       -0.488      871.315
11/16/2014  20:44:00        1.917      172.368      -24.596       27.173       28.108       13.224      738.359      790.047      174.884        1.601        0.085      172.379        6.571        0.001      331.478       -0.484      871.306
11/16/2014  20:45:00       23.814       89.198       -4.156       28.694       55.434       29.897      823.343     3072.898      893.809        0.666        0.240       92.322       26.274        0.081      331.354       -0.685      871.294
11/16/2014  20:46:00       20.658      101.882      -13.862       18.534       30.611       14.992      343.510      937.038      224.768        0.625        0.075      103.956       11.231        0.012      331.370       -0.661      871.285
11/16/2014  20:47:00       25.314       82.176      -10.245       28.164       24.702       21.848      793.199      610.209      477.337        0.469        0.094       85.987       17.911        0.043      331.300       -0.774      871.265
11/16/2014  20:48:00       15.020       94.493       -9.489       26.773       40.780       23.815      716.811     1662.993      567.140        0.610        0.147       95.679       21.419        0.050      331.317       -0.747      871.257
11/16/2014  20:49:00       18.990      138.032      -17.559       23.394       36.347       20.323      547.292     1321.125      413.012        1.100        0.114      139.332       18.468        0.018      331.416       -0.583      871.253
11/16/2014  20:50:00       35.105      102.828       -8.652       37.992       48.611       33.626     1443.387     2363.016     1130.710        0.841        0.247      108.655       28.672        0.070      331.353       -0.686      871.255
11/16/2014  20:51:00       23.421       61.363       -2.864       29.959       39.127       26.059      897.567     1530.922      679.071        0.371        0.155       65.681       26.113        0.158      331.303       -0.770      871.259
11/16/2014  20:52:00       24.946       96.832       -8.228       29.613       39.643       23.255      876.912     1571.544      540.816        0.653        0.149       99.993       24.638        0.061      331.344       -0.702      871.259
11/16/2014  20:53:00       24.139       79.078       -4.778       33.721       30.015       26.452     1137.091      900.924      699.685        0.480        0.137       82.680       22.533        0.074      331.306       -0.763      871.255
11/16/2014  20:54:00       21.693       76.805       -3.874       32.242       49.440       29.589     1039.550     2444.314      875.498        0.537        0.218       79.810       29.933        0.141      331.290       -0.789      871.257
11/16/2014  20:55:00       28.341       88.596       -8.262       30.008       47.500       27.762      900.456     2256.246      770.724        0.632        0.196       93.019       27.691        0.089      331.308       -0.760      871.267
11/16/2014  20:56:00       24.299       62.357       -3.359       26.350       46.163       27.736      694.326     2131.001      769.296        0.404        0.180       66.924       27.137        0.164      331.298       -0.776      871.271
11/16/2014  20:57:00       16.133       92.023      -16.805       20.729       31.907       17.756      429.696     1018.037      315.283        0.539        0.088       93.427       15.997        0.029      331.332       -0.721      871.264
11/16/2014  20:58:00       21.818       69.537       -0.126       34.627       51.754       28.737     1199.020     2678.484      825.831        0.501        0.235       72.879       35.759        0.241      331.304       -0.767      871.270
11/16/2014  20:59:00       24.104       87.314       -9.911       17.281       29.697       16.604      298.631      881.911      275.679        0.488        0.073       90.580       15.234        0.028      331.374       -0.653      871.267
11/16/2014  21:00:00       24.607       54.604       -1.384       24.181       27.192       19.282      584.740      739.380      371.808        0.264        0.085       59.893       17.518        0.086      331.304       -0.767      871.278
11/16/2014  21:01:00       30.270       65.222       -3.159       24.565       31.261       20.096      603.432      977.255      403.843        0.358        0.099       71.904       18.681        0.067      331.271       -0.821      871.292
11/16/2014  21:02:00       35.626       48.838        2.615       25.357       27.457       15.809      643.002      753.905      249.940        0.265        0.082       60.451       13.867        0.053      331.269       -0.824      871.305
11/16/2014  21:03:00       22.140       73.091      -12.395       18.967       20.760       10.320      359.751      430.966      106.505        0.344        0.045       76.370        9.912        0.017      331.316       -0.748      871.311
11/16/2014  21:04:00       20.473       70.941       -4.059       20.489       27.323       17.629      419.793      746.532      310.792        0.347        0.074       73.837       13.579        0.034      331.309       -0.758      871.312
11/16/2014  21:05:00       17.257       83.189      -10.858       18.432       22.686       12.883      339.731      514.650      165.977        0.418        0.051       84.960        8.885        0.011      331.349       -0.692      871.323
11/16/2014  21:06:00       40.704       54.900       -7.460       35.726       37.782       23.049     1276.319     1427.482      531.235        0.398        0.162       68.344       25.749        0.142      331.291       -0.789      871.339
11/16/2014  21:07:00       21.225       79.584      -14.122       21.074       20.424       13.018      444.095      417.136      169.468        0.401        0.052       82.366       11.915        0.021      331.370       -0.658      871.356
11/16/2014  21:08:00       20.992      101.452      -15.785       20.682       27.140       15.557      427.729      736.578      242.026        0.619        0.070      103.601       16.015        0.024      331.370       -0.658      871.358
11/16/2014  21:09:00       16.693       75.595      -11.631       21.827       19.406       12.117      476.399      376.598      146.833        0.356        0.050       77.416        7.007        0.008      331.377       -0.647      871.360
11/16/2014  21:10:00       12.469       87.117      -14.629       15.371       36.532       16.096      236.279     1334.580      259.066        0.489        0.091       88.005       20.149        0.052      331.404       -0.602      871.357
11/16/2014  21:11:00       17.604       91.899      -15.218       24.016       25.911       18.526      576.747      671.357      343.211        0.529        0.080       93.569       14.743        0.025      331.401       -0.609      871.356
11/16/2014  21:12:00       20.170       88.707      -16.929       17.012       19.168       11.666      289.412      367.419      136.086        0.468        0.040       90.971        6.084        0.004      331.385       -0.635      871.358
11/16/2014  21:13:00       14.526       97.457      -14.836       20.297       24.795       13.522      411.972      614.789      182.833        0.557        0.060       98.533       11.608        0.014      331.427       -0.566      871.356
11/16/2014  21:14:00       37.087       75.434       -7.235       34.076       35.495       21.120     1161.191     1259.911      446.073        0.499        0.143       84.058       20.702        0.061      331.335       -0.716      871.355
11/16/2014  21:15:00       17.685       94.919      -18.744       17.235       21.229       10.853      297.039      450.682      117.777        0.527        0.043       96.552        7.695        0.006      331.390       -0.627      871.355
11/16/2014  21:16:00       12.327       90.327      -14.688       14.720       20.551       13.109      216.691      422.327      171.844        0.467        0.041       91.164        9.288        0.010      331.365       -0.666      871.362
11/16/2014  21:17:00        4.869      110.384      -20.248       10.296       11.314        8.404      106.007      127.998       70.624        0.646        0.015      110.491        6.646        0.004      331.419       -0.579      871.360
11/16/2014  21:18:00       -0.371      104.324      -17.717        8.657       11.322        7.834       74.936      128.182       61.370        0.573        0.013      104.324        3.378        0.001      331.378       -0.643      871.356
11/16/2014  21:19:00       15.058      105.972      -11.536       24.346       42.735       20.862      592.710     1826.276      435.227        0.722        0.143      107.037       23.970        0.050      331.315       -0.749      871.352
11/16/2014  21:20:00       19.421      110.872      -18.929       12.656       18.630        8.139      160.166      347.083       66.238        0.680        0.029      112.560        7.267        0.004      331.362       -0.672      871.343
11/16/2014  21:21:00       21.984      112.938      -19.668       16.410       21.454        8.677      269.275      460.280       75.297        0.721        0.040      115.058        8.253        0.005      331.357       -0.681      871.335
11/16/2014  21:22:00       21.547      114.717      -21.048       14.254       25.075        9.828      203.165      628.763       96.581        0.750        0.046      116.723        9.554        0.007      331.368       -0.663      871.333
11/16/2014  21:23:00       29.595      101.056      -15.429       15.715       31.757       13.830      246.969     1008.490      191.258        0.639        0.072      105.300       14.556        0.019      331.334       -0.718      871.337
11/16/2014  21:24:00       27.359       71.251       -7.249       19.541       42.393       21.523      381.864     1797.161      463.258        0.426        0.132       76.323       24.503        0.103      331.239       -0.874      871.340
11/16/2014  21:25:00       31.451       73.613       -5.559       20.993       32.968       18.076      440.720     1086.872      326.748        0.415        0.093       80.050       18.345        0.053      331.282       -0.802      871.349
11/16/2014  21:26:00       17.087       88.855      -12.626       18.496       42.806       16.391      342.103     1832.339      268.670        0.539        0.122       90.484       20.232        0.050      331.343       -0.702      871.348
11/16/2014  21:27:00       26.442      116.732      -18.982       22.204       29.923       19.826      492.999      895.400      393.090        0.823        0.089      119.689       14.902        0.016      331.361       -0.673      871.350
11/16/2014  21:28:00       23.602       83.404       -6.775       21.130       49.078       19.210      446.481     2408.671      369.030        0.539        0.161       86.679       24.921        0.083      331.322       -0.739      871.351
11/16/2014  21:29:00       26.904       73.659       -6.069       15.957       29.855       16.885      254.637      891.346      285.098        0.381        0.072       78.419       16.555        0.045      331.300       -0.775      871.349
11/16/2014  21:30:00       28.340       67.210      -10.277       20.246       32.653       19.474      409.911     1066.192      379.240        0.364        0.093       72.941       18.534        0.065      331.270       -0.823      871.338
11/16/2014  21:31:00       26.478       59.509       -7.120       17.695       17.211       12.196      313.125      296.230      148.744        0.253        0.038       65.134        9.615        0.022      331.242       -0.868      871.326
11/16/2014  21:32:00       28.179       37.589       -3.526       15.257       18.217       12.364      232.775      331.856      152.864        0.147        0.036       46.979       12.119        0.067      331.225       -0.896      871.319
11/16/2014  21:33:00       17.535       36.991       -1.071       18.663       24.833       13.334      348.290      616.689      177.790        0.141        0.057       40.937       13.647        0.111      331.170       -0.987      871.309
11/16/2014  21:34:00       27.187       33.910        3.783       16.077       18.279       11.299      258.479      334.113      127.671        0.131        0.036       43.463        8.409        0.037      331.250       -0.856      871.298
11/16/2014  21:35:00       34.732       29.770       -2.260       20.748       16.971       16.062      430.482      288.027      257.977        0.154        0.049       45.744        9.674        0.045      331.232       -0.886      871.293
11/16/2014  21:36:00       36.761       36.116        7.762       25.553       18.409       16.258      652.953      338.904      264.315        0.199        0.063       51.534        8.585        0.028      331.229       -0.891      871.289
11/16/2014  21:37:00       36.190       55.988       -8.484       20.151       31.294       19.489      406.053      979.330      379.824        0.314        0.088       66.666       19.244        0.083      331.181       -0.968      871.288
11/16/2014  21:38:00       24.899       57.866      -11.292       21.802       20.554       11.427      475.307      422.471      130.565        0.256        0.051       62.995       10.580        0.028      331.180       -0.972      871.295
11/16/2014  21:39:00       30.793       64.019       -7.418       20.967       28.494       19.167      439.598      811.914      367.375        0.336        0.081       71.040       16.975        0.057      331.188       -0.957      871.303
11/16/2014  21:40:00       24.875       73.476       -4.070       21.453       33.410       17.325      460.214     1116.257      300.169        0.395        0.094       77.573       17.044        0.048      331.151       -1.019      871.311
11/16/2014  21:41:00       14.776       60.471       -6.820       18.543       25.948       16.169      343.828      673.293      261.430        0.260        0.064       62.250       13.565        0.047      331.120       -1.070      871.318
11/16/2014  21:42:00       28.722       37.082       -1.649       25.113       18.635       16.219      630.652      347.280      263.055        0.172        0.062       46.904       14.773        0.099      331.071       -1.151      871.316
11/16/2014  21:43:00       32.813       43.262        5.443       26.757       23.609       18.793      715.947      557.366      353.162        0.230        0.081       54.299       15.019        0.077      331.087       -1.123      871.310
11/16/2014  21:44:00       29.986       60.716       -8.500       16.021       23.199       14.257      256.682      538.171      203.269        0.283        0.050       67.717       11.206        0.027      331.141       -1.035      871.302
11/16/2014  21:45:00       17.723       65.516       -4.776       17.832       17.849       16.342      317.968      318.573      267.057        0.277        0.045       67.871       12.408        0.033      331.150       -1.020      871.296
11/16/2014  21:46:00       19.262       88.026      -18.229       12.818       19.554        8.307      164.309      382.347       69.009        0.453        0.031       90.109        3.770        0.002      331.185       -0.962      871.297
11/16/2014  21:47:00       17.738      121.010      -18.968       12.109       17.594        9.441      146.634      309.562       89.129        0.793        0.027      122.303        7.868        0.004      331.169       -0.989      871.294
11/16/2014  21:48:00       10.712      115.028      -17.055       18.982       19.608        9.591      360.298      384.481       91.984        0.724        0.042      115.526        9.027        0.006      331.153       -1.017      871.296
11/16/2014  21:49:00        6.099      123.405      -17.693       13.746       12.060        9.106      188.964      145.441       82.920        0.800        0.021      123.556        4.669        0.001      331.174       -0.982      871.299
11/16/2014  21:50:00       13.817       93.408      -13.267       15.810       25.110       10.259      249.965      630.516      105.249        0.504        0.049       94.425        8.713        0.009      331.141       -1.036      871.302
11/16/2014  21:51:00        4.287      104.787      -13.331       21.587       18.219       12.470      465.995      331.926      155.507        0.606        0.048      104.874        8.208        0.006      331.107       -1.091      871.297
11/16/2014  21:52:00       -6.948      107.902      -16.554       17.613       19.761        9.519      310.208      390.495       90.615        0.638        0.040      108.126        8.851        0.007      331.101       -1.100      871.286
11/16/2014  21:53:00       -9.727      124.512      -17.304       19.805       22.380       13.842      392.223      500.844      191.605        0.849        0.054      124.891       12.149        0.009      331.109       -1.087      871.278
11/16/2014  21:54:00       -4.859      103.092      -15.484       16.418       27.052       15.438      269.550      731.797      238.346        0.607        0.062      103.206       10.733        0.011      331.231       -0.886      871.282
11/16/2014  21:55:00      -11.684      107.055      -17.482       20.812       22.035       16.707      433.133      485.532      279.114        0.655        0.060      107.691       10.529        0.010      331.192       -0.952      871.285
11/16/2014  21:56:00        4.759      109.670      -19.897       18.007       23.503       12.965      324.241      552.407      168.084        0.675        0.052      109.773       10.927        0.010      331.171       -0.985      871.290
11/16/2014  21:57:00       -3.667       78.928       -7.037       20.897       21.798       12.835      436.690      475.168      164.735        0.368        0.054       79.013        8.510        0.012      331.121       -1.068      871.283
11/16/2014  21:58:00       -4.864       66.071       -5.045       21.062       32.148       13.920      443.609     1033.472      193.772        0.304        0.084       66.250       17.231        0.068      331.155       -1.013      871.269
11/16/2014  21:59:00      -15.922       53.508       -9.702       28.001       25.152       12.068      784.058      632.637      145.633        0.239        0.078       55.827        9.007        0.026      331.071       -1.151      871.252
11/16/2014  22:00:00       -9.741       76.228       -6.874       31.402       29.272       17.309      986.092      856.845      299.589        0.405        0.107       76.848       12.215        0.025      331.030       -1.220      871.241
11/16/2014  22:01:00        7.541       48.502       -8.316       19.154       31.879       13.055      366.865     1016.256      170.435        0.202        0.078       49.085       16.188        0.109      331.057       -1.174      871.243
11/16/2014  22:02:00       -8.202       63.747       -4.319       27.242       27.944       20.000      742.133      780.861      399.994        0.304        0.096       64.272       17.473        0.074      331.049       -1.187      871.248
11/16/2014  22:03:00       11.745       93.117      -15.638       23.759       23.072       14.999      564.479      532.320      224.960        0.519        0.066       93.854        9.428        0.010      331.013       -1.248      871.248
11/16/2014  22:04:00      -18.027      105.628      -17.286       12.077       10.951       10.166      145.850      119.925      103.351        0.607        0.018      107.155        4.009        0.001      330.968       -1.319      871.246
11/16/2014  22:05:00        2.141      104.953      -13.936       14.528       15.051       11.768      211.074      226.530      138.484        0.589        0.029      104.975        6.874        0.004      331.012       -1.247      871.239
11/16/2014  22:06:00      -10.836      102.141      -11.261       15.373       25.492       13.311      236.338      649.843      177.185        0.587        0.053      102.714        7.403        0.005      330.944       -1.358      871.243
11/16/2014  22:07:00        9.278       94.461      -11.127       25.177       36.443       14.816      633.878     1328.082      219.517        0.566        0.109       94.915       18.244        0.037      330.960       -1.331      871.245
11/16/2014  22:08:00       20.937      100.339      -19.375       17.089       14.875       10.396      292.024      221.263      108.083        0.575        0.031      102.500       10.578        0.011      330.976       -1.308      871.238
11/16/2014  22:09:00       18.197       83.218      -12.572       20.056       14.783       13.779      402.244      218.532      189.854        0.411        0.041       85.184        6.102        0.005      330.990       -1.284      871.238
11/16/2014  22:10:00       17.678       77.757      -10.357       11.996       12.704        8.248      143.894      161.390       68.032        0.342        0.019       79.742        5.898        0.005      330.948       -1.351      871.249
11/16/2014  22:11:00       19.214       81.753      -14.760       13.745       13.128        8.572      188.918      172.356       73.484        0.385        0.022       83.981        6.165        0.005      330.993       -1.279      871.270
11/16/2014  22:12:00       23.619       84.717      -15.705       10.425       19.182        9.965      108.672      367.935       99.296        0.428        0.029       87.948        7.334        0.007      330.997       -1.271      871.288
11/16/2014  22:13:00       31.158       50.227        2.514       40.174       22.924       20.909     1613.944      525.489      437.185        0.304        0.129       59.107       23.342        0.156      330.916       -1.406      871.293
11/16/2014  22:14:00       21.515       55.832       -3.145       23.741       22.343       15.030      563.658      499.200      225.904        0.244        0.064       59.834       13.059        0.048      330.916       -1.405      871.292
11/16/2014  22:15:00       26.437       32.731        6.014       26.193       19.079       14.858      686.079      363.993      220.768        0.154        0.064       42.074       12.051        0.082      330.944       -1.359      871.286
11/16/2014  22:16:00       21.063       44.811       -2.386       18.548       18.482       15.674      344.021      341.583      245.672        0.169        0.047       49.515        7.454        0.023      330.931       -1.380      871.283
11/16/2014  22:17:00       20.199       36.723       -0.499       15.385       14.746       10.178      236.709      217.439      103.586        0.116        0.028       41.911        7.474        0.032      330.956       -1.339      871.278
11/16/2014  22:18:00       24.135       38.878        0.626       16.444       15.108       11.977      270.418      228.255      143.456        0.137        0.032       45.760       10.372        0.051      330.908       -1.418      871.279
11/16/2014  22:19:00       13.430       52.598       -6.670       12.686       10.289        7.790      160.924      105.859       60.681        0.166        0.016       54.285        5.034        0.009      330.951       -1.347      871.277
11/16/2014  22:20:00        1.678       70.012       -7.412       11.175        9.391        8.103      124.876       88.186       65.652        0.262        0.014       70.032        3.999        0.003      330.969       -1.317      871.273
11/16/2014  22:21:00       15.714       55.506       -3.766       14.854       20.684       14.531      220.655      427.820      211.161        0.210        0.043       57.688       13.239        0.053      330.873       -1.475      871.273
11/16/2014  22:22:00       40.619       48.912       -0.697       29.100       17.638       16.217      846.813      311.095      262.991        0.273        0.071       63.580       12.958        0.042      330.825       -1.554      871.270
11/16/2014  22:23:00       29.563       49.725       -5.098       21.606       22.323       18.786      466.801      498.338      352.910        0.235        0.066       57.850       14.908        0.066      330.824       -1.556      871.272
11/16/2014  22:24:00       19.939       44.410        3.398       19.188       25.576       22.039      368.179      654.107      485.720        0.194        0.075       48.680       17.798        0.134      330.815       -1.569      871.278
11/16/2014  22:25:00       25.639       52.528       -8.703       17.627       22.721        9.922      310.706      516.240       98.450        0.221        0.046       58.451       10.398        0.032      330.848       -1.516      871.284
11/16/2014  22:26:00       19.964       59.620       -5.497       12.329       13.149       11.315      152.010      172.901      128.030        0.222        0.023       62.874        7.254        0.013      330.866       -1.486      871.292
11/16/2014  22:27:00       26.248       66.547       -6.501       16.951       22.649       18.514      287.334      512.981      342.780        0.315        0.057       71.537       16.225        0.051      330.828       -1.548      871.288
11/16/2014  22:28:00       15.342       57.042       -1.150       20.538       23.549       21.379      421.829      554.572      457.062        0.246        0.072       59.069       15.708        0.071      330.770       -1.644      871.294
11/16/2014  22:29:00       23.579       43.149       -6.119       22.762       20.480       11.764      518.108      419.411      138.393        0.177        0.054       49.171       12.728        0.067      330.815       -1.570      871.297
11/16/2014  22:30:00       18.801       54.456      -11.236       13.642       18.542        8.440      186.091      343.815       71.237        0.202        0.030       57.611        7.010        0.015      330.864       -1.489      871.293
11/16/2014  22:31:00       22.589       69.383      -11.286       11.831       13.688        9.346      139.971      187.352       87.341        0.293        0.021       72.967        5.724        0.006      330.927       -1.385      871.293
11/16/2014  22:32:00       19.927       70.008      -10.271       11.361       13.259        7.868      129.078      175.793       61.906        0.289        0.018       72.788        5.412        0.006      330.954       -1.343      871.293
11/16/2014  22:33:00       23.338       66.669       -7.404       13.616        9.617        6.408      185.388       92.482       41.059        0.268        0.016       70.636        5.329        0.006      330.962       -1.329      871.291
11/16/2014  22:34:00       10.990       51.291       -2.786       10.094       25.415        9.074      101.898      645.929       82.330        0.179        0.042       52.456        8.944        0.029      330.919       -1.399      871.295
11/16/2014  22:35:00       12.836       23.575       -4.518       12.807       12.682        7.685      164.020      160.845       59.065        0.056        0.019       26.843        6.313        0.055      330.853       -1.506      871.298
11/16/2014  22:36:00       14.890       34.519       -6.554       11.900       12.887        7.819      141.604      166.087       61.136        0.091        0.018       37.594        4.975        0.018      330.877       -1.468      871.294
11/16/2014  22:37:00       20.834       38.277       -3.465       10.791       21.793       12.315      116.441      474.935      151.663        0.133        0.037       43.580       11.373        0.068      330.869       -1.481      871.299
11/16/2014  22:38:00       15.110       42.838       -4.547       12.802       16.049        7.088      163.882      257.565       50.237        0.128        0.024       45.424        6.510        0.021      330.903       -1.426      871.297
11/16/2014  22:39:00       17.210       41.193       -9.524       12.968       11.770        6.147      168.181      138.526       37.784        0.121        0.017       44.644        5.976        0.018      330.891       -1.443      871.302
11/16/2014  22:40:00        7.431       40.155       -3.028       12.825       10.604        9.075      164.483      112.439       82.357        0.102        0.018       40.837        7.697        0.036      330.849       -1.514      871.302
11/16/2014  22:41:00        4.398       43.362       -5.983        4.789       11.760        5.286       22.935      138.304       27.944        0.106        0.009       43.585        3.619        0.007      330.932       -1.374      871.306
11/16/2014  22:42:00       -6.343       18.598       -2.808        8.566       14.167        4.670       73.384      200.703       21.809        0.034        0.015       19.650        4.051        0.043      330.799       -1.598      871.313
11/16/2014  22:43:00      -24.385        0.847        0.193        8.869        6.925        5.775       78.656       47.957       33.347        0.038        0.008       24.399        2.939        0.015      330.612       -1.902      871.305
11/16/2014  22:44:00      -39.414       -7.744      -11.523        7.991       10.596        7.386       63.852      112.277       54.546        0.099        0.012       40.168        2.317        0.003      330.506       -2.077      871.304
11/16/2014  22:45:00      -38.148       -6.313      -10.016       13.617       10.712        5.852      185.415      114.748       34.250        0.096        0.017       38.667        1.947        0.003      330.426       -2.208      871.303
11/16/2014  22:46:00      -58.506        0.441      -17.685       10.346        8.767        7.517      107.033       76.869       56.498        0.199        0.012       58.508        5.650        0.009      330.322       -2.378      871.300
11/16/2014  22:47:00      -61.989       -7.431       -9.883       13.919       10.598        9.557      193.726      112.311       91.344        0.220        0.020       62.432        6.728        0.012      330.281       -2.447      871.299
11/16/2014  22:48:00      -51.333        4.030      -10.446        9.296       11.091       11.060       86.407      123.005      122.330        0.155        0.017       51.491        6.499        0.016      330.350       -2.334      871.304
11/16/2014  22:49:00      -38.625        0.479       -8.216        9.661        6.795        6.354       93.331       46.176       40.375        0.087        0.009       38.628        3.123        0.007      330.515       -2.064      871.313
11/16/2014  22:50:00      -16.750       25.386       -5.375       16.327       24.714        7.239      266.564      610.793       52.396        0.094        0.046       30.414        4.402        0.021      330.608       -1.910      871.323
11/16/2014  22:51:00        8.290       50.838      -12.267       10.964       10.411        6.043      120.209      108.393       36.520        0.153        0.013       51.510        6.749        0.017      330.911       -1.410      871.331
11/16/2014  22:52:00        6.828       37.188       -6.193        7.878        7.182        4.790       62.060       51.584       22.947        0.080        0.007       37.809        4.122        0.012      330.941       -1.361      871.334
11/16/2014  22:53:00       18.115       42.482       -7.477        8.164        9.739        6.868       66.650       94.854       47.169        0.120        0.010       46.183        2.276        0.002      330.941       -1.362      871.334
11/16/2014  22:54:00        3.079       28.896       -4.551       13.484       19.427        9.045      181.820      377.393       81.812        0.075        0.032       29.060        7.418        0.065      330.804       -1.589      871.333
11/16/2014  22:55:00       -7.521       -9.379        2.435       19.478       13.178        8.798      379.403      173.663       77.406        0.039        0.032       12.022        9.218        0.588      330.724       -1.721      871.330
11/16/2014  22:56:00      -53.713        1.003      -11.667        9.435        6.050        6.309       89.026       36.600       39.806        0.159        0.008       53.723        2.966        0.003      330.336       -2.357      871.329
11/16/2014  22:57:00      -42.592       -0.870       -8.105       12.974        9.502        9.198      168.317       90.284       84.598        0.111        0.017       42.601        7.246        0.029      330.220       -2.547      871.331
11/16/2014  22:58:00      -42.423       -5.632      -19.350       18.080        9.264       11.781      326.880       85.827      138.780        0.138        0.028       42.795        7.890        0.034      330.117       -2.717      871.326
11/16/2014  22:59:00      -32.990      -10.805       -2.902       13.397       11.367        8.435      179.484      129.198       71.153        0.080        0.019       34.715        5.390        0.024      330.419       -2.220      871.318
11/16/2014  23:00:00      -37.578      -23.512       -9.235       13.247       10.486        5.955      175.489      109.959       35.462        0.119        0.016       44.327        3.171        0.005      330.338       -2.353      871.311
11/16/2014  23:01:00      -47.302       -9.602       -9.963       10.040       11.425        7.666      100.810      130.534       58.773        0.136        0.015       48.267        3.598        0.006      330.276       -2.454      871.305
11/16/2014  23:02:00      -55.547      -17.076      -10.545       16.597       17.623       11.289      275.457      310.585      127.445        0.210        0.036       58.112       10.704        0.034      330.268       -2.467      871.302
11/16/2014  23:03:00      -67.653      -17.001      -13.129       21.965       16.880       12.586      482.447      284.934      158.415        0.298        0.046       69.756       10.787        0.024      330.206       -2.569      871.308
11/16/2014  23:04:00      -66.657      -13.477       -7.161       22.332       15.866       14.135      498.722      251.718      199.797        0.281        0.048       68.006       13.489        0.039      330.106       -2.733      871.313
11/16/2014  23:05:00      -54.667       -8.085       -9.610       20.616       18.447       12.547      425.011      340.307      157.430        0.203        0.046       55.262        6.863        0.015      330.131       -2.693      871.323
11/16/2014  23:06:00      -67.128      -11.729      -13.326       35.440       19.371       14.737     1255.970      375.229      217.177        0.333        0.092       68.145       14.864        0.048      330.103       -2.738      871.326
11/16/2014  23:07:00      -61.455       -6.066       -6.383       27.243       16.678       15.513      742.176      278.141      240.664        0.256        0.063       61.754       15.922        0.066      330.085       -2.768      871.331
11/16/2014  23:08:00      -73.725       -7.466      -11.550       20.138       20.815       15.430      405.534      433.282      238.082        0.335        0.054       74.102       14.165        0.037      330.138       -2.682      871.332
11/16/2014  23:09:00      -52.713      -14.485      -13.726        9.923       13.559       10.486       98.462      183.847      109.954        0.178        0.020       54.667        8.515        0.024      330.135       -2.686      871.337
11/16/2014  23:10:00      -46.870      -12.608       -8.027        8.104       12.441       11.401       65.671      154.773      129.991        0.139        0.018       48.536        5.654        0.014      330.269       -2.467      871.339
11/16/2014  23:11:00      -45.076       -1.101       -6.266       19.462       21.367       12.980      378.761      456.529      168.469        0.154        0.050       45.089        8.823        0.038      330.346       -2.340      871.339
11/16/2014  23:12:00      -49.487        4.001      -11.934       15.341       12.017        9.999      235.356      144.420       99.973        0.154        0.024       49.649        5.277        0.011      330.408       -2.238      871.336
11/16/2014  23:13:00      -39.600      -18.484       -9.309       16.745       12.781       13.280      280.409      163.363      176.365        0.131        0.031       43.702        7.375        0.028      330.275       -2.456      871.344
11/16/2014  23:14:00      -53.694      -11.760       -7.209       15.400       17.576       15.853      237.146      308.928      251.309        0.194        0.040       54.966       11.440        0.043      330.255       -2.491      871.363
11/16/2014  23:15:00      -42.883      -26.145      -10.254       16.220       12.613       10.865      263.073      159.090      118.046        0.158        0.027       50.225        8.385        0.028      330.198       -2.584      871.372
11/16/2014  23:16:00      -41.510      -20.295      -10.452       13.859       13.587        9.246      192.071      184.608       85.490        0.135        0.023       46.206        6.237        0.018      330.186       -2.603      871.378
11/16/2014  23:17:00      -38.416      -17.715      -10.334       15.125       15.961        9.766      228.770      254.765       95.370        0.124        0.029       42.303        6.858        0.026      330.145       -2.671      871.378
11/16/2014  23:18:00      -50.165      -24.753       -5.369       12.890       15.724       11.528      166.161      247.235      132.890        0.185        0.027       55.939       10.574        0.036      330.116       -2.716      871.397
11/16/2014  23:19:00      -43.502      -25.049      -13.678       16.304       11.883        9.501      265.817      141.196       90.264        0.160        0.025       50.199        3.469        0.005      330.219       -2.548      871.408
11/16/2014  23:20:00      -50.004      -29.476      -12.231       15.221       23.225       12.220      231.675      539.381      149.329        0.222        0.046       58.045        9.961        0.029      330.242       -2.510      871.408
11/16/2014  23:21:00      -60.273      -31.763      -10.193       15.982       12.320       11.824      255.437      151.785      139.809        0.265        0.027       68.131        6.432        0.009      330.094       -2.753      871.408
11/16/2014  23:22:00      -71.353      -19.878      -12.758       21.826       18.265       10.869      476.367      333.593      118.146        0.329        0.046       74.070        7.289        0.010      329.969       -2.957      871.414
11/16/2014  23:23:00      -77.078       -6.129      -12.753       25.388       16.502       14.330      644.570      272.309      205.335        0.363        0.056       77.321       14.830        0.037      329.880       -3.104      871.436
11/16/2014  23:24:00      -66.719      -13.171      -12.253       33.578       15.113       13.738     1127.478      228.399      188.736        0.316        0.077       68.007       10.438        0.024      329.858       -3.141      871.447
11/16/2014  23:25:00      -68.138      -22.731       -5.211       15.832       13.447       13.345      250.647      180.833      178.083        0.290        0.030       71.830        9.591        0.018      329.922       -3.034      871.453
11/16/2014  23:26:00      -28.766      -31.273       -1.781       24.515       10.772       12.888      601.003      116.038      166.102        0.135        0.044       42.491       10.898        0.066      329.915       -3.048      871.460
11/16/2014  23:27:00      -54.438      -24.668       -5.471       28.254       13.837       14.764      798.294      191.475      217.979        0.240        0.060       59.766       15.354        0.066      329.900       -3.072      871.467
11/16/2014  23:28:00      -90.154      -36.592      -10.764       20.384       29.673       14.548      415.503      880.500      211.644        0.554        0.075       97.297       13.870        0.020      329.872       -3.117      871.465
11/16/2014  23:29:00     -116.951      -23.461      -20.123       11.909       11.209       10.186      141.816      125.637      103.758        0.750        0.019      119.281        5.652        0.002      329.793       -3.243      871.455
11/16/2014  23:30:00      -75.703      -32.812       -8.756       26.664       25.546       14.940      710.982      652.604      223.189        0.424        0.079       82.508        9.450        0.013      329.813       -3.213      871.443
11/16/2014  23:31:00      -84.054      -32.368      -12.760       10.245       13.142        9.552      104.966      172.724       91.232        0.432        0.018       90.071        4.632        0.003      329.802       -3.232      871.445
11/16/2014  23:32:00      -63.247      -26.960       -7.493       17.078       16.409       13.015      291.661      269.243      169.402        0.276        0.037       68.753        6.516        0.009      329.879       -3.105      871.452
11/16/2014  23:33:00      -71.442      -38.567       -9.021       17.130       14.884       12.473      293.436      221.522      155.585        0.367        0.034       81.187        7.644        0.009      329.854       -3.147      871.459
11/16/2014  23:34:00      -68.023      -41.754       -8.594       25.153       19.624       11.421      632.669      385.118      130.444        0.380        0.057       79.816        8.051        0.010      329.861       -3.134      871.455
11/16/2014  23:35:00      -77.638      -36.487      -10.700       23.488       16.845       10.815      551.682      283.764      116.963        0.421        0.048       85.784        9.847        0.013      329.845       -3.162      871.451
11/16/2014  23:36:00      -33.713      -22.918        8.308       22.146       13.978       15.535      490.459      195.389      241.348        0.133        0.046       40.766       11.114        0.074      329.821       -3.199      871.454
11/16/2014  23:37:00      -71.022      -25.611       -8.838       13.506       18.920       13.295      182.402      357.948      176.763        0.325        0.036       75.498        6.894        0.008      329.861       -3.134      871.462
11/16/2014  23:38:00      -78.102      -48.667      -15.073       11.172       12.869        9.482      124.813      165.601       89.912        0.454        0.019       92.024        6.064        0.004      329.821       -3.201      871.455
11/16/2014  23:39:00      -92.434      -48.531      -13.222       20.856       15.220       10.254      434.991      231.655      105.151        0.592        0.039      104.400        6.509        0.004      329.901       -3.070      871.444
11/16/2014  23:40:00     -105.357      -21.093      -13.334       10.925        9.647        7.960      119.355       93.063       63.365        0.600        0.014      107.448        2.559        0.001      329.858       -3.140      871.445
11/16/2014  23:41:00      -96.400      -21.373      -11.895       15.440       10.971       10.901      238.383      120.357      118.826        0.518        0.024       98.741        1.722        0.000      329.841       -3.167      871.436
11/16/2014  23:42:00      -87.053      -17.510      -13.494       14.347       10.216       10.509      205.836      104.366      110.440        0.424        0.021       88.796        8.023        0.008      329.854       -3.145      871.428
11/16/2014  23:43:00      -84.943      -28.973       -9.791       16.245       14.171       13.009      263.911      200.805      169.240        0.439        0.032       89.748        9.200        0.011      329.841       -3.168      871.433
11/16/2014  23:44:00     -105.241      -23.544      -13.939        9.182        9.436        9.374       84.304       89.040       87.873        0.604        0.013      107.843        4.332        0.002      329.793       -3.245      871.446
11/16/2014  23:45:00      -81.409      -41.973      -12.805       23.844       15.832       12.441      568.540      250.644      154.771        0.476        0.049       91.593       12.317        0.018      329.772       -3.280      871.447
11/16/2014  23:46:00      -73.782      -37.138       -6.887       18.471       16.573       10.929      341.166      274.666      119.453        0.380        0.037       82.602        7.293        0.008      329.753       -3.310      871.448
11/16/2014  23:47:00      -77.721      -33.989      -12.899       11.379       14.873       10.236      129.483      221.194      104.778        0.391        0.023       84.828        5.950        0.005      329.772       -3.279      871.446
11/16/2014  23:48:00      -49.534      -38.045      -11.115       19.831       15.536       15.268      393.262      241.363      233.099        0.245        0.043       62.459        8.145        0.017      329.852       -3.150      871.455
11/16/2014  23:49:00      -17.133      -24.655        1.120       18.606       13.366       16.031      346.165      178.648      256.996        0.084        0.039       30.024       10.118        0.114      329.823       -3.196      871.457
11/16/2014  23:50:00      -10.471      -36.055       -1.621       17.465       21.885       12.032      305.036      478.943      144.768        0.117        0.046       37.545        9.434        0.063      329.850       -3.153      871.460
11/16/2014  23:51:00      -41.577       -9.355       -1.370       25.782       14.932       15.434      664.713      222.951      238.222        0.147        0.056       42.617       14.730        0.119      329.857       -3.142      871.464
11/16/2014  23:52:00      -56.375      -21.150       -3.625       18.706       14.773       12.608      349.897      218.227      158.971        0.218        0.036       60.212       10.412        0.030      329.810       -3.218      871.458
11/16/2014  23:53:00      -57.587      -28.617       -6.084       14.845       13.255        9.247      220.387      175.702       85.516        0.233        0.024       64.305        6.779        0.011      329.850       -3.153      871.453
11/16/2014  23:54:00      -45.588      -25.937       -4.719       18.320       15.227       10.381      335.622      231.855      107.761        0.172        0.034       52.450        7.437        0.020      329.938       -3.008      871.460
11/16/2014  23:55:00      -72.938      -10.906      -12.483       18.482       12.842       10.689      341.578      164.916      114.263        0.311        0.031       73.749        8.140        0.012      329.919       -3.039      871.467
11/16/2014  23:56:00      -71.458      -12.994      -13.271       17.551       12.285        8.891      308.037      150.922       79.053        0.299        0.027       72.629        6.539        0.008      329.878       -3.108      871.468
11/16/2014  23:57:00      -83.321      -11.101      -12.388       12.204       11.668       10.805      148.934      136.151      116.754        0.381        0.020       84.057        4.138        0.002      329.911       -3.053      871.460
11/16/2014  23:58:00      -78.542      -17.531      -10.246       15.201       11.737        9.752      231.062      137.761       95.100        0.352        0.023       80.474        8.339        0.011      329.882       -3.100      871.456
11/16/2014  23:59:00      -73.674      -20.833      -10.852       14.385       10.979        9.889      206.926      120.547       97.783        0.320        0.021       76.563        7.427        0.009      329.919       -3.040      871.463
